[[{"header":{"parameterUnit":"m.s-1","parameterCategory":1,"la1":31.0,"la2":29.5877,"lo1":-88.7671,"lo2":-86.6584,"dy":0.0162,"dx":0.0185,"nx":115,"ny":88,"refTime":"2023-05-01T12:00:00:Z","depth":0,"parameterNumber":2,"parameterNumberName":"U-component_of_WINDS"},"data":[0.0,0.0,0.0,0.0,0.0,0.0,0.0,0.0,0.0,0.0,0.0,0.0,0.0,0.0,0.0,0.0,0.0,0.0,0.0,0.0,0.0,0.0,0.0,0.0,0.0,0.0,0.0,0.0,0.0,0.0,0.0,0.0,0.0,0.0,0.0,0.0,0.0,0.0,0.0,0.0,0.0,0.0,0.0,0.0,0.0,0.0,0.0,0.0,0.0,0.0,0.0,0.0,0.0,0.0,0.0,0.0,0.0,0.0,0.0,0.0,0.0,0.0,0.0,0.0,0.0,0.0,0.0,0.0,0.0,0.0,0.0,0.0,0.0,0.0,0.0,0.0,0.0,0.0,0.0,0.0,0.0,0.0,0.0,0.0,0.0,0.0,0.0,0.0,0.0,0.0,0.0,0.0,0.0,0.0,0.0,0.0,0.0,0.0,0.0,0.0,0.0,0.0,0.0,0.0,0.0,0.0,0.0,0.0,0.0,0.0,0.0,0.0,0.0,0.0,0.0,0.0,0.0,0.0,0.0,0.0,0.0,0.0,0.0,0.0,0.0,0.0,0.0,0.0,0.0,0.0,0.0,0.0,0.0,0.0,0.0,0.0,0.0,0.0,0.0,0.0,0.0,0.0,0.0,0.0,0.0,0.0,0.0,0.0,0.0,0.0,0.0,0.0,0.0,0.0,0.0,0.0,0.0,0.0,0.0,0.0,0.0,0.0,0.0,0.0,0.0,0.0,0.0,0.0,0.0,0.0,0.0,0.0,0.0,0.0,0.0,0.0,0.0,0.0,0.0,0.0,0.0,0.0,0.0,0.0,0.0,0.0,0.0,0.0,0.0,0.0,0.0,0.0,0.0,0.0,0.0,0.0,0.0,0.0,0.0,0.0,0.0,0.0,0.0,0.0,0.0,0.0,0.0,0.0,0.0,0.0,0.0,0.0,0.0,0.0,0.0,0.0,0.0,0.0,0.0,0.0,0.0,0.0,0.0,0.0,0.0,0.0,0.0,0.0,0.0,0.0,0.0,0.0,0.0,0.0,0.0,0.0,0.0,0.0,0.0,0.0,0.0,0.0,0.0,0.0,0.0,0.0,0.0,0.0,0.0,0.0,0.0,0.0,0.0,0.0,0.0,0.0,0.0,0.0,0.0,0.0,0.0,0.0,0.0,0.0,0.0,0.0,0.0,0.0,0.0,0.0,0.0,0.0,0.0,0.0,0.0,0.0,0.0,0.0,0.0,0.0,0.0,0.0,0.0,0.0,0.0,0.0,0.0,0.0,0.0,0.0,0.0,0.0,0.0,0.0,0.0,0.0,0.0,0.0,0.0,0.0,0.0,0.0,0.0,0.0,0.0,0.0,0.0,0.0,0.0,0.0,0.0,0.0,0.0,0.0,0.0,0.0,0.0,0.0,0.0,0.0,0.0,0.0,0.0,0.0,0.0,0.0,0.0,0.0,0.0,0.0,0.0,0.0,0.0,0.0,0.0,0.0,0.0,0.0,0.0,0.0,0.0,0.0,0.0,0.0,0.0,0.0,0.0,0.0,0.0,0.0,0.0,0.0,0.0,0.0,0.0,0.0,0.0,0.0,0.0,0.0,0.0,0.0,0.0,0.0,0.0,0.0,0.0,0.0,0.0,0.0,0.0,0.0,0.0,0.0,0.0,0.0,0.0,0.0,0.0,0.0,0.0,0.0,0.0,0.0,0.0,0.0,0.0,0.0,0.0,0.0,0.0,0.0,0.0,0.0,0.0,0.0,0.0,0.0,0.0,0.0,0.0,0.0,0.0,0.0,0.0,0.0,0.0,0.0,0.0,0.0,0.0,0.0,0.0,0.0,0.0,0.0,0.0,0.0,0.0,0.0,0.0,0.0,0.0,0.0,0.0,0.0,0.0,0.0,0.0,0.0,0.0,0.0,0.0,0.0,0.0,0.0,0.0,0.0,0.0,0.0,0.0,0.0,0.0,0.0,0.0,0.0,0.0,0.0,0.0,0.0,0.0,0.0,0.0,0.0,0.0,0.0,0.0,0.0,0.0,0.0,0.0,0.0,0.0,0.0,0.0,0.0,0.0,0.0,0.0,0.0,0.0,0.0,0.0,0.0,0.0,0.0,0.0,0.0,0.0,0.0,0.0,0.0,0.0,0.0,0.0,0.0,0.0,0.0,0.0,0.0,0.0,0.0,0.0,0.0,0.0,0.0,0.0,0.0,0.0,0.0,0.0,0.0,0.0,0.0,0.0,0.0,0.0,0.0,0.0,0.0,0.0,0.0,0.0,0.0,0.0,0.0,0.0,0.0,0.0,0.0,0.0,0.0,0.0,0.0,0.0,0.0,0.0,0.0,0.0,0.0,0.0,0.0,0.0,0.0,0.0,0.0,0.0,0.0,0.0,0.0,0.0,0.0,0.0,0.0,0.0,0.0,0.0,0.0,0.0,0.0,0.0,0.0,0.0,0.0,0.0,0.0,0.0,0.0,0.0,0.0,0.0,0.0,0.0,0.0,0.0,0.0,0.0,0.0,0.0,0.0,0.0,0.0,0.0,0.0,0.0,0.0,0.0,0.0,0.0,0.0,0.0,0.0,0.0,0.0,0.0,0.0,0.0,0.0,0.0,0.0,0.0,0.0,0.0,0.0,0.0,0.0,0.0,0.0,0.0,0.0,0.0,0.0,0.0,0.0,0.0,0.0,0.0,0.0,0.0,0.0,0.0,0.0,0.0,0.0,0.0,0.0,0.0,0.0,0.0,0.0,0.0,0.0,0.0,0.0,0.0,0.0,0.0,0.0,0.0,0.0,0.0,0.0,0.0,0.0,0.0,0.0,0.0,0.0,0.0,0.0,0.0,0.0,0.0,0.0,0.0,0.0,0.0,0.0,0.0,0.0,0.0,0.0,0.0,0.0,0.0,0.0,0.0,0.0,0.0,0.0,0.0,0.0,0.0,0.0,0.0,0.0,0.0,0.0,0.0,0.0,0.0,0.0,0.0,0.0,0.0,0.0,0.0,0.0,0.0,0.0,0.0,0.0,0.0,0.0,0.0,0.0,0.0,0.0,0.0,0.0,0.0,0.0,0.0,0.0,0.0,0.0,0.0,0.0,0.0,0.0,0.0,0.0,0.0,0.0,0.0,0.0,0.0,0.0,0.0,0.0,0.0,0.0,0.0,0.0,0.0,0.0,0.0,0.0,0.0,0.0,0.0,0.0,0.0,0.0,0.0,0.0,0.0,0.0,0.0,0.0,0.0,0.0,0.0,0.0,0.0,0.0,0.0,0.0,0.0,0.0,0.0,0.0,0.0,0.0,0.0,0.0,0.0,0.0,0.0,0.0,0.0,0.0,0.0,0.0,0.0,0.0,0.0,0.0,0.0,0.0,0.0,0.0,0.0,0.0,0.0,0.0,0.0,0.0,0.0,0.0,0.0,0.0,0.0,0.0,0.0,0.0,0.0,0.0,0.0,0.0,0.0,0.0,0.0,0.0,0.0,0.0,0.0,0.0,0.0,0.0,0.0,0.0,0.0,0.0,0.0,0.0,0.0,0.0,0.0,0.0,0.0,0.0,0.0,0.0,0.0,0.0,0.0,0.0,0.0,0.0,0.0,0.0,0.0,0.0,0.0,0.0,0.0,0.0,0.0,0.0,0.0,0.0,0.0,0.0,0.0,0.0,0.0,0.0,0.0,0.0,0.0,0.0,0.0,0.0,0.0,0.0,0.0,0.0,0.0,0.0,0.0,0.0,0.0,0.0,0.0,0.0,0.0,0.0,0.0,0.0,0.0,0.0,0.0,0.0,0.0,0.0,0.0,0.0,0.0,0.0,0.0,0.0,0.0,0.0,0.0,0.0,0.0,0.0,0.0,0.0,0.0,0.0,0.0,0.0,0.0,0.0,0.0,0.0,0.0,0.0,0.0,0.0,0.0,0.0,0.0,0.0,0.0,0.0,0.0,0.0,0.0,0.0,0.0,0.0,0.0,0.0,0.0,0.0,0.0,0.0,0.0,0.0,0.0,0.0,0.0,0.0,0.0,0.0,0.0,0.0,0.0,0.0,0.0,0.0,0.0,0.0,0.0,0.0,0.0,0.0,0.0,0.0,0.0,0.0,0.0,0.0,0.0,0.0,0.0,0.0,0.0,0.0,0.0,0.0,0.0,0.0,0.0,0.0,0.0,0.0,0.0,0.0,0.0,0.0,0.0,0.0,0.0,0.0,0.0,0.0,0.0,0.0,0.0,0.0,0.0,0.0,0.0,0.0,0.0,0.0,0.0,0.0,0.0,0.0,0.0,0.0,1.1625,0.0,0.0,0.0,0.0,0.0,0.0,0.0,0.0,0.0,0.0,0.0,0.0,0.0,0.0,0.0,0.0,0.0,0.0,0.0,0.0,0.0,0.0,0.0,0.0,0.0,0.0,0.0,0.0,0.0,0.0,0.0,0.0,0.0,0.0,0.0,0.0,0.0,0.0,0.0,0.0,0.0,0.0,0.0,0.0,0.0,0.0,0.0,0.0,0.0,0.0,0.0,0.0,0.0,0.0,0.0,0.0,0.0,0.0,0.0,0.0,0.0,0.0,0.0,0.0,0.0,0.0,0.0,0.0,0.0,0.0,0.0,0.0,0.0,0.0,0.0,0.0,0.0,0.0,0.0,0.0,0.0,0.0,0.0,0.0,0.0,0.0,0.0,0.0,0.0,0.0,0.0,0.0,0.0,0.0,0.0,0.0,0.0,0.0,0.0,0.0,0.0,0.0,0.0,0.0,0.0,0.0,0.0,0.0,0.0,0.0,1.1322,1.1978,1.1169,1.1091,1.2009,0.0,0.0,0.0,0.0,0.0,0.0,0.0,0.0,0.0,0.0,0.0,0.0,0.0,0.0,0.0,0.0,0.0,0.0,0.0,0.0,0.0,0.0,0.0,0.0,0.0,0.0,0.0,0.0,0.0,0.0,0.0,0.0,0.0,0.0,0.0,0.0,0.0,0.0,0.0,0.0,0.0,0.0,0.0,0.0,0.0,0.0,0.0,0.0,0.0,0.0,0.0,0.0,0.0,0.0,0.0,0.0,0.0,0.0,0.0,0.0,0.0,0.0,0.0,0.0,0.0,0.0,0.0,0.0,0.0,0.0,0.0,0.0,0.0,0.0,0.0,0.0,0.0,0.0,0.0,0.0,0.0,0.0,0.0,0.0,0.0,0.0,0.0,0.0,0.0,0.0,0.0,0.0,0.0,0.0,0.0,0.0,0.0,0.0,0.0,0.0,0.0,0.0,0.0,0.0,0.0,0.0,0.0,0.0,0.0,0.0,0.0,0.0,1.1978,1.2013,1.2973,0.0,0.0,0.0,0.0,0.0,0.0,0.0,0.0,0.0,0.0,0.0,0.0,0.0,0.0,0.0,0.0,0.0,0.0,0.0,0.0,0.0,0.0,0.0,0.0,0.0,0.0,0.0,0.0,0.0,0.0,0.0,0.0,0.0,0.0,0.0,0.0,0.0,0.0,0.0,0.0,0.0,0.0,0.0,0.0,0.0,0.0,0.0,0.0,0.0,0.0,0.0,0.0,0.0,0.0,0.0,0.0,0.0,0.0,0.0,0.0,0.0,0.0,0.0,0.0,0.0,0.0,0.0,0.0,0.0,0.0,0.0,0.0,0.0,0.0,0.0,0.0,0.0,0.0,0.0,0.0,0.0,0.0,0.0,0.0,0.0,0.0,0.0,0.0,0.0,0.0,0.0,0.0,0.0,0.0,0.0,0.0,0.0,0.0,0.0,0.0,0.0,0.0,0.0,0.0,0.0,0.0,0.0,0.0,0.0,0.0,1.2906,1.4497,1.4444,0.0,1.5382,0.0,0.0,0.0,0.0,0.0,0.0,0.0,0.0,0.0,0.0,0.0,0.0,0.0,0.0,0.0,0.0,0.0,0.0,0.0,0.0,0.0,0.0,0.0,0.0,0.0,0.0,0.0,0.0,0.0,0.0,0.0,0.0,0.0,0.0,0.0,0.0,0.0,0.0,0.0,0.0,0.0,0.0,0.0,0.0,0.0,0.0,0.0,0.0,0.0,0.0,0.0,0.0,0.0,0.0,0.0,0.0,0.0,0.0,0.0,0.0,0.0,0.0,0.0,0.0,0.0,0.0,0.0,0.0,0.0,0.0,0.0,0.0,0.0,0.0,0.0,0.0,0.0,0.0,0.0,0.0,0.0,0.0,0.0,0.0,0.0,0.0,0.0,0.0,0.0,0.0,0.0,0.0,0.0,0.0,0.0,0.0,0.0,0.0,0.0,0.0,0.0,0.0,0.0,0.0,0.0,0.0,0.0,0.0,0.0,0.0,1.342,1.4999,1.5032,1.4945,0.0,0.0,0.0,0.0,0.0,0.0,0.0,0.0,0.0,0.0,0.0,0.0,0.0,0.0,0.0,0.0,0.0,0.0,0.0,0.0,0.0,0.0,0.0,0.0,0.0,0.0,0.0,0.0,0.0,0.0,0.0,0.0,0.0,0.0,0.0,0.0,0.0,0.0,0.0,0.0,0.0,0.0,0.0,0.0,0.0,0.0,0.0,0.0,0.0,0.0,0.0,0.0,0.0,0.0,0.0,0.0,0.0,0.0,0.0,0.0,0.0,0.0,0.0,0.0,0.0,0.0,0.0,0.0,0.0,0.0,0.0,0.0,0.0,0.0,0.0,0.0,0.0,0.0,0.0,0.0,0.0,0.0,0.0,0.0,0.0,0.0,0.0,0.0,0.0,0.0,0.0,0.0,0.0,0.0,0.0,0.0,0.0,0.0,0.0,0.0,0.0,0.0,0.0,0.0,0.0,0.0,0.0,0.0,0.0,0.0,1.373,1.4357,1.5766,1.5134,1.4632,1.444,0.0,0.0,0.0,0.0,0.0,0.0,0.0,0.0,0.0,0.0,0.0,0.0,0.0,0.0,0.0,0.0,0.0,0.0,0.0,0.0,0.0,0.0,0.0,0.0,0.0,0.0,0.0,0.0,0.0,0.0,0.0,0.0,0.0,0.0,0.0,0.0,0.0,0.0,0.0,0.0,0.0,0.0,0.0,0.0,0.0,0.0,0.0,0.0,0.0,0.0,0.0,0.0,0.0,0.0,0.0,0.0,0.0,0.0,0.0,0.0,0.0,0.0,0.0,0.0,0.0,0.0,0.0,0.0,0.0,0.0,0.0,0.0,0.0,0.0,0.0,0.0,0.0,0.0,0.0,0.0,0.0,0.0,0.0,0.0,0.0,0.0,0.0,0.0,0.0,0.0,0.0,0.0,0.0,0.0,0.0,0.0,0.0,0.0,0.0,0.0,0.0,0.0,0.0,0.0,0.0,0.0,0.0,0.0,1.6928,1.578,1.592,1.7479,1.4969,1.4106,0.0,0.0,0.0,0.0,0.0,0.0,0.0,0.0,0.0,0.0,0.0,0.0,0.0,0.0,0.0,0.0,0.0,0.0,0.0,0.0,0.0,0.0,0.0,0.0,0.0,0.0,0.0,0.0,0.0,0.0,0.0,0.0,0.0,0.0,0.0,0.0,0.0,0.0,0.0,0.0,0.0,0.0,0.0,0.0,0.0,0.0,0.0,0.0,0.0,0.0,0.0,0.0,0.0,0.0,0.0,0.0,0.0,0.0,0.0,0.0,0.0,0.0,0.0,0.0,0.0,0.0,0.0,0.0,0.0,0.0,0.0,0.0,0.0,0.0,0.0,0.0,0.0,0.0,0.0,0.0,0.0,0.0,0.0,0.0,0.0,0.0,0.0,0.0,0.0,0.0,0.0,0.0,0.0,0.0,0.0,0.0,0.0,0.0,0.0,0.0,0.0,0.0,0.0,0.0,0.0,0.0,0.0,0.0,0.0,1.4788,1.5361,1.5654,1.568,1.5202,1.5203,0.0,0.0,0.0,0.0,0.0,0.0,0.0,0.0,0.0,0.0,0.0,0.0,0.0,0.0,0.0,0.0,0.0,0.0,0.0,0.0,0.0,0.0,0.0,0.0,0.0,0.0,0.0,0.0,0.0,0.0,0.0,0.0,0.0,0.0,0.0,0.0,0.0,0.0,0.0,0.0,0.0,0.0,0.0,0.0,0.0,0.0,0.0,0.0,0.0,0.0,0.0,0.0,0.0,0.0,0.0,0.0,0.0,0.0,0.0,0.0,0.0,0.0,0.0,0.0,0.0,0.0,0.0,0.0,0.0,0.0,0.0,0.0,0.0,0.0,0.0,0.0,0.0,0.0,0.0,0.0,0.0,0.0,0.0,0.0,0.0,0.0,0.0,0.0,0.0,0.0,0.0,0.0,0.0,0.0,0.0,0.0,0.0,0.0,0.0,0.0,0.0,0.0,0.0,0.0,0.0,0.0,0.0,0.0,0.0,1.4212,0.0,1.5677,1.4996,1.5384,1.5504,0.0,0.0,0.0,0.0,0.0,0.0,0.0,0.0,0.0,0.0,0.0,0.0,0.0,0.0,0.0,0.0,0.0,0.0,0.0,0.0,0.0,0.0,0.0,0.0,0.0,0.0,0.0,0.0,0.0,0.0,0.0,0.0,0.0,0.0,0.0,0.0,0.0,0.0,0.0,0.0,0.0,0.0,0.0,0.0,0.0,0.0,0.0,0.0,0.0,0.0,0.0,0.0,0.0,0.0,0.0,0.0,0.0,0.0,0.0,0.0,0.0,0.0,0.0,0.0,0.0,0.0,0.0,0.0,0.0,0.0,0.0,0.0,0.0,0.0,0.0,0.0,0.0,0.0,0.0,0.0,0.0,0.0,0.0,0.0,0.0,0.0,0.0,0.0,0.0,0.0,0.0,0.0,0.0,0.0,0.0,0.0,0.0,0.0,0.0,0.0,0.0,0.0,0.0,0.0,0.0,0.0,0.0,0.0,1.4195,1.5763,1.6011,1.6011,1.5902,1.5377,1.4943,0.0,0.0,0.0,0.0,0.0,0.0,0.0,0.0,0.0,0.0,0.0,0.0,0.0,0.0,0.0,0.0,0.0,0.0,0.0,0.0,0.0,0.0,0.0,0.0,0.0,0.0,0.0,0.0,0.0,0.0,0.0,0.0,0.0,0.0,0.0,0.0,0.0,0.0,0.0,0.0,0.0,0.0,0.0,0.0,0.0,0.0,0.0,0.0,0.0,0.0,0.0,0.0,0.0,0.0,0.0,0.0,0.0,0.0,0.0,0.0,0.0,0.0,0.0,0.0,0.0,0.0,0.0,0.0,0.0,0.0,0.0,0.0,0.0,0.0,0.0,0.0,0.0,0.0,0.0,0.0,0.0,0.0,0.0,0.0,0.0,0.0,0.0,0.0,0.0,0.0,0.0,0.0,0.0,0.0,0.0,0.0,0.0,0.0,0.0,0.0,0.0,0.0,0.0,0.0,0.0,0.0,0.0,0.0,0.0,1.4178,1.4409,1.5275,1.6673,1.5114,1.538,0.0,0.0,0.0,0.0,0.0,0.0,0.0,0.0,0.0,0.0,0.0,0.0,0.0,0.0,0.0,0.0,0.0,0.0,0.0,0.0,0.0,0.0,0.0,0.0,0.0,0.0,0.0,0.0,0.0,0.0,0.0,0.0,0.0,0.0,0.0,0.0,0.0,0.0,0.0,0.0,0.0,0.0,0.0,0.0,0.0,0.0,0.0,0.0,0.0,0.0,0.0,0.0,0.0,0.0,0.0,0.0,0.0,0.0,0.0,0.0,0.0,0.0,0.0,0.0,0.0,0.0,0.0,0.0,0.0,0.0,0.0,0.0,0.0,0.0,0.0,0.0,0.0,0.0,0.0,0.0,0.0,0.0,0.0,0.0,0.0,0.0,0.0,0.0,0.0,0.0,0.0,0.0,0.0,0.0,0.0,0.0,0.0,0.0,0.0,0.0,0.0,0.0,0.0,0.0,0.0,0.0,0.0,0.0,0.0,1.4278,1.4533,1.5237,1.6343,1.5834,1.6343,1.7965,0.0,0.0,0.0,0.0,0.0,0.0,0.0,0.0,0.0,0.0,0.0,0.0,0.0,0.0,0.0,0.0,0.0,0.0,0.0,0.0,0.0,0.0,0.0,0.0,0.0,0.0,0.0,0.0,0.0,0.0,0.0,0.0,0.0,0.0,0.0,0.0,0.0,0.0,0.0,0.0,0.0,0.0,0.0,0.0,0.0,0.0,0.0,0.0,0.0,0.0,0.0,0.0,0.0,0.0,0.0,0.0,0.0,0.0,0.0,0.0,0.0,0.0,0.0,0.0,0.0,0.0,0.0,0.0,0.0,0.0,0.0,0.0,0.0,0.0,0.0,0.0,0.0,0.0,0.0,0.0,0.0,0.0,0.0,0.0,0.0,0.0,0.0,0.0,0.0,0.0,0.0,0.0,0.0,0.0,0.0,0.0,0.0,0.0,0.0,0.0,0.0,0.0,0.0,0.0,0.0,0.0,0.0,0.0,1.5663,1.6147,1.6098,1.5448,1.7361,1.7739,0.0,0.0,0.0,0.0,0.0,0.0,0.0,0.0,0.0,0.0,0.0,0.0,0.0,0.0,0.0,0.0,0.0,0.0,0.0,0.0,0.0,0.0,0.0,0.0,0.0,0.0,0.0,0.0,0.0,0.0,0.0,0.0,0.0,0.0,0.0,0.0,0.0,0.0,0.0,0.0,0.0,0.0,0.0,0.0,0.0,0.0,0.0,0.0,0.0,0.0,0.0,0.0,0.0,0.0,0.0,0.0,0.0,0.0,0.0,0.0,0.0,0.0,0.0,0.0,0.0,0.0,0.0,0.0,0.0,0.0,0.0,0.0,0.0,0.0,0.0,0.0,0.0,0.0,0.0,0.0,0.0,0.0,0.0,0.0,0.0,0.0,0.0,0.0,0.0,0.0,0.0,0.0,0.0,0.0,0.0,0.0,0.0,0.0,0.0,0.0,0.0,0.0,0.0,0.0,0.0,0.0,0.0,0.0,0.0,1.6512,1.8109,1.9018,1.9034,1.8464,1.875,0.0,0.0,0.0,0.0,0.0,0.0,0.0,0.0,0.0,0.0,0.0,0.0,0.0,0.0,0.0,0.0,0.0,0.0,0.0,0.0,0.0,0.0,0.0,0.0,0.0,0.0,0.0,0.0,0.0,0.0,0.0,0.0,0.0,0.0,0.0,0.0,0.0,0.0,0.0,0.0,0.0,0.0,0.0,0.0,0.0,0.0,0.0,0.0,0.0,0.0,0.0,0.0,0.0,0.0,0.0,0.0,0.0,0.0,0.0,0.0,0.0,0.0,0.0,0.0,0.0,0.0,0.0,0.0,0.0,0.0,0.0,0.0,0.0,0.0,0.0,0.0,0.0,0.0,0.0,0.0,0.0,0.0,0.0,0.0,0.0,0.0,0.0,0.0,0.0,0.0,0.0,0.0,0.0,0.0,0.0,0.0,0.0,0.0,0.0,0.0,0.0,0.0,0.0,0.0,0.0,0.0,0.0,0.0,1.7912,1.7202,1.9672,2.1053,2.1241,2.032,2.0028,0.0,0.0,0.0,0.0,0.0,0.0,0.0,0.0,0.0,0.0,0.0,0.0,0.0,0.0,0.0,0.0,0.0,0.0,0.0,0.0,0.0,0.0,0.0,0.0,0.0,0.0,0.0,0.0,0.0,0.0,0.0,0.0,0.0,0.0,0.0,0.0,0.0,0.0,0.0,0.0,0.0,0.0,0.0,0.0,0.0,0.0,0.0,0.0,0.0,0.0,0.0,0.0,0.0,0.0,0.0,0.0,0.0,0.0,0.0,0.0,0.0,0.0,0.0,0.0,0.0,0.0,0.0,0.0,0.0,0.0,0.0,0.0,0.0,0.0,0.0,0.0,0.0,0.0,0.0,0.0,0.0,0.0,0.0,0.0,0.0,0.0,0.0,0.0,0.0,0.0,0.0,0.0,0.0,0.0,0.0,0.0,0.0,0.0,0.0,0.0,0.0,0.0,0.0,0.0,0.0,0.0,0.0,0.0,1.8589,1.7957,2.0805,2.231,2.231,2.2226,2.1332,0.0,0.0,0.0,0.0,0.0,0.0,0.0,0.0,0.0,0.0,0.0,0.0,0.0,0.0,0.0,0.0,0.0,0.0,0.0,0.0,0.0,0.0,0.0,0.0,0.0,0.0,0.0,0.0,0.0,0.0,0.0,0.0,0.0,0.0,0.0,0.0,0.0,0.0,0.0,0.0,0.0,0.0,0.0,0.0,0.0,0.0,0.0,0.0,0.0,0.0,0.0,0.0,0.0,0.0,0.0,0.0,0.0,0.0,0.0,0.0,0.0,0.0,0.0,0.0,0.0,0.0,0.0,0.0,0.0,0.0,0.0,0.0,0.0,0.0,0.0,0.0,0.0,0.0,0.0,0.0,0.0,0.0,0.0,0.0,0.0,0.0,0.0,0.0,0.0,0.0,0.0,0.0,0.0,0.0,0.0,0.0,0.0,0.0,0.0,0.0,0.0,0.0,0.0,0.0,0.0,0.0,0.0,0.0,1.8826,1.8724,2.1059,2.2327,2.2327,2.1735,2.1508,0.0,0.0,0.0,0.0,0.0,0.0,0.0,0.0,0.0,0.0,0.0,0.0,0.0,0.0,0.0,0.0,0.0,0.0,0.0,0.0,0.0,0.0,0.0,0.0,0.0,0.0,0.0,0.0,0.0,0.0,0.0,0.0,0.0,0.0,0.0,0.0,0.0,0.0,0.0,0.0,0.0,0.0,0.0,0.0,0.0,0.0,0.0,0.0,1.5439,0.0,0.0,0.0,0.0,0.0,0.0,0.0,0.0,0.0,0.0,0.0,0.0,0.0,0.0,0.0,0.0,0.0,0.0,0.0,0.0,0.0,0.0,0.0,0.0,0.0,0.0,0.0,0.0,0.0,0.0,0.0,0.0,0.0,0.0,0.0,0.0,0.0,0.0,0.0,0.0,0.0,0.0,0.0,0.0,0.0,0.0,0.0,0.0,0.0,0.0,0.0,0.0,0.0,0.0,0.0,0.0,0.0,0.0,0.0,1.908,1.9469,2.1312,2.2327,2.2293,2.1583,2.1559,0.0,0.0,0.0,0.0,0.0,0.0,0.0,0.0,0.0,0.0,0.0,0.0,0.0,0.0,0.0,0.0,0.0,0.0,0.0,0.0,0.0,0.0,0.0,0.0,0.0,0.0,0.0,0.0,0.0,0.0,0.0,0.0,0.0,0.0,0.0,0.0,0.0,0.0,0.0,0.0,0.0,0.0,0.0,0.0,0.0,0.0,0.0,0.0,0.0,0.0,0.0,0.0,0.0,0.0,0.0,0.0,0.0,0.0,0.0,0.0,0.0,0.0,0.0,0.0,0.0,0.0,0.0,0.0,0.0,0.0,0.0,0.0,0.0,0.0,0.0,0.0,0.0,0.0,0.0,0.0,0.0,0.0,0.0,0.0,0.0,0.0,0.0,0.0,0.0,0.0,0.0,0.0,0.0,0.0,0.0,0.0,0.0,0.0,0.0,0.0,0.0,0.0,0.0,0.0,0.0,0.0,0.0,1.8593,1.9318,2.0356,2.1651,2.2327,2.2265,2.1583,2.1549,2.2276,0.0,0.0,0.0,0.0,0.0,0.0,0.0,0.0,0.0,0.0,0.0,0.0,0.0,0.0,0.0,0.0,0.0,0.0,0.0,0.0,0.0,0.0,0.0,0.0,0.0,0.0,0.0,0.0,0.0,0.0,0.0,0.0,0.0,0.0,0.0,0.0,0.0,0.0,1.318,1.4308,0.0,0.0,0.0,0.0,0.0,0.0,0.0,0.0,1.5728,0.0,0.0,0.0,0.0,0.0,0.0,0.0,0.0,0.0,0.0,0.0,0.0,0.0,0.0,0.0,0.0,0.0,0.0,0.0,0.0,0.0,0.0,0.0,0.0,0.0,0.0,0.0,0.0,0.0,0.0,0.0,0.0,0.0,0.0,0.0,0.0,0.0,0.0,0.0,0.0,0.0,0.0,0.0,0.0,0.0,0.0,0.0,0.0,0.0,0.0,0.0,0.0,0.0,0.0,0.0,0.0,1.9596,1.8876,1.962,2.1843,2.2175,2.2327,2.2293,2.1583,2.1532,2.2243,0.0,0.0,0.0,0.0,0.0,0.0,0.0,0.0,0.0,0.0,0.0,0.0,0.0,0.0,0.0,0.0,0.0,0.0,0.0,0.0,0.0,0.0,0.0,0.0,0.0,0.0,0.0,0.0,0.0,0.0,0.0,0.0,0.0,0.0,0.0,0.0,0.0,0.0,0.0,1.5836,1.6564,0.0,0.0,0.0,0.0,0.0,0.0,0.0,0.0,1.8219,0.0,0.0,0.0,0.0,0.0,0.0,0.0,0.0,0.0,0.0,0.0,0.0,0.0,0.0,0.0,0.0,0.0,0.0,0.0,0.0,0.0,0.0,0.0,0.0,0.0,0.0,0.0,0.0,0.0,0.0,0.0,0.0,0.0,0.0,0.0,0.0,0.0,0.0,0.0,0.0,0.0,0.0,0.0,0.0,0.0,0.0,0.0,0.0,0.0,0.0,0.0,0.0,0.0,0.0,0.0,1.9841,1.9479,2.0243,2.2215,2.2327,2.2327,2.2293,2.1583,2.1549,0.0,0.0,0.0,0.0,0.0,0.0,0.0,0.0,0.0,0.0,0.0,0.0,0.0,0.0,0.0,0.0,0.0,0.0,0.0,0.0,0.0,0.0,0.0,0.0,0.0,0.0,0.0,0.0,0.0,0.0,0.0,0.0,0.0,0.0,0.0,0.0,0.0,0.0,0.0,0.0,1.5494,1.6022,1.6704,0.0,0.0,0.0,0.0,0.0,0.0,1.8491,1.8861,0.0,0.0,0.0,0.0,0.0,0.0,0.0,0.0,0.0,0.0,0.0,0.0,0.0,0.0,0.0,0.0,0.0,0.0,0.0,0.0,0.0,0.0,0.0,0.0,0.0,0.0,0.0,0.0,0.0,0.0,0.0,0.0,0.0,0.0,0.0,0.0,0.0,0.0,0.0,0.0,0.0,0.0,0.0,0.0,0.0,0.0,0.0,0.0,0.0,0.0,0.0,0.0,0.0,0.0,0.0,1.9858,2.0043,2.0844,2.2215,2.2327,2.2327,2.2293,2.1414,2.1363,0.0,0.0,0.0,0.0,0.0,0.0,0.0,0.0,0.0,0.0,0.0,0.0,0.0,0.0,0.0,0.0,0.0,0.0,0.0,0.0,0.0,0.0,0.0,0.0,0.0,0.0,0.0,0.0,0.0,0.0,0.0,0.0,0.0,0.0,0.0,0.0,0.0,0.0,0.0,0.0,0.0,1.5775,1.7059,1.748,0.0,0.0,0.0,0.0,1.837,1.8977,0.0,0.0,0.0,0.0,0.0,0.0,0.0,0.0,0.0,0.0,0.0,0.0,0.0,0.0,0.0,0.0,0.0,0.0,0.0,0.0,0.0,0.0,0.0,0.0,0.0,0.0,0.0,0.0,0.0,0.0,0.0,0.0,0.0,0.0,0.0,0.0,0.0,0.0,0.0,0.0,0.0,0.0,0.0,0.0,0.0,0.0,0.0,0.0,0.0,0.0,0.0,0.0,0.0,0.0,0.0,0.0,1.9578,2.0207,2.1094,2.2231,2.2327,2.2327,2.2293,2.088,2.0812,0.0,0.0,0.0,0.0,0.0,0.0,0.0,0.0,0.0,0.0,0.0,0.0,0.0,0.0,0.0,0.0,0.0,0.0,0.0,0.0,0.0,0.0,0.0,0.0,0.0,0.0,0.0,0.0,0.0,0.0,0.0,0.0,0.0,0.0,0.0,0.0,0.0,0.0,0.0,0.0,0.0,1.7525,1.899,1.8893,1.8852,0.0,0.0,2.0278,2.0294,2.0661,0.0,0.0,0.0,0.0,0.0,0.0,0.0,0.0,0.0,0.0,0.0,0.0,0.0,0.0,0.0,0.0,0.0,0.0,0.0,0.0,0.0,0.0,0.0,0.0,0.0,0.0,0.0,0.0,0.0,0.0,0.0,0.0,0.0,0.0,0.0,0.0,0.0,0.0,0.0,0.0,0.0,0.0,0.0,0.0,0.0,0.0,0.0,0.0,0.0,0.0,0.0,0.0,0.0,0.0,0.0,2.0218,2.0458,2.1206,2.1787,2.2282,2.2327,2.2327,2.231,2.1245,2.1194,0.0,0.0,0.0,0.0,0.0,0.0,0.0,0.0,0.0,0.0,0.0,0.0,0.0,0.0,0.0,0.0,0.0,0.0,0.0,0.0,0.0,0.0,0.0,0.0,0.0,0.0,0.0,0.0,0.0,0.0,0.0,0.0,0.0,0.0,0.0,0.0,0.0,0.0,0.0,0.0,0.0,0.0,1.9065,1.9577,0.0,0.0,0.0,2.0787,2.0341,0.0,0.0,0.0,0.0,0.0,0.0,0.0,0.0,0.0,0.0,0.0,0.0,0.0,0.0,0.0,0.0,0.0,0.0,0.0,0.0,0.0,0.0,0.0,0.0,0.0,0.0,0.0,0.0,0.0,0.0,0.0,0.0,0.0,0.0,0.0,0.0,0.0,0.0,0.0,0.0,0.0,0.0,0.0,0.0,0.0,0.0,0.0,0.0,0.0,0.0,0.0,0.0,0.0,0.0,0.0,0.0,0.0,2.1069,2.1866,2.2327,2.2327,2.2327,2.2327,2.231,2.1583,0.0,0.0,0.0,0.0,0.0,0.0,0.0,0.0,0.0,0.0,0.0,0.0,0.0,0.0,0.0,0.0,0.0,0.0,0.0,0.0,0.0,0.0,0.0,0.0,0.0,0.0,0.0,1.7101,0.0,0.0,0.0,0.0,0.0,0.0,0.0,0.0,0.0,0.0,0.0,0.0,0.0,0.0,1.8371,1.9285,2.0185,2.0805,0.0,0.0,2.1262,2.066,2.145,2.195,0.0,0.0,0.0,0.0,0.0,0.0,0.0,0.0,0.0,0.0,0.0,0.0,0.0,0.0,0.0,0.0,0.0,0.0,0.0,0.0,0.0,0.0,0.0,0.0,0.0,0.0,0.0,0.0,0.0,0.0,0.0,0.0,0.0,0.0,0.0,0.0,0.0,0.0,0.0,0.0,0.0,0.0,0.0,0.0,0.0,0.0,0.0,0.0,0.0,0.0,0.0,0.0,0.0,0.0,0.0,2.0721,2.1737,2.2327,2.2327,2.2327,2.2327,2.2293,2.161,2.1549,0.0,0.0,0.0,0.0,0.0,0.0,0.0,0.0,0.0,0.0,0.0,0.0,0.0,0.0,0.0,0.0,0.0,0.0,0.0,0.0,0.0,0.0,0.0,0.0,0.0,0.0,0.0,0.0,0.0,0.0,0.0,0.0,0.0,0.0,0.0,0.0,0.0,0.0,0.0,0.0,0.0,2.0003,2.043,2.1085,2.1681,0.0,0.0,2.2226,2.2158,2.1845,2.1642,2.1592,0.0,0.0,0.0,0.0,0.0,0.0,0.0,0.0,0.0,0.0,0.0,0.0,0.0,0.0,0.0,0.0,0.0,0.0,0.0,0.0,0.0,0.0,0.0,0.0,0.0,0.0,0.0,0.0,0.0,0.0,0.0,0.0,0.0,0.0,0.0,0.0,0.0,0.0,0.0,0.0,0.0,0.0,0.0,0.0,0.0,0.0,0.0,0.0,0.0,0.0,0.0,0.0,0.0,2.1795,2.1642,2.2057,2.2327,2.2327,2.2327,2.2327,2.2327,2.2023,2.2006,0.0,0.0,0.0,0.0,0.0,0.0,0.0,0.0,0.0,0.0,0.0,0.0,0.0,0.0,0.0,0.0,0.0,0.0,0.0,0.0,0.0,0.0,0.0,0.0,0.0,0.0,0.0,0.0,1.9418,1.9908,2.0653,0.0,0.0,0.0,0.0,0.0,0.0,0.0,0.0,0.0,0.0,2.059,2.1134,2.167,0.0,0.0,2.2106,2.2327,2.2327,2.218,2.2032,2.2032,2.1675,0.0,0.0,0.0,0.0,0.0,0.0,0.0,0.0,0.0,0.0,0.0,0.0,0.0,0.0,0.0,0.0,0.0,0.0,0.0,0.0,0.0,0.0,0.0,0.0,0.0,0.0,0.0,0.0,0.0,0.0,0.0,0.0,0.0,0.0,0.0,0.0,0.0,0.0,0.0,0.0,0.0,0.0,0.0,0.0,0.0,0.0,0.0,0.0,0.0,0.0,0.0,0.0,2.1957,2.2299,2.2327,2.2327,2.2327,2.2327,2.2327,2.2327,2.2327,2.2327,0.0,0.0,0.0,0.0,0.0,0.0,0.0,0.0,0.0,0.0,0.0,0.0,0.0,0.0,0.0,0.0,0.0,0.0,0.0,0.0,0.0,0.0,0.0,0.0,0.0,0.0,0.0,0.0,1.9731,2.039,2.1414,0.0,0.0,0.0,0.0,0.0,0.0,0.0,0.0,0.0,0.0,2.1242,2.1546,2.2003,2.2236,2.1969,2.2137,2.2378,2.2615,2.2315,2.2152,2.2282,0.0,0.0,0.0,0.0,0.0,0.0,0.0,0.0,0.0,0.0,0.0,0.0,0.0,0.0,0.0,0.0,0.0,0.0,0.0,0.0,0.0,0.0,0.0,0.0,0.0,0.0,0.0,0.0,0.0,0.0,2.0035,0.0,0.0,0.0,0.0,0.0,0.0,0.0,0.0,0.0,0.0,0.0,0.0,0.0,0.0,0.0,0.0,0.0,0.0,0.0,0.0,0.0,0.0,2.2282,2.2327,2.2327,2.2327,2.2327,2.2327,2.2327,2.2327,2.2327,2.2327,2.2327,0.0,0.0,0.0,0.0,0.0,0.0,0.0,0.0,0.0,0.0,0.0,0.0,0.0,0.0,0.0,0.0,0.0,0.0,0.0,0.0,0.0,0.0,0.0,0.0,0.0,0.0,1.8042,1.9157,2.061,0.0,0.0,0.0,0.0,0.0,0.0,0.0,0.0,0.0,0.0,2.1986,2.2089,2.1658,2.2003,2.2341,2.258,2.2438,2.2519,2.3194,2.2378,2.1764,0.0,0.0,0.0,0.0,0.0,0.0,0.0,0.0,0.0,0.0,0.0,0.0,0.0,0.0,0.0,0.0,0.0,0.0,0.0,0.0,0.0,0.0,0.0,0.0,0.0,0.0,0.0,2.1075,2.1481,0.0,0.0,0.0,0.0,0.0,0.0,0.0,0.0,0.0,0.0,0.0,2.2327,2.2327,0.0,0.0,0.0,0.0,0.0,0.0,0.0,0.0,0.0,0.0,0.0,0.0,2.2327,2.2327,2.2327,2.2327,2.2327,2.2327,2.2327,2.2327,2.2327,2.2327,2.2327,0.0,0.0,0.0,0.0,0.0,0.0,0.0,0.0,0.0,0.0,0.0,0.0,0.0,0.0,0.0,0.0,0.0,0.0,0.0,0.0,0.0,0.0,0.0,0.0,0.0,1.9631,0.0,0.0,0.0,0.0,0.0,0.0,0.0,0.0,0.0,0.0,0.0,2.1337,2.1229,2.1568,2.1658,2.1244,2.1323,2.1373,0.0,0.0,0.0,0.0,0.0,0.0,0.0,0.0,0.0,0.0,0.0,0.0,0.0,0.0,2.2127,2.1516,2.1491,2.146,2.1071,0.0,0.0,0.0,0.0,0.0,0.0,0.0,0.0,0.0,0.0,0.0,0.0,0.0,0.0,2.1854,0.0,2.1786,0.0,0.0,0.0,0.0,0.0,0.0,0.0,0.0,2.2581,2.2682,2.2682,2.2682,2.2682,0.0,2.2429,2.2327,0.0,0.0,0.0,0.0,0.0,0.0,0.0,0.0,2.2327,2.2327,2.2327,2.2327,2.2327,2.2327,2.2327,2.2327,2.2327,2.2327,2.2327,2.2327,2.2327,0.0,0.0,0.0,0.0,0.0,0.0,0.0,0.0,0.0,0.0,0.0,0.0,0.0,0.0,0.0,0.0,0.0,0.0,0.0,0.0,0.0,0.0,0.0,2.0407,0.0,0.0,0.0,0.0,0.0,0.0,0.0,0.0,0.0,2.1214,2.1399,2.1491,2.1244,2.143,2.1477,2.1071,0.0,0.0,0.0,0.0,0.0,0.0,0.0,2.2504,2.2351,2.2223,2.2429,2.3417,2.367,2.3976,2.4562,0.0,0.0,2.2425,2.2165,2.2005,2.1743,2.1676,2.1676,2.1676,2.1144,2.0679,0.0,0.0,0.0,0.0,0.0,0.0,0.0,0.0,2.2128,2.2316,0.0,2.2282,0.0,0.0,0.0,0.0,0.0,2.2299,0.0,0.0,2.311,2.3431,2.3448,2.3452,2.3418,2.3367,2.2697,2.2389,2.2355,2.235,0.0,0.0,0.0,0.0,0.0,0.0,2.2327,2.2327,2.2327,2.2327,2.2327,2.2327,2.2327,2.2327,2.2327,2.2327,2.2327,2.2327,2.2327,2.2327,2.2327,0.0,0.0,0.0,0.0,0.0,0.0,0.0,0.0,0.0,0.0,0.0,0.0,0.0,0.0,0.0,0.0,0.0,0.0,0.0,0.0,2.0052,0.0,0.0,0.0,0.0,0.0,0.0,0.0,0.0,0.0,0.0,2.2209,2.1869,2.1598,2.1631,0.0,0.0,0.0,0.0,2.1486,2.2777,2.246,2.2508,2.3745,2.3426,2.2976,2.2988,0.0,0.0,2.3288,2.3732,2.4252,2.487,2.4155,2.3467,2.3744,2.3342,2.2972,2.2968,2.2905,2.2941,2.2988,2.2446,2.2147,2.257,0.0,0.0,0.0,0.0,2.2054,2.2459,2.3062,2.2679,2.2712,2.3025,2.2174,0.0,0.0,0.0,0.0,0.0,0.0,2.2772,2.3127,2.3932,2.4331,2.4364,2.4408,2.4233,2.3732,2.3555,2.3388,2.3288,2.2791,2.2445,2.2327,0.0,0.0,0.0,0.0,2.2327,2.2327,2.2327,2.2327,2.2327,2.2327,2.2327,2.2327,2.2327,2.2327,2.2327,2.2327,2.2327,2.2327,2.2327,0.0,0.0,0.0,0.0,0.0,0.0,0.0,0.0,0.0,0.0,0.0,0.0,0.0,0.0,0.0,0.0,0.0,0.0,0.0,2.0906,2.1329,2.2023,0.0,0.0,0.0,0.0,0.0,0.0,0.0,0.0,0.0,2.1794,2.1688,2.181,0.0,0.0,2.0955,2.168,2.1557,2.135,2.1391,2.2164,0.0,2.2424,2.2717,2.2933,2.2815,2.3738,2.4611,2.474,2.5299,2.5858,2.6408,2.5679,2.5102,2.541,2.4304,2.3367,2.3366,2.2917,2.272,2.3056,2.2508,2.1979,2.3592,2.202,2.2109,2.2445,2.2917,2.3063,2.3446,2.3927,2.3632,2.3714,2.3934,2.2948,2.2491,2.2491,2.2257,0.0,0.0,0.0,2.3715,2.4033,2.485,2.5222,2.5201,2.5297,2.5108,2.475,2.4442,2.4393,2.4541,2.3785,2.3487,2.3549,0.0,0.0,2.2327,2.2327,2.2327,2.2327,2.2327,2.2327,2.2327,2.2327,2.2327,2.2327,2.2327,2.2327,2.2327,2.2327,2.2327,2.2327,2.2682,2.3038,0.0,0.0,0.0,0.0,0.0,0.0,0.0,0.0,0.0,0.0,0.0,2.1688,0.0,0.0,0.0,0.0,2.204,2.2243,2.2073,2.2462,0.0,0.0,0.0,0.0,0.0,0.0,0.0,2.2498,2.2276,2.2021,2.1779,2.181,2.1937,2.2132,2.1295,2.107,2.2039,0.0,2.1629,2.1682,2.2432,2.2825,2.252,2.2897,2.3194,2.3092,2.4381,2.5329,2.5146,2.5635,2.6182,2.6377,2.6032,2.5768,2.6382,2.5422,2.4422,2.4043,2.3371,2.2985,2.3336,2.2903,2.2525,2.5044,2.397,2.4045,2.4206,2.441,2.4804,2.4811,2.4647,2.4954,2.5092,2.5084,2.442,2.4049,2.3948,2.3948,0.0,2.4071,2.4713,2.5013,2.5084,2.5853,2.617,2.6122,2.6145,2.6088,2.6009,2.5368,2.5313,2.5766,2.5098,2.5038,2.5563,2.351,2.2416,2.2423,2.2394,2.2423,2.2423,2.2372,2.2304,2.2327,2.2327,2.2327,2.2327,2.2327,2.2327,2.2327,2.2327,2.2327,2.2344,2.3241,2.3697,2.3469,0.0,0.0,0.0,0.0,0.0,0.0,0.0,0.0,0.0,0.0,0.0,0.0,0.0,0.0,0.0,2.2395,0.0,2.341,2.3431,0.0,0.0,0.0,2.4305,2.3984,2.3852,2.3539,2.2981,0.0,0.0,2.2081,2.2143,2.2062,2.146,2.1373,2.1589,2.2337,2.2117,2.2218,2.3149,2.3061,2.3062,2.3498,2.3603,2.3576,2.3565,2.4672,2.5241,2.4881,2.5181,2.557,2.5871,2.5734,2.5899,2.6542,2.6576,2.6213,2.5001,2.4238,2.3774,2.3953,2.3849,2.3759,2.7016,2.7064,2.5934,2.5423,2.5304,2.5379,2.6184,2.7381,2.6856,2.6891,2.7178,2.6162,2.5259,2.4425,2.4425,2.464,2.5009,2.5703,2.6213,2.6572,2.742,2.7565,2.7114,2.7194,2.6942,2.6471,2.6243,2.6213,2.624,2.5524,2.5424,2.577,2.4289,2.345,2.3389,2.3356,2.3372,2.3372,2.2826,2.2465,2.2299,2.2327,2.2327,2.2327,2.2327,2.2327,2.2327,2.2327,2.2327,2.2344,2.3257,2.3762,2.3636,2.4015,0.0,0.0,0.0,0.0,0.0,0.0,0.0,0.0,0.0,2.3034,2.3139,0.0,2.2547,0.0,2.3139,2.3444,2.4154,2.3861,0.0,0.0,2.4494,2.4447,2.5832,2.4975,2.4404,2.4592,2.3715,2.302,2.2889,2.2294,2.1973,2.2299,2.1937,2.2103,2.348,2.3342,2.3235,2.3822,2.3935,2.4056,2.4112,2.3879,2.3595,2.3595,2.4313,2.4956,2.5315,2.548,2.5929,2.6826,2.6677,2.6662,2.7171,2.6995,2.6527,2.6153,2.5585,2.53,2.5749,2.5465,2.5121,2.7806,2.8001,2.6917,2.6511,2.6669,2.6791,2.7417,2.8286,2.7861,2.785,2.8041,2.6731,2.5662,2.4826,2.5085,2.5552,2.6251,2.6942,2.7573,2.8182,2.869,2.8743,2.8408,2.8447,2.8278,2.7919,2.7634,2.7622,2.7705,2.6747,2.6502,2.6993,2.5918,2.5226,2.4856,2.389,2.34,2.3416,2.3211,2.3171,2.3262,2.3033,2.2926,2.2942,2.2727,2.2602,2.2602,2.282,2.2926,2.2942,2.376,2.4248,2.4181,2.4476,2.4466,0.0,0.0,0.0,0.0,0.0,0.0,0.0,0.0,0.0,0.0,0.0,2.3782,2.4171,2.4019,2.4218,2.4915,2.4709,2.4929,2.5982,2.5279,2.5071,2.5917,2.5097,2.458,2.4944,2.3988,2.3328,2.335,2.2873,2.2667,2.3026,2.2772,2.2965,2.3975,2.4014,2.3951,2.4241,2.4342,2.4323,2.4074,2.3809,2.3595,2.3655,2.4178,2.4672,2.4732,2.4971,2.5345,2.5704,2.5749,2.5929,2.6542,2.6692,2.6662,2.6901,2.6737,2.6422,2.6183,2.5869,2.56,2.8124,2.798,2.7332,2.74,2.7912,2.811,2.8267,2.8383,2.8383,2.8397,2.8296,2.6965,2.6051,2.5404,2.5966,2.6662,2.7384,2.8011,2.8739,2.9535,2.959,2.9545,2.9594,2.9594,2.9594,2.9564,2.8996,2.9009,2.9477,2.8273,2.7922,2.8281,2.7632,2.6992,2.6363,2.4264,2.3164,2.3063,2.3576,2.4067,2.4406,2.3968,2.3718,2.3718,2.3256,2.2992,2.3028,2.34,2.362,2.3637,2.431,2.4669,2.4596,2.4933,2.4844,0.0,2.5869,0.0,0.0,0.0,0.0,0.0,0.0,0.0,0.0,2.5304,2.5542,2.5526,2.5169,2.522,2.5964,2.5933,2.6084,2.6758,2.6385,2.5891,2.5493,2.506,2.4801,2.5012,2.4403,2.3995,2.4313,2.4053,2.3864,2.401,2.3923,2.4081,2.4528,2.4457,2.4292,2.4539,2.4647,2.4625,2.3993,2.3759,2.3729,2.3699,2.4044,2.4313,2.3909,2.4178,2.4373,2.4133,2.4552,2.5016,2.5525,2.6228,2.6871,2.7325,2.738,2.7141,2.6288,2.6004,2.5869,2.9101,2.8966,2.7756,2.7327,2.7447,2.7709,2.8216,2.8844,2.8844,2.8844,2.8844,2.8533,2.8098,2.7487,2.7583,2.7685,2.788,2.8005,2.8528,2.9392,2.9334,2.943,2.9609,2.9594,2.9594,2.9579,2.9445,2.9439,2.9584,2.9343,2.8988,2.8546,2.7849,2.721,2.6525,0.0,0.0,0.0,2.4268,2.4548,2.4023,2.3903,2.3882,2.3866,2.3315,0.0,2.2992,2.3083,2.3135,2.317,2.3886,0.0,0.0,0.0,0.0,0.0,0.0,0.0,0.0,0.0,0.0,0.0,2.7964,2.7858,2.7249,2.7249,2.7299,2.7299,2.7215,2.752,2.8247,2.7525,2.7192,2.7707,2.6935,2.645,2.6745,2.6687,2.67,2.6717,2.6215,2.6318,2.7237,2.6311,2.5425,2.5678,2.5516,2.5485,2.5901,2.4719,2.4346,2.5507,2.5811,2.5553,2.4597,2.4433,2.4223,2.3804,2.367,2.3969,2.4298,2.4029,2.4283,2.4926,2.5345,2.5435,2.5615,2.6557,2.72,2.6871,2.7215,2.755,2.7295,2.7186,2.72,2.8949,0.0,2.8126,2.7682,0.0,2.7557,2.7936,2.8541,2.8423,2.8103,2.7749,2.804,2.8,2.767,2.7657,2.8066,2.8637,2.8123,2.8712,3.0165,2.9937,3.0061,3.0552,3.0552,3.0537,3.0537,3.0193,3.0043,3.0013,2.94,2.8921,2.8592,2.7919,2.746,2.7051,2.6093,2.5198,2.4354,2.4608,2.4831,2.5012,2.4445,2.4139,2.4139,0.0,0.0,0.0,0.0,0.0,0.0,0.0,0.0,0.0,0.0,0.0,2.5076,2.5909,2.6567,2.6859,2.8019,2.8589,2.8232,2.8829,2.8959,2.8448,2.8383,2.8399,2.8399,2.8149,2.8226,2.8887,2.7938,2.7476,2.7977,2.71,2.651,2.6729,2.6554,2.6417,2.6389,2.6193,2.635,2.7055,2.6321,2.574,2.5986,2.5817,2.5723,2.5864,2.5119,2.4875,2.5665,2.5901,2.5788,2.5242,2.5121,2.4881,2.4298,2.4103,2.4238,2.4522,2.4358,2.4448,2.5375,2.56,2.5689,2.6078,2.6662,2.7081,2.7111,2.7335,2.756,2.756,2.756,2.756,2.8674,2.9026,2.8486,2.8247,2.8197,2.7657,2.7682,2.8107,0.0,0.0,0.0,2.7218,2.7431,2.7431,2.7431,2.8023,2.8961,2.8059,2.8662,3.0502,3.0178,3.0582,3.1441,3.1646,3.1661,3.1616,3.112,3.0791,3.0642,2.9624,2.8996,2.8742,2.8203,2.7754,2.738,2.6856,2.627,2.5643,2.4964,2.502,2.5873,2.4968,2.4471,2.461,2.4079,2.3849,2.3954,2.4356,2.4856,2.5367,2.5137,2.5397,2.6166,2.5591,2.5422,2.5764,2.6749,2.718,2.6824,2.8304,2.9032,2.8531,2.8936,2.9189,2.9075,2.9068,2.9068,2.9068,2.8609,2.853,2.8992,2.8111,2.7636,2.8111,2.7249,2.6627,2.6581,2.6258,2.6114,2.6101,2.6146,2.6101,2.6412,2.6208,2.6006,2.6101,2.6159,2.5884,2.5781,2.5713,2.5601,2.5722,2.6016,2.5974,2.5809,2.5779,2.5525,2.4881,2.4761,2.4761,2.4807,2.4761,2.5016,2.548,2.5674,2.5944,2.6318,2.6632,2.6886,2.732,2.7535,2.756,2.756,2.756,2.756,2.9591,2.9628,2.9051,2.8812,2.8762,2.8222,2.8034,2.8097,2.8079,2.8015,2.7883,2.7959,2.7984,2.7984,2.7996,2.7843,2.7594,2.743,2.7679,0.0,2.8853,2.9896,3.1279,3.2035,3.2377,3.2377,3.2287,3.1943,3.142,3.1123,3.0567,2.9549,2.934,2.8442,2.6871,2.6647,2.6546,2.6432,2.5738,2.5228,2.4851,2.4656,2.4837,2.5363,2.4807,2.4762,2.53,2.5393,2.5453,2.5558,2.5875,2.595,2.5708,2.6008,2.6198,2.6422,2.6624,2.7155,2.8138,2.845,2.8779,2.9173,2.8856,2.8825,2.9311,2.9339,2.9339,2.9339,2.9231,2.9251,2.9295,2.8711,2.8264,2.8342,2.7834,2.7425,2.7349,2.7315,2.7399,2.7854,2.7622,2.7659,2.8264,2.7791,2.7353,2.7804,2.7361,2.7051,2.6621,2.6426,2.6447,2.6522,2.692,2.7006,2.6587,2.6452,2.6183,2.5585,2.548,2.5465,2.5465,2.5465,2.5555,2.563,2.6123,2.6273,2.6019,2.6707,2.716,2.7036,2.7245,2.756,2.756,2.756,2.756,2.9779,2.9754,2.9515,2.9402,2.9377,2.9126,2.8837,2.8599,2.8888,2.8662,2.8147,2.8423,2.8561,2.8549,2.8549,2.8599,2.8624,2.8021,2.8234,2.9039,2.9146,2.9791,3.0881,3.1835,3.224,3.2317,3.2778,3.2706,3.2019,3.1719,3.1046,3.0118,2.9744,2.8936,2.7769,2.7679,2.732,2.6602,2.5944,2.563,2.5689,2.5345,2.53,2.56,2.53,2.5254,2.56,2.56,2.5764,2.6138,2.6276,2.6441,2.6662,2.6856,2.707,2.7126,2.7175,2.756,2.8475,2.8571,2.8706,2.8922,2.869,2.8488,2.8415,2.9042,2.9406,2.9361,2.9134,2.9058,2.9316,2.8528,2.814,2.8463,2.7959,2.7625,2.756,2.756,2.771,2.7944,2.776,2.781,2.8367,2.7929,2.766,2.7944,2.771,2.7475,2.7156,2.7096,2.6991,2.6722,2.7141,2.7445,2.7156,2.7175,2.6841,2.6243,2.6138,2.6138,2.6138,2.6138,2.6288,2.6602,2.6931,2.6976,2.6677,2.7126,2.735,2.734,2.7355,2.7545,2.756,2.756,2.756,2.9779,2.9779,2.9779,2.9779,2.9779,2.9779,2.9528,2.9189,2.9591,2.9302,2.8612,2.8938,2.9126,2.9126,2.9114,2.9302,2.9453,2.8687,2.8791,2.9639,2.9521,2.9937,3.0937,3.19,3.2436,3.2693,3.3369,3.338,3.2736,3.2228,3.1539,3.0746,2.9968,2.9325,2.8831,2.8667,2.8083,2.7066,2.6378,2.6138,2.6333,2.5869,2.5659,2.5824,2.5839,2.5884,2.6033,2.6048,2.6288,2.6767,2.6647,2.6995,2.7775,2.7649,2.7745,2.7964,2.7925,2.8098,2.8742,2.8816,2.8831,2.8816,2.8682,2.8382,2.7976,2.868,2.9154,2.8982,2.8543,2.8511,2.8764,2.8158,2.781,2.8189,2.791,2.761,2.756,2.756,2.756,2.756,2.756,2.761,2.756,2.756,2.761,2.761,2.756,2.756,2.756,2.756,2.7335,2.7096,2.7245,2.758,2.756,2.7545,2.7335,2.6856,2.6811,2.6811,2.6811,2.6811,2.6946,2.7415,2.75,2.75,2.7545,2.7545,2.756,2.755,2.7545,2.756,2.756,2.756,2.756,2.9779,2.9779,2.9779,2.9779,2.9779,2.9779,2.9741,2.9704,2.9779,2.9754,2.9591,2.9679,2.9691,2.9716,2.9704,2.9478,2.9076,2.8913,2.8711,2.8467,2.908,3.0207,3.1599,3.2539,3.3441,3.4114,3.4319,3.3976,3.3425,3.3275,3.2647,3.142,3.0193,2.9579,2.9445,2.8921,2.8547,2.8412,2.7739,2.6841,2.5779,2.5644,2.5884,2.6482,2.6497,2.6782,2.7325,2.738,2.746,2.752,2.752,2.7784,2.8353,2.7934,2.8165,2.922,2.8816,2.8786,2.9415,2.949,2.946,2.9445,2.8981,2.8622,2.8517,2.8621,2.8423,2.8037,2.7806,2.7806,2.776,2.766,2.761,2.771,2.766,2.756,2.756,2.756,2.756,2.756,2.756,2.756,2.756,2.756,2.756,2.756,2.756,2.756,2.756,2.756,2.761,2.7505,2.7545,2.756,2.756,2.756,2.75,2.7425,2.7455,2.7395,2.7365,2.7445,2.7565,2.7485,2.756,2.756,2.756,2.756,2.756,2.756,2.756,2.756,2.756,2.756,2.7575,2.9779,2.9779,2.9779,2.9779,2.9779,2.9779,2.9779,2.9779,2.9779,2.9779,2.9779,2.9779,2.9779,2.9779,2.9779,2.9654,2.9453,2.944,2.9327,2.9114,2.9452,3.0002,3.069,3.155,3.2458,3.3354,3.392,3.4168,3.3961,3.332,3.2632,3.2093,3.118,3.0537,3.0133,2.9864,2.9549,2.916,2.8517,2.7904,2.741,2.6976,2.6886,2.7126,2.7171,2.7325,2.7625,2.7949,2.8173,2.8203,2.8547,2.8876,2.916,2.8532,2.8427,2.8951,2.8757,2.9056,3.0043,2.9804,2.9744,3.0088,2.9879,2.9579,2.925,2.9505,2.9445,2.8846,2.8412,2.8038,2.7664,2.7575,2.756,2.756,2.756,2.7575,2.756,2.7575,2.756,2.756,2.756,2.756,2.756,2.756,2.756,2.756,2.756,2.756,2.756,2.756,2.756,2.756,2.756,2.756,2.756,2.756,2.756,2.756,2.756,2.756,2.756,2.756,2.761,2.756,2.756,2.756,2.756,2.756,2.756,2.756,2.756,2.756,2.756,2.756,2.7745,2.9779,2.9779,2.9779,2.9779,2.9779,2.9779,2.9779,2.9779,2.9779,2.9779,2.9779,2.9779,2.9779,2.9779,2.9779,2.9779,2.9779,2.9779,2.9779,2.9779,2.9779,2.9921,3.0203,3.0833,3.1683,3.2607,3.3587,3.428,3.4588,3.3634,3.2961,3.2721,3.2123,3.1465,3.0836,3.0627,3.0283,2.9819,2.919,2.8876,2.8786,2.8382,2.8,2.7685,2.7805,2.7844,2.7874,2.8502,2.8876,2.8876,2.9325,2.9654,2.9804,2.922,2.8936,2.9131,2.931,2.9804,3.0717,3.0357,3.0298,3.0702,3.0627,3.0313,3.0028,3.0253,3.0193,2.9624,2.9295,2.8861,2.8248,2.818,2.8105,2.7904,2.7979,2.812,2.7904,2.7859,2.7889,2.7955,2.7805,2.756,2.756,2.756,2.756,2.756,2.756,2.756,2.756,2.756,2.756,2.756,2.756,2.756,2.756,2.756,2.756,2.756,2.756,2.756,2.756,2.756,2.756,2.756,2.756,2.756,2.756,2.756,2.759,2.7575,2.759,2.7604,2.756,2.7679,2.8038,2.9779,2.9779,2.9779,2.9779,2.9779,2.9779,2.9779,2.9779,2.9779,2.9779,2.9779,2.9779,2.9779,2.9779,2.9779,2.9779,2.9779,2.9779,2.9779,2.9779,2.9779,3.0279,3.1106,3.1167,3.1669,3.2464,3.331,3.4298,3.516,3.4618,3.4068,3.3378,3.2661,3.2079,3.1437,3.0854,3.0522,3.0432,2.9849,2.9549,2.952,2.949,2.8816,2.791,2.8218,2.8547,2.8622,2.9175,2.9535,2.9535,2.9639,2.9894,3.0342,2.9879,2.9774,3.0328,3.0941,3.1258,3.1347,3.1315,3.1287,3.1375,3.0896,3.0522,3.0492,3.0552,3.0357,2.9699,3.0118,3.0088,2.9579,2.931,2.9101,2.8667,2.9086,2.9086,2.8622,2.8547,2.8637,2.8607,2.8165,2.7754,2.7634,2.756,2.7604,2.759,2.756,2.756,2.756,2.756,2.756,2.756,2.756,2.756,2.756,2.756,2.756,2.756,2.756,2.756,2.756,2.756,2.756,2.756,2.756,2.756,2.756,2.759,2.767,2.77,2.7724,2.7724,2.8038,2.8278,2.8637,2.9779,2.9779,2.9779,2.9779,2.9779,2.9779,2.9779,2.9779,2.9779,2.9779,2.9779,2.9779,2.9779,2.9779,2.9779,2.9779,2.9779,2.9779,2.9779,2.9779,2.9779,3.0011,3.0279,3.0279,3.0771,3.1669,3.2019,3.2678,3.3462,3.2976,3.2496,3.2359,3.2254,3.1897,3.1389,3.159,3.1599,3.1135,3.0522,3.0163,3.0133,2.9789,2.9325,2.8906,2.9086,2.922,2.9235,2.9849,3.0178,3.0178,3.0582,3.0926,3.1076,3.0537,3.0253,3.0447,3.0357,3.0657,3.133,3.112,3.1076,3.1465,3.1315,3.1135,3.1165,3.1165,3.1061,3.0926,3.0986,3.1016,3.0731,3.0103,2.949,2.9325,2.943,2.9535,2.931,2.9235,2.9146,2.8906,2.8562,2.8382,2.8263,2.8233,2.8053,2.7664,2.7575,2.7619,2.764,2.7575,2.7634,2.7575,2.756,2.756,2.756,2.756,2.756,2.756,2.756,2.756,2.756,2.756,2.756,2.756,2.756,2.756,2.756,2.7575,2.7685,2.8083,2.8128,2.8263,2.8839,2.8996,2.934,2.9779,2.9779,2.9779,2.9779,2.9779,2.9779,2.9779,2.9779,2.9779,2.9779,2.9779,2.9779,2.9779,2.9779,2.9779,2.9779,2.9779,2.9779,2.9779,2.9779,2.9779,2.9779,2.9779,2.9779,3.0139,3.0758,3.1106,3.1683,3.2494,3.2109,3.1819,3.1668,3.1822,3.1593,3.1212,3.1911,3.2047,3.1427,3.1202,3.1076,3.0836,3.0432,3.0223,3.0208,3.0208,3.0103,2.9909,3.0492,3.0836,3.0911,3.13,3.1467,3.1422,3.1106,3.0821,3.0776,3.0462,3.0582,3.1258,3.1091,3.1046,3.1465,3.1467,3.1467,3.1467,3.1467,3.1467,3.1467,3.1467,3.1467,3.1375,3.0731,3.0133,2.9983,3.0073,3.0103,2.9924,2.9879,2.9639,2.931,2.9564,2.949,2.9041,2.8951,2.8712,2.8248,2.8269,2.8269,2.8269,2.8269,2.8098,2.7949,2.7949,2.7829,2.7664,2.756,2.756,2.756,2.756,2.756,2.756,2.756,2.756,2.756,2.756,2.756,2.756,2.7575,2.7934,2.8472,2.8547,2.8562,2.9116,2.9684,2.9968,2.9779,2.9779,2.9779,2.9779,2.9779,2.9779,2.9779,2.9779,2.9779,2.9779,2.9779,2.9779,2.9779,2.9779,2.9779,2.9804,2.9867,2.9817,2.9779,2.9779,2.9779,2.9779,2.9779,2.9779,2.9792,2.9921,3.0771,3.1596,3.2294,3.2167,3.1908,3.1625,3.1542,3.1268,3.0609,3.1528,3.1774,3.132,3.1657,3.1901,3.1556,3.1174,3.1084,3.1202,3.1144,3.0847,3.0425,3.1063,3.1435,3.1392,3.1452,3.1467,3.1467,3.1407,3.1422,3.1377,3.145,3.148,3.1452,3.1422,3.142,3.1467,3.1467,3.1467,3.1467,3.1467,3.1467,3.1467,3.1467,3.1467,3.1467,3.1405,3.112,3.0702,3.0956,3.1046,3.0672,3.0507,3.0298,2.9968,3.0582,3.0851,3.0013,2.9594,2.949,2.937,2.9325,2.931,2.925,2.9235,2.9175,2.8727,2.8397,2.8173,2.7859,2.756,2.756,2.756,2.756,2.756,2.756,2.756,2.756,2.756,2.756,2.7575,2.7685,2.7745,2.8158,2.8592,2.8667,2.9101,2.9789,3.0357,3.0462,2.9779,2.9779,2.9779,2.9779,2.9779,2.9779,2.9779,2.9779,2.9779,2.9779,2.9779,2.9779,2.9779,2.9779,2.9792,2.9993,3.0306,2.9993,2.9779,2.9779,2.9779,2.9779,2.9779,2.9779,2.9779,2.9856,3.0075,3.0355,3.0646,3.0709,3.0517,3.0475,3.105,3.0949,3.0428,3.1199,3.14,3.0815,3.0693,3.051,3.0298,2.9978,2.9827,2.9752,2.9766,2.9652,2.9543,3.0778,3.1467,3.1467,3.1467,3.1467,3.1467,3.1467,3.1467,3.1467,3.1467,3.1467,3.1467,3.1467,3.1482,3.1482,3.1482,3.1467,3.1467,3.1467,3.1467,3.1467,3.1467,3.1467,3.1467,3.1467,3.1347,3.1168,3.139,3.1465,3.1225,3.1123,3.112,3.1001,3.1285,3.1285,3.0956,3.0582,3.0088,2.9744,2.9684,2.9669,2.9639,2.9729,2.9325,2.8757,2.8607,2.8457,2.8008,2.7679,2.756,2.756,2.756,2.7724,2.7709,2.756,2.756,2.756,2.756,2.7649,2.7745,2.7964,2.8412,2.9071,2.9535,3.0088,3.0746,3.0971,3.1001,2.9779,2.9779,2.9779,2.9779,2.9779,2.9779,2.9779,2.9779,2.9779,2.9779,2.9779,2.9779,2.9779,2.9779,2.9779,2.998,3.0256,2.9942,2.9779,2.9779,2.9779,2.9779,2.9779,2.9779,2.9779,2.9779,2.9779,2.9779,2.9779,2.9779,2.9779,2.9921,3.0419,3.0452,3.0177,3.0903,3.1121,3.0553,3.05,3.0223,2.9849,2.9463,2.9223,2.9044,2.8989,2.8989,2.9066,3.0072,3.0703,3.1014,3.1336,3.1467,3.1467,3.1146,3.1014,3.1409,3.1219,3.1146,3.1409,3.1467,3.1616,3.175,3.1616,3.1616,3.1706,3.1676,3.1467,3.1467,3.1467,3.1467,3.1467,3.1467,3.1467,3.1467,3.1452,3.1467,3.1467,3.1467,3.1452,3.1392,3.1467,3.1467,3.1347,3.1168,3.0761,3.0387,3.0313,3.0313,3.0298,3.0342,2.9894,2.943,2.9175,2.8801,2.8128,2.7814,2.759,2.756,2.756,2.7829,2.8008,2.7694,2.756,2.756,2.756,2.7874,2.7964,2.8248,2.8667,2.946,3.0238,3.0627,3.1016,3.1285,3.136,2.9779,2.9779,2.9779,2.9779,2.9779,2.9779,2.9779,2.9779,2.9779,2.9779,2.9779,2.9779,2.9779,2.9779,2.9779,2.9867,2.9842,2.9817,2.9854,2.9867,2.9829,2.9779,2.9779,2.9779,2.9779,2.9779,2.9779,2.9779,2.9779,2.9779,2.9779,2.9779,2.9856,2.9856,2.9986,3.067,3.0729,3.0355,3.0899,3.0582,2.9698,2.9588,2.9408,2.8903,2.8835,2.8729,2.8757,2.8931,2.938,3.0194,3.1029,3.1394,3.1146,3.03,3.03,3.1219,3.0703,3.0896,3.1292,3.1426,3.1692,3.2094,3.1842,3.175,3.2109,3.1913,3.1659,3.1482,3.1467,3.1467,3.1467,3.1467,3.1467,3.1467,3.1467,3.1467,3.1467,3.1467,3.1467,3.1467,3.1467,3.1467,3.1467,3.1422,3.1377,3.1375,3.1315,3.127,3.127,3.1106,3.1061,3.0552,2.9819,2.9355,2.8757,2.8517,2.8323,2.8323,2.8203,2.8263,2.8353,2.8023,2.7814,2.7784,2.7814,2.8083,2.8382,2.8712,2.922,2.9998,3.0552,3.0881,3.1165,3.1377,3.1511,2.9779,2.9779,2.9779,2.9779,2.9779,2.9779,2.9779,2.9779,2.9779,2.9779,2.9779,2.9779,2.9779,2.9779,2.9792,2.9993,3.0168,2.9942,3.0043,3.0294,2.9955,2.9804,2.9779,2.9779,2.9779,2.9779,2.9779,2.9779,2.9779,2.9779,2.9779,2.9779,2.9779,2.9779,2.9856,3.0075,3.0088,2.9872,2.9676,2.9602,2.9241,2.8802,2.8499,2.8344,2.7988,2.7782,2.7799,2.796,2.8427,2.938,3.0777,3.0911,2.9917,2.9435,2.9679,3.0444,3.0462,3.0613,3.1235,3.1306,3.1423,3.1723,3.1819,3.1892,3.178,3.2108,3.1973,3.1631,3.1467,3.1511,3.1497,3.1482,3.1482,3.1467,3.1467,3.1467,3.1467,3.1467,3.1467,3.1467,3.1467,3.1467,3.1467,3.1467,3.1467,3.1467,3.1467,3.1467,3.1467,3.1437,3.13,3.0821,3.0223,2.9879,2.9535,2.928,2.9146,2.919,2.9071,2.8906,2.8816,2.8517,2.8397,2.8368,2.8382,2.8592,2.8951,2.931,2.9953,3.0537,3.0926,3.127,3.136,3.1497,3.1556,2.9779,2.9779,2.9779,2.9779,2.9779,2.9779,2.9779,2.9779,2.9779,2.9779,2.9779,2.9779,2.9779,2.9779,2.9792,2.9955,3.0206,2.9942,2.998,3.0143,2.993,2.9792,2.9779,2.9779,2.9779,2.9779,2.9779,2.9779,2.9779,2.9779,2.9779,2.9779,2.9779,2.9779,2.9779,2.9779,2.9779,2.9716,2.944,2.9202,2.8913,2.8624,2.831,2.8072,2.7582,2.7293,2.7384,2.7646,2.8075,2.8641,2.9642,3.0064,2.9453,2.8852,2.9158,3.0263,3.0149,3.0291,3.0917,3.0963,3.1091,3.1381,3.1559,3.1547,3.1642,3.2061,3.2102,3.1821,3.2094,3.2154,3.1943,3.1719,3.1497,3.1467,3.1467,3.1467,3.1482,3.1467,3.1467,3.1467,3.1467,3.1467,3.1467,3.1467,3.1467,3.1467,3.1467,3.1467,3.1467,3.1452,3.1435,3.1031,3.0642,3.0298,3.0013,2.9774,2.9624,2.9699,2.9894,2.9714,2.9445,2.916,2.9131,2.9116,2.9056,2.9146,2.9535,2.9924,3.0417,3.0911,3.1315,3.1509,3.1526,3.1943,3.1943,2.9779,2.9779,2.9779,2.9702,2.9611,2.9611,2.9521,2.9611,2.9534,2.9534,2.9534,2.9714,2.9624,2.9636,2.9689,2.9804,2.9829,2.9817,2.9804,2.9842,2.9792,2.9779,2.9779,2.9779,2.9779,2.9779,2.9779,2.9779,2.9779,2.9779,2.9779,2.9779,2.9779,2.9779,2.9779,2.9779,2.9779,2.9779,2.9741,2.9503,2.9189,2.9038,2.885,2.8473,2.7934,2.7582,2.7582,2.7839,2.8035,2.7773,2.8379,2.8947,2.9254,2.8576,2.8983,2.9942,2.9875,2.9847,3.0419,3.0622,3.0788,3.1172,3.0925,3.0856,3.1363,3.1744,3.2026,3.2066,3.2853,3.2822,3.2691,3.2108,3.1958,3.1973,3.1854,3.1721,3.1646,3.1556,3.1467,3.1467,3.1467,3.1467,3.1467,3.1467,3.1467,3.1467,3.1467,3.1467,3.1467,3.1467,3.1452,3.142,3.1046,3.0702,3.0462,3.0238,3.0133,3.0118,3.0477,3.0477,3.0223,3.0013,2.9968,2.9894,2.9729,2.9834,3.0148,3.0567,3.0941,3.1255,3.1629,3.1689,3.1706,3.2362,3.2617,2.9779,2.9779,2.9779,2.9275,2.8518,2.8426,2.8426,2.8438,2.8438,2.8438,2.8676,2.9365,2.9209,2.8518,2.9197,2.9779,2.9702,2.9714,2.9779,2.9779,2.9779,2.9779,2.9792,2.9817,2.9804,2.9792,2.9779,2.9779,2.9779,2.9779,2.9779,2.9779,2.9779,2.9779,2.9779,2.9779,2.9779,2.9779,2.9779,2.9729,2.9616,2.9541,2.9465,2.9239,2.88,2.8348,2.8021,2.8047,2.8056,2.7881,2.7639,2.7915,2.8518,2.9098,2.9497,2.9568,2.9601,2.9784,3.0351,3.0381,3.0383,3.0592,3.0842,3.0949,3.0569,3.1336,3.1808,3.204,3.2333,3.2786,3.3106,3.3109,3.29,3.2841,3.2931,3.2961,3.2886,3.2109,3.1661,3.1526,3.1526,3.1482,3.1497,3.1482,3.1482,3.1467,3.1467,3.1467,3.1467,3.1467,3.1467,3.1467,3.139,3.1061,3.0986,3.0806,3.0717,3.0627,3.0896,3.1076,3.0836,3.0672,3.0537,3.0432,3.0342,3.0522,3.0731,3.1001,3.1345,3.1644,3.1943,3.2108,3.2377,3.2901,3.329,2.9456,2.9028,2.9015,2.8359,2.7441,2.7371,2.736,2.736,2.736,2.7371,2.7441,2.8039,2.7879,2.7452,2.7959,2.845,2.9106,2.9624,2.9779,2.9854,3.0005,3.0043,2.988,3.0018,3.008,2.9842,2.9779,2.9779,2.9779,2.9779,2.9779,2.9779,2.9779,2.9779,2.9779,2.9779,2.9779,2.9779,2.9779,2.9779,2.9779,2.9779,2.9603,2.9515,2.9302,2.9076,2.8561,2.88,2.8888,2.875,2.8335,2.8097,2.8499,2.9289,2.9682,2.9612,2.9593,2.9727,3.0064,3.0121,3.0005,3.0099,3.0426,3.0348,3.0424,3.1042,3.1578,3.1875,3.2337,3.3042,3.3255,3.2922,3.3004,3.3438,3.3514,3.3514,3.3395,3.2856,3.2287,3.2123,3.2033,3.2033,3.1973,3.1869,3.1884,3.2018,3.1586,3.1556,3.1482,3.1482,3.1467,3.1467,3.1467,3.1392,3.1392,3.139,3.133,3.1255,3.127,3.136,3.127,3.1135,3.1016,3.0926,3.0851,3.0986,3.1195,3.148,3.1646,3.2048,3.2347,3.2617,3.3021,3.3559,3.3858,2.8688,2.7855,2.7844,2.7209,2.6307,2.6235,2.6224,2.6224,2.6224,2.6224,2.6318,2.64,2.6637,2.6307,2.6554,2.7116,2.8096,2.8949,2.939,3.0055,3.0369,3.0306,3.0168,3.0407,3.0382,2.9854,2.9779,2.9779,2.9779,2.9779,2.9779,2.9779,2.9779,2.9779,2.9779,2.9779,2.9779,2.9779,2.9779,2.9779,2.9779,2.9779,2.9566,2.9377,2.949,2.9515,2.9227,2.9415,2.9704,2.9779,2.9779,2.9528,2.934,2.9453,2.9779,2.9819,2.9795,2.9821,2.9859,2.9833,2.9793,2.9779,2.9856,2.9856,3.0101,3.0631,3.1162,3.1734,3.2272,3.3138,3.3011,3.2668,3.2811,3.3343,3.3565,3.3583,3.3597,3.3583,3.3223,3.2811,3.2677,3.2662,3.2542,3.2422,3.2452,3.2407,3.1989,3.1735,3.1706,3.1485,3.15,3.1411,3.1353,3.1043,3.1014,3.1102,3.1146,3.1176,3.122,3.1249,3.1235,3.1042,3.0851,3.1317,3.139,3.1407,3.1377,3.1495,3.1809,3.2332,3.2766,3.3066,3.3589,3.4188,3.4412,2.6894,2.6801,2.6719,2.613,2.521,2.5041,2.5041,2.5126,2.5041,2.5041,2.521,2.5975,2.5808,2.5473,2.6141,2.7046,2.7683,2.8359,2.9132,3.0057,3.0503,3.0545,3.0532,3.0959,3.0746,3.0005,2.9829,2.9854,2.9792,2.9779,2.9779,2.9779,2.9779,2.9779,2.9779,2.9779,2.9779,2.9779,2.9779,2.9779,2.9779,2.9767,2.9741,2.9566,2.9716,2.9691,2.9666,2.9704,2.9779,2.9779,2.9779,2.9729,2.9641,2.9716,2.9779,2.9779,2.9779,2.9779,2.9779,2.9779,2.9779,2.9779,2.9779,2.9779,2.9856,2.9998,3.057,3.1193,3.1901,3.2693,3.2695,3.2417,3.2972,3.3518,3.3781,3.3767,3.3796,3.3761,3.3623,3.3122,3.3193,3.332,3.3139,3.2959,3.2883,3.2883,3.2629,3.2466,3.239,3.1942,3.1465,3.1364,3.1219,3.0804,3.045,3.0491,3.0563,3.056,3.0635,3.0736,3.0664,3.0522,3.0613,3.1054,3.1397,3.1441,3.147,3.1588,3.2138,3.2811,3.3185,3.3468,3.408,3.4678,3.4931,2.6141,2.563,2.563,2.4967,2.4049,2.3963,2.3963,2.3963,2.3877,2.3963,2.4049,2.4467,2.4467,2.4135,2.4392,2.5378,2.6356,2.7763,2.8503,2.9377,3.035,3.0846,3.0783,3.1399,3.126,3.0733,3.0382,3.0043,2.9804,2.9779,2.9779,2.9779,2.9779,2.9779,2.9779,2.9779,2.9779,2.9779,2.9779,2.9779,2.9779,2.9779,2.9779,2.9779,2.9779,2.9779,2.9779,2.9779,2.9779,2.9779,2.9779,2.9779,2.9779,2.9779,2.9779,2.9779,2.9779,2.9779,2.9779,2.9779,2.9779,2.9779,2.9779,2.9779,2.9779,2.9856,3.0075,3.0419,3.0771,3.1341,3.1802,3.1901,3.2307,3.3031,3.331,3.331,3.331,3.3241,3.3175,3.3048,3.3057,3.3235,3.3794,3.3627,3.3413,3.3291,3.3136,3.3044,3.2889,3.2121,3.1246,3.0862,3.0649,3.0401,3.0066,3.0158,3.0129,3.0115,3.0172,3.027,3.0291,3.0326,3.0503,3.0821,3.1065,3.1343,3.1896,3.2147,3.2702,3.3153,3.3181,3.348,3.4406,3.5026,3.4978,2.5305,2.4457,2.4467,2.3963,2.3222,2.3144,2.3135,2.3144,2.3135,2.3135,2.3144,2.3135,2.3222,2.3135,2.3299,2.379,2.4872,2.6767,2.7441,2.8407,2.9785,3.0599,3.0661,3.1417,3.1775,3.0997,3.0934,3.0482,3.008,2.9854,2.9792,2.9779,2.9779,2.9779,2.9779,2.9779,2.9779,2.9779,2.9779,2.9779,2.9779,2.9779,2.9779,2.9779,2.9779,2.9779,2.9779,2.9779,2.9779,2.9779,2.9779,2.9779,2.9779,2.9779,2.9779,2.9779,2.9779,2.9779,2.9779,2.9779,2.9779,2.9779,2.9779,2.9779,2.9779,2.9779,2.9779,2.9779,2.9934,3.0216,3.0833,3.0895,3.1389,3.2019,3.2307,3.2307,3.2307,3.2307,3.2393,3.2402,3.2665,3.2933,3.3273,3.347,3.3054,3.3054,3.2892,3.2806,3.2573,3.158,3.0776,3.0234,2.9948,2.9849,2.9759,2.9927,2.9886,2.9791,2.99,2.9942,3.0092,3.0201,3.0324,3.0365,3.0768,3.1078,3.1868,3.2356,3.2306,3.2429,3.2758,3.3188,3.371,3.3965,3.393,2.3387,2.3299,2.3309,2.3222,2.3135,2.3144,2.3144,2.3144,2.3144,2.3144,2.3144,2.3144,2.3144,2.3144,2.3144,2.38,2.4617,2.5294,2.6212,2.7266,2.8563,2.927,2.9388,3.1344,3.115,3.0548,3.0773,3.0984,3.0206,2.9745,2.9804,2.9779,2.9779,2.9779,2.9779,2.9779,2.9779,2.9779,2.9779,2.9779,2.9779,2.9779,2.9779,2.9779,2.9779,2.9779,2.9779,2.9779,2.9779,2.9779,2.9779,2.9779,2.9779,2.9779,2.9779,2.9779,2.9779,2.9779,2.9779,2.9779,2.9779,2.9779,2.9779,2.9779,2.9779,2.9779,2.9779,2.9779,2.9779,2.9856,3.0062,2.9985,3.0495,3.0983,3.1389,3.1328,3.1402,3.1328,3.1402,3.1462,3.1586,3.1987,3.2372,3.2555,3.2653,3.2667,3.2639,3.2528,3.2068,3.106,3.0171,2.9518,2.9475,2.9424,2.9369,2.9521,2.9614,2.9482,2.9641,2.9773,2.9905,2.9966,2.9608,2.9693,3.0153,3.0578,3.1007,3.1281,3.1403,3.1762,3.2235,3.2472,3.2695,3.2792,3.289,2.3144,2.3144,2.3144,2.3144,2.3144,2.3144,2.3144,2.3144,2.3144,2.3144,2.3144,2.3144,2.3144,2.3144,2.3144,2.3387,2.3877,2.4457,2.5126,2.6084,2.7189,2.7934,2.8286,2.9171,2.9473,2.9451,2.9071,2.8751,2.8867,2.9529,2.9779,2.9702,2.9702,2.9779,2.9534,2.9702,2.9779,2.9779,2.9779,2.9779,2.9779,2.9779,2.9779,2.9779,2.9702,2.9702,2.9779,2.9779,2.9779,2.9779,2.9779,2.9779,2.9779,2.9779,2.9779,2.9779,2.9779,2.9779,2.9779,2.9779,2.9779,2.9779,2.9779,2.9779,2.9779,2.9779,2.9779,2.9779,2.9779,2.9779,2.9779,2.9779,2.9998,3.0279,3.0558,3.0482,3.0482,3.0419,3.0419,3.0495,3.057,3.0983,3.1402,3.1583,3.1834,3.2181,3.2037,3.1707,3.1129,3.0262,2.9463,2.871,2.8936,2.9176,2.9155,2.9164,2.9417,2.9417,2.9661,2.9764,2.9715,2.9629,2.9415,2.9403,2.9918,3.0173,3.0197,3.0931,3.165,3.1717,3.1724,3.1843,3.1933,3.1802,3.2033,2.3144,2.3144,2.3144,2.3144,2.3144,2.3144,2.3144,2.3144,2.3144,2.3144,2.3144,2.3144,2.3144,2.3144,2.3144,2.3135,2.3222,2.3963,2.4286,2.4924,2.5775,2.6532,2.6941,2.7394,2.8019,2.7847,2.7827,2.7679,2.7842,2.8186,2.8712,2.8961,2.8633,2.8791,2.887,2.8791,2.8712,2.87,2.8712,2.8712,2.8791,2.8791,2.8882,2.8961,2.9209,2.9353,2.9443,2.9702,2.9779,2.9779,2.9779,2.9779,2.9779,2.9779,2.9779,2.9779,2.9779,2.9779,2.9779,2.9779,2.9779,2.9779,2.9779,2.9779,2.9779,2.9779,2.9779,2.9779,2.9779,2.9779,2.9779,2.9779,2.9856,2.9856,2.9921,2.9856,2.9779,2.9921,2.9998,3.0075,3.0139,2.9998,3.0343,3.062,3.1044,3.1536,3.1402,3.097,3.0439,2.9757,2.939,2.8897,2.9024,2.9376,2.9277,2.9227,2.9315,2.939,2.9616,2.9768,2.9706,2.9719,2.9719,2.9768,2.9779,2.9884,3.0033,3.1008,3.1815,3.1296,3.0887,3.1175,3.1267,3.1119,3.1044,2.3144,2.3144,2.3144,2.3144,2.3144,2.3144,2.3144,2.3144,2.3144,2.3144,2.3144,2.3144,2.3144,2.3144,2.3144,2.3144,2.3144,2.3135,2.3387,2.3724,2.4337,2.4988,2.5402,2.6258,2.7097,2.7097,2.6697,2.6783,2.7077,2.6435,2.6753,2.673,2.7139,2.6894,2.6976,2.7302,2.7221,2.7221,2.7221,2.7139,2.7058,2.7058,2.7058,2.7128,2.7695,2.8255,2.8267,2.8949,2.9365,2.9365,2.9702,2.9611,2.9534,2.9702,2.9792,2.9779,2.9779,2.9779,2.9779,2.9779,2.9779,2.9779,2.9779,2.9779,2.9779,2.9779,2.9779,2.9779,2.9779,2.9779,2.9779,2.9779,2.9779,2.9779,2.9779,2.9779,2.9779,2.9779,2.9856,2.9779,2.9779,2.9779,2.9779,3.0126,3.0266,3.0771,3.0771,3.0343,3.0203,2.9744,2.9795,2.958,2.9617,2.9705,2.9718,2.9679,2.9591,2.9578,2.9704,2.9767,2.9806,2.9779,2.9779,2.9779,2.9779,2.9779,2.9779,3.0419,3.0709,3.0216,3.0075,3.0419,3.057,3.0419,3.0203,2.3144,2.3144,2.3144,2.3144,2.3144,2.3144,2.3144,2.3144,2.3144,2.3144,2.3144,2.3144,2.3144,2.3144,2.3144,2.3144,2.3144,2.3144,2.3144,2.3222,2.3541,2.3714,2.4064,2.4374,2.465,2.4843,2.4833,2.4736,2.4598,2.4711,2.4509,2.4638,2.5724,2.6389,2.6483,2.6362,2.6329,2.64,2.64,2.6483,2.6483,2.6483,2.6483,2.6554,2.6719,2.7128,2.7209,2.7452,2.7706,2.8131,2.9052,2.9118,2.8949,2.9287,2.9546,2.9611,2.9534,2.9611,2.9702,2.9702,2.9779,2.9779,2.9779,2.9779,2.9779,2.9779,2.9779,2.9779,2.9779,2.9779,2.9779,2.9779,2.9779,2.9779,2.9779,2.9779,2.9779,2.9779,2.9779,2.9779,2.9779,2.9779,2.9779,2.9856,2.9856,2.9934,2.9856,2.9779,2.9779,2.9779,2.9779,2.9779,2.9779,2.9779,2.9779,2.9779,2.9779,2.9779,2.9779,2.9779,2.9779,2.9779,2.9779,2.9779,2.9779,2.9779,2.9779,2.9779,2.9779,2.9779,2.9779,2.9934,2.9856,2.9779,2.9779,2.3144,2.3144,2.3144,2.3144,2.3144,2.3144,2.3144,2.3144,2.3144,2.3144,2.3144,2.3144,2.3144,2.3144,2.3144,2.3144,2.3144,2.3144,2.3144,2.3135,2.3135,2.3144,2.3144,2.3242,2.3533,2.3144,2.3144,2.3242,2.3436,2.3144,2.3309,2.381,2.4573,2.52,2.5551,2.5689,2.5624,2.5505,2.5484,2.5473,2.5389,2.54,2.54,2.54,2.5714,2.5964,2.613,2.6472,2.673,2.7139,2.7718,2.8199,2.8199,2.8279,2.8712,2.8791,2.8791,2.887,2.8961,2.9546,2.9702,2.9779,2.9779,2.9779,2.9779,2.9779,2.9779,2.9779,2.9779,2.9779,2.9779,2.9779,2.9779,2.9779,2.9779,2.9779,2.9779,2.9779,2.9779,2.9779,2.9779,2.9779,2.9779,2.9779,2.9779,2.9779,2.9779,2.9779,2.9779,2.9779,2.9779,2.9779,2.9779,2.9779,2.9779,2.9779,2.9779,2.9779,2.9779,2.9779,2.9779,2.9779,2.9779,2.9779,2.9779,2.9779,2.9779,2.9779,2.9779,2.9779,2.9779,2.9779,2.9779,2.9779,2.9779,2.3144,2.3144,2.3144,2.3144,2.3144,2.3144,2.3144,2.3144,2.3144,2.3144,2.3144,2.3144,2.3144,2.3144,2.3144,2.3144,2.3144,2.3144,2.3144,2.3144,2.3144,2.3144,2.3144,2.3144,2.3144,2.3144,2.3144,2.3144,2.3144,2.3144,2.3144,2.3252,2.3769,2.3937,2.391,2.3939,2.3634,2.3291,2.3446,2.362,2.3637,2.3637,2.3734,2.3897,2.4467,2.4798,2.4967,2.5473,2.5724,2.5975,2.64,2.6719,2.6625,2.6801,2.7058,2.6976,2.6894,2.6812,2.6812,2.8633,2.9287,2.9287,2.904,2.9209,2.9534,2.9611,2.9365,2.8961,2.9456,2.9611,2.9702,2.9779,2.9779,2.9779,2.9779,2.9779,2.9779,2.9779,2.9779,2.9779,2.9779,2.9779,2.9779,2.9779,2.9779,2.9779,2.9779,2.9779,2.9779,2.9779,2.9779,2.9779,2.9779,2.9779,2.9779,2.9779,2.9779,2.9779,2.9779,2.9779,2.9779,2.9779,2.9779,2.9779,2.9779,2.9779,2.9779,2.9779,2.9779,2.9779,2.9779,2.9779,2.9779,2.9867,2.9955,2.3144,2.3144,2.3144,2.3144,2.3144,2.3144,2.3144,2.3144,2.3144,2.3144,2.3144,2.3144,2.3144,2.3144,2.3144,2.3144,2.3144,2.3144,2.3144,2.3144,2.3144,2.3144,2.3144,2.3144,2.3144,2.3144,2.3144,2.3144,2.3144,2.3144,2.335,2.3516,2.3633,2.3887,2.3828,2.3789,2.3672,2.3594,2.3555,2.3457,2.3184,2.3144,2.3144,2.3144,2.3551,2.38,2.38,2.4392,2.4563,2.4648,2.4978,2.5389,2.5557,2.5808,2.6318,2.64,2.64,2.6483,2.6565,2.7302,2.7545,2.7626,2.7799,2.7799,2.7637,2.7637,2.7557,2.7879,2.845,2.8609,2.8597,2.9443,2.9624,2.9779,2.9779,2.9779,2.9779,2.9779,2.9779,2.9779,2.9779,2.9779,2.9779,2.9779,2.9779,2.9779,2.9779,2.9779,2.9779,2.9779,2.9779,2.9779,2.9779,2.9779,2.9779,2.9779,2.9779,2.9779,2.9779,2.9779,2.9779,2.9779,2.9779,2.9779,2.9779,2.9779,2.9779,2.9779,2.9779,2.9779,2.988,2.9917,2.9917,3.0118,3.0394,2.3144,2.3144,2.3144,2.3144,2.3144,2.3144,2.3144,2.3144,2.3144,2.3144,2.3144,2.3144,2.3144,2.3144,2.3144,2.3144,2.3144,2.3144,2.3144,2.3144,2.3144,2.3144,2.3144,2.3144,2.3144,2.3144,2.3144,2.3144,2.3144,2.3144,2.3262,2.3506,2.3848,2.3799,2.376,2.3789,2.3672,2.3555,2.3428,2.3369,2.3193,2.3144,2.3144,2.3144,2.3135,2.3135,2.3135,2.3144,2.3135,2.3387,2.3714,2.4221,2.4553,2.4808,2.5316,2.5316,2.5316,2.5231,2.5231,2.5231,2.5305,2.5305,2.5891,2.6483,2.6483,2.673,2.673,2.6883,2.7209,2.7371,2.7695,2.8621,2.8791,2.8791,2.8791,2.8712,2.8779,2.87,2.9106,2.9197,2.9534,2.9611,2.9702,2.9779,2.9779,2.9779,2.9779,2.9779,2.9779,2.9779,2.9779,2.9779,2.9779,2.9779,2.9779,2.9779,2.9779,2.9779,2.9792,2.9792,2.9779,2.9779,2.9779,2.9804,2.9829,2.9842,2.9804,2.9792,2.9942,3.0055,3.0168,3.0156,3.0093,3.0382,3.0746,2.3144,2.3144,2.3144,2.3144,2.3144,2.3144,2.3144,2.3144,2.3144,2.3144,2.3144,2.3144,2.3144,2.3144,2.3144,2.3144,2.3144,2.3144,2.3144,2.3144,2.3144,2.3144,2.3144,2.3144,2.3144,2.3144,2.3144,2.3144,2.3144,2.3262,2.3291,2.3223,2.3418,2.3535,2.3652,2.3633,2.3535,2.3457,2.3418,2.333,2.3174,2.3144,2.3144,2.3144,2.3144,2.3144,2.3144,2.3144,2.3144,2.3135,2.3222,2.3222,2.3222,2.3135,2.3135,2.3222,2.3309,2.3474,2.356,2.3637,2.356,2.3973,2.5136,2.5975,2.6058,2.5724,2.5652,2.5808,2.613,2.6307,2.6565,2.6812,2.6976,2.6976,2.6976,2.6976,2.7046,2.7371,2.7855,2.8279,2.887,2.9118,2.9287,2.9443,2.9365,2.9779,2.9779,2.9779,2.9779,2.9779,2.9779,2.9779,2.9779,2.9779,2.9779,2.9779,2.9779,2.9779,2.9804,2.9804,2.9792,2.9905,3.0005,3.0055,2.9967,3.0005,3.0256,3.0294,3.0244,3.0369,3.0595,3.062,3.0633,3.0821,3.1122,2.3144,2.3144,2.3144,2.3144,2.3144,2.3144,2.3144,2.3144,2.3144,2.3144,2.3144,2.3144,2.3144,2.3144,2.3144,2.3144,2.3144,2.3144,2.3144,2.3144,2.3144,2.3144,2.3144,2.3144,2.3144,2.3144,2.3144,2.3144,2.3213,2.3359,2.334,2.3213,2.3369,2.3467,2.3389,2.334,2.3418,2.3496,2.3486,2.334,2.3193,2.3144,2.3144,2.3144,2.3144,2.3144,2.3144,2.3144,2.3144,2.3144,2.3144,2.3144,2.3144,2.3144,2.3135,2.3135,2.3135,2.3135,2.3144,2.3144,2.3144,2.3144,2.3887,2.3887,2.4059,2.4307,2.4307,2.4638,2.5052,2.5221,2.5473,2.5641,2.5808,2.5891,2.5891,2.5891,2.6047,2.6378,2.6871,2.7371,2.7879,2.8119,2.8371,2.853,2.853,2.9365,2.9702,2.9611,2.9702,2.9624,2.9779,2.9779,2.9779,2.9779,2.9779,2.9779,2.9779,2.9792,2.9854,2.998,3.0143,3.0256,3.0331,3.0419,3.0495,3.0708,3.0997,3.0922,3.0733,3.0959,3.116,3.116,3.121,3.1386,3.1612,2.2744,2.2891,2.2891,2.2978,2.3125,2.3144,2.3144,2.3144,2.3144,2.3144,2.3144,2.3144,2.3144,2.3144,2.3144,2.3144,2.3144,2.3144,2.3144,2.3144,2.3144,2.3144,2.3144,2.3144,2.3144,2.3144,2.3144,2.3144,2.3213,2.331,2.333,2.3193,2.3467,2.3359,2.3232,2.3203,2.3291,2.3408,2.3457,2.3359,2.3252,2.3144,2.3144,2.3144,2.3144,2.3144,2.3144,2.3144,2.3144,2.3144,2.3144,2.3144,2.3144,2.3144,2.3144,2.3144,2.3144,2.3144,2.3144,2.3144,2.3144,2.3144,2.3144,2.3222,2.3222,2.3474,2.3387,2.3474,2.3887,2.4211,2.4382,2.4628,2.4882,2.5052,2.5052,2.5052,2.5305,2.5546,2.5964,2.6389,2.6637,2.6801,2.7046,2.7279,2.7614,2.8028,2.8371,2.8542,2.887,2.9287,2.9534,2.9779,2.9779,2.9779,2.9779,2.9702,2.9702,2.9814,3.0143,3.0281,3.0482,3.057,3.0608,3.0846,3.1122,3.1311,3.1449,3.1373,3.1286,3.1524,3.1763,3.1851,3.1888,3.1951,3.219,2.2035,2.2471,2.25,2.2783,2.3115,2.3144,2.3144,2.3144,2.3144,2.3144,2.3144,2.3144,2.3144,2.3144,2.3144,2.3144,2.3144,2.3144,2.3144,2.3144,2.3144,2.3144,2.3144,2.3144,2.3144,2.3144,2.3144,2.3144,2.3144,2.3213,2.3232,2.3144,2.3174,2.3164,2.3164,2.3144,2.3193,2.3232,2.3262,2.3193,2.3174,2.3144,2.3144,2.3144,2.3144,2.3144,2.3144,2.3144,2.3144,2.3144,2.3144,2.3144,2.3144,2.3144,2.3144,2.3144,2.3144,2.3144,2.3144,2.3144,2.3144,2.3144,2.3144,2.3144,2.3144,2.3144,2.3144,2.3144,2.3464,2.3551,2.3714,2.38,2.3973,2.4059,2.4059,2.4059,2.4135,2.4382,2.4808,2.5147,2.5147,2.5389,2.6047,2.6367,2.6707,2.6871,2.7209,2.7464,2.773,2.8383,2.8736,2.9143,2.9275,2.9197,2.9275,2.9275,2.9546,2.9786,3.0136,3.0595,3.0809,3.0859,3.0859,3.1273,3.1712,3.1712,3.1763,3.1838,3.1989,3.2152,3.2378,3.2554,3.2591,3.2503,3.2591,2.1136,2.206,2.2383,2.2754,2.3115,2.3144,2.3125,2.3144,2.3144,2.3125,2.3135,2.3135,2.3144,2.3144,2.3144,2.3144,2.3144,2.3144,2.3144,2.3144,2.3144,2.3144,2.3047,2.296,2.296,2.3144,2.3144,2.296,2.3144,2.3144,2.3057,2.3047,2.3047,2.3047,2.296,2.296,2.3144,2.3144,2.3144,2.3144,2.3144,2.3144,2.3144,2.3144,2.3144,2.3144,2.3144,2.3144,2.3144,2.3144,2.3144,2.3144,2.3144,2.3144,2.3144,2.3144,2.3144,2.3144,2.3144,2.3144,2.3144,2.3144,2.3144,2.3144,2.3144,2.3144,2.3144,2.3144,2.3144,2.3144,2.3144,2.3144,2.3144,2.3144,2.3144,2.3144,2.3144,2.3387,2.3714,2.381,2.382,2.4317,2.4967,2.5378,2.5714,2.613,2.6554,2.6741,2.6764,2.7103,2.7056,2.7545,2.8199,2.8347,2.8486,2.8674,2.8851,2.9444,2.9856,3.0406,3.0973,3.1278,3.1422,3.1943,3.2277,3.2277,3.239,3.2654,3.2805,3.2767,3.2754,3.2842,3.2893,3.2842,3.2918,2.0136,2.0945,2.1874,2.2363,2.2598,2.2773,2.2764,2.2637,2.2773,2.2861,2.29,2.3037,2.3135,2.3135,2.3144,2.3144,2.3144,2.3144,2.3144,2.3144,2.3047,2.3144,2.296,2.2589,2.2217,2.2315,2.2315,2.2403,2.2775,2.3047,2.3047,2.2501,2.2589,2.2775,2.2501,2.2677,2.3047,2.3144,2.296,2.3047,2.3047,2.3047,2.3057,2.3144,2.3144,2.3144,2.3144,2.3144,2.3144,2.3144,2.3144,2.3144,2.3144,2.3144,2.3144,2.3144,2.3144,2.3144,2.3144,2.3144,2.3144,2.3144,2.3144,2.3144,2.3144,2.3144,2.3144,2.3144,2.3144,2.3144,2.3144,2.3144,2.3144,2.3144,2.3144,2.3144,2.3144,2.3222,2.3387,2.3387,2.3396,2.356,2.3973,2.4059,2.4392,2.4553,2.5062,2.5562,2.5636,2.5975,2.589,2.5964,2.6779,2.7392,2.7694,2.7858,2.801,2.8633,2.9472,3.0025,3.0495,3.1479,3.2104,3.2019,3.2324,3.2842,3.3018,3.2896,3.3081,3.2968,3.298,3.3043,3.3081,3.3106,3.3144,1.8878,1.957,2.079,2.1505,2.1758,2.2003,2.2068,2.2012,2.2275,2.248,2.2578,2.29,2.3057,2.3135,2.3144,2.3144,2.3144,2.3144,2.3144,2.3047,2.2775,2.2589,2.2129,2.1676,2.1302,2.1123,2.1123,2.1578,2.2129,2.2138,2.1774,2.14,2.1667,2.2129,2.1756,2.2129,2.2599,2.2325,2.2315,2.2589,2.2775,2.296,2.3047,2.3144,2.3144,2.3144,2.3144,2.3144,2.3144,2.3144,2.3144,2.3144,2.3144,2.3144,2.3144,2.3144,2.3144,2.3144,2.3144,2.3144,2.3144,2.3144,2.3144,2.3144,2.3144,2.3144,2.3144,2.3144,2.3144,2.3154,2.3154,2.3144,2.3144,2.3144,2.3144,2.3154,2.3154,2.3154,2.3154,2.3154,2.3164,2.3154,2.3262,2.3262,2.335,2.3495,2.3692,2.39,2.4404,2.5032,2.5305,2.5295,2.5612,2.6163,2.6753,2.7067,2.7145,2.7958,2.8769,2.9352,2.9992,3.0631,3.1116,3.1525,3.1834,3.2091,3.2513,3.2426,3.2698,3.2896,3.3081,3.3093,3.3156,3.3194,3.3257,1.7137,1.8313,1.8631,1.9406,2.0438,2.0633,2.1062,2.1821,2.1953,2.2178,2.2441,2.2578,2.2783,2.3047,2.3144,2.3144,2.3144,2.3144,2.3144,2.3047,2.2306,2.1845,2.1302,2.0584,2.0034,1.9852,1.9852,2.0042,2.0854,2.0593,2.0133,1.9951,2.0042,2.0223,2.0215,2.0764,2.1311,2.1132,2.1212,2.1391,2.1212,2.1676,2.296,2.3144,2.3144,2.3144,2.3144,2.3144,2.3144,2.3144,2.3047,2.3047,2.3144,2.3144,2.3144,2.3144,2.3144,2.3144,2.3144,2.3144,2.3144,2.3144,2.3144,2.3144,2.3144,2.3144,2.3144,2.3164,2.3174,2.3115,2.3115,2.3154,2.3144,2.3164,2.3174,2.3213,2.3223,2.3223,2.3223,2.3232,2.3242,2.3437,2.374,2.376,2.3818,2.3938,2.4055,2.4323,2.4392,2.4635,2.4847,2.4867,2.4857,2.4992,2.5595,2.6239,2.6576,2.7392,2.8077,2.8477,2.8969,2.9443,2.993,3.0519,3.0465,3.0563,3.0956,3.1589,3.1965,3.2152,3.2896,3.3106,3.3169,3.3282,3.3357]},{"header":{"parameterUnit":"m.s-1","parameterCategory":1,"la1":31.0,"la2":29.5877,"lo1":-88.7671,"lo2":-86.6584,"dy":0.0162,"dx":0.0185,"nx":115,"ny":88,"refTime":"2023-05-01T12:00:00:Z","depth":0,"parameterNumber":3,"parameterNumberName":"V-component_of_WINDS"},"data":[0.0,0.0,0.0,0.0,0.0,0.0,0.0,0.0,0.0,0.0,0.0,0.0,0.0,0.0,0.0,0.0,0.0,0.0,0.0,0.0,0.0,0.0,0.0,0.0,0.0,0.0,0.0,0.0,0.0,0.0,0.0,0.0,0.0,0.0,0.0,0.0,0.0,0.0,0.0,0.0,0.0,0.0,0.0,0.0,0.0,0.0,0.0,0.0,0.0,0.0,0.0,0.0,0.0,0.0,0.0,0.0,0.0,0.0,0.0,0.0,0.0,0.0,0.0,0.0,0.0,0.0,0.0,0.0,0.0,0.0,0.0,0.0,0.0,0.0,0.0,0.0,0.0,0.0,0.0,0.0,0.0,0.0,0.0,0.0,0.0,0.0,0.0,0.0,0.0,0.0,0.0,0.0,0.0,0.0,0.0,0.0,0.0,0.0,0.0,0.0,0.0,0.0,0.0,0.0,0.0,0.0,0.0,0.0,0.0,0.0,0.0,0.0,0.0,0.0,0.0,0.0,0.0,0.0,0.0,0.0,0.0,0.0,0.0,0.0,0.0,0.0,0.0,0.0,0.0,0.0,0.0,0.0,0.0,0.0,0.0,0.0,0.0,0.0,0.0,0.0,0.0,0.0,0.0,0.0,0.0,0.0,0.0,0.0,0.0,0.0,0.0,0.0,0.0,0.0,0.0,0.0,0.0,0.0,0.0,0.0,0.0,0.0,0.0,0.0,0.0,0.0,0.0,0.0,0.0,0.0,0.0,0.0,0.0,0.0,0.0,0.0,0.0,0.0,0.0,0.0,0.0,0.0,0.0,0.0,0.0,0.0,0.0,0.0,0.0,0.0,0.0,0.0,0.0,0.0,0.0,0.0,0.0,0.0,0.0,0.0,0.0,0.0,0.0,0.0,0.0,0.0,0.0,0.0,0.0,0.0,0.0,0.0,0.0,0.0,0.0,0.0,0.0,0.0,0.0,0.0,0.0,0.0,0.0,0.0,0.0,0.0,0.0,0.0,0.0,0.0,0.0,0.0,0.0,0.0,0.0,0.0,0.0,0.0,0.0,0.0,0.0,0.0,0.0,0.0,0.0,0.0,0.0,0.0,0.0,0.0,0.0,0.0,0.0,0.0,0.0,0.0,0.0,0.0,0.0,0.0,0.0,0.0,0.0,0.0,0.0,0.0,0.0,0.0,0.0,0.0,0.0,0.0,0.0,0.0,0.0,0.0,0.0,0.0,0.0,0.0,0.0,0.0,0.0,0.0,0.0,0.0,0.0,0.0,0.0,0.0,0.0,0.0,0.0,0.0,0.0,0.0,0.0,0.0,0.0,0.0,0.0,0.0,0.0,0.0,0.0,0.0,0.0,0.0,0.0,0.0,0.0,0.0,0.0,0.0,0.0,0.0,0.0,0.0,0.0,0.0,0.0,0.0,0.0,0.0,0.0,0.0,0.0,0.0,0.0,0.0,0.0,0.0,0.0,0.0,0.0,0.0,0.0,0.0,0.0,0.0,0.0,0.0,0.0,0.0,0.0,0.0,0.0,0.0,0.0,0.0,0.0,0.0,0.0,0.0,0.0,0.0,0.0,0.0,0.0,0.0,0.0,0.0,0.0,0.0,0.0,0.0,0.0,0.0,0.0,0.0,0.0,0.0,0.0,0.0,0.0,0.0,0.0,0.0,0.0,0.0,0.0,0.0,0.0,0.0,0.0,0.0,0.0,0.0,0.0,0.0,0.0,0.0,0.0,0.0,0.0,0.0,0.0,0.0,0.0,0.0,0.0,0.0,0.0,0.0,0.0,0.0,0.0,0.0,0.0,0.0,0.0,0.0,0.0,0.0,0.0,0.0,0.0,0.0,0.0,0.0,0.0,0.0,0.0,0.0,0.0,0.0,0.0,0.0,0.0,0.0,0.0,0.0,0.0,0.0,0.0,0.0,0.0,0.0,0.0,0.0,0.0,0.0,0.0,0.0,0.0,0.0,0.0,0.0,0.0,0.0,0.0,0.0,0.0,0.0,0.0,0.0,0.0,0.0,0.0,0.0,0.0,0.0,0.0,0.0,0.0,0.0,0.0,0.0,0.0,0.0,0.0,0.0,0.0,0.0,0.0,0.0,0.0,0.0,0.0,0.0,0.0,0.0,0.0,0.0,0.0,0.0,0.0,0.0,0.0,0.0,0.0,0.0,0.0,0.0,0.0,0.0,0.0,0.0,0.0,0.0,0.0,0.0,0.0,0.0,0.0,0.0,0.0,0.0,0.0,0.0,0.0,0.0,0.0,0.0,0.0,0.0,0.0,0.0,0.0,0.0,0.0,0.0,0.0,0.0,0.0,0.0,0.0,0.0,0.0,0.0,0.0,0.0,0.0,0.0,0.0,0.0,0.0,0.0,0.0,0.0,0.0,0.0,0.0,0.0,0.0,0.0,0.0,0.0,0.0,0.0,0.0,0.0,0.0,0.0,0.0,0.0,0.0,0.0,0.0,0.0,0.0,0.0,0.0,0.0,0.0,0.0,0.0,0.0,0.0,0.0,0.0,0.0,0.0,0.0,0.0,0.0,0.0,0.0,0.0,0.0,0.0,0.0,0.0,0.0,0.0,0.0,0.0,0.0,0.0,0.0,0.0,0.0,0.0,0.0,0.0,0.0,0.0,0.0,0.0,0.0,0.0,0.0,0.0,0.0,0.0,0.0,0.0,0.0,0.0,0.0,0.0,0.0,0.0,0.0,0.0,0.0,0.0,0.0,0.0,0.0,0.0,0.0,0.0,0.0,0.0,0.0,0.0,0.0,0.0,0.0,0.0,0.0,0.0,0.0,0.0,0.0,0.0,0.0,0.0,0.0,0.0,0.0,0.0,0.0,0.0,0.0,0.0,0.0,0.0,0.0,0.0,0.0,0.0,0.0,0.0,0.0,0.0,0.0,0.0,0.0,0.0,0.0,0.0,0.0,0.0,0.0,0.0,0.0,0.0,0.0,0.0,0.0,0.0,0.0,0.0,0.0,0.0,0.0,0.0,0.0,0.0,0.0,0.0,0.0,0.0,0.0,0.0,0.0,0.0,0.0,0.0,0.0,0.0,0.0,0.0,0.0,0.0,0.0,0.0,0.0,0.0,0.0,0.0,0.0,0.0,0.0,0.0,0.0,0.0,0.0,0.0,0.0,0.0,0.0,0.0,0.0,0.0,0.0,0.0,0.0,0.0,0.0,0.0,0.0,0.0,0.0,0.0,0.0,0.0,0.0,0.0,0.0,0.0,0.0,0.0,0.0,0.0,0.0,0.0,0.0,0.0,0.0,0.0,0.0,0.0,0.0,0.0,0.0,0.0,0.0,0.0,0.0,0.0,0.0,0.0,0.0,0.0,0.0,0.0,0.0,0.0,0.0,0.0,0.0,0.0,0.0,0.0,0.0,0.0,0.0,0.0,0.0,0.0,0.0,0.0,0.0,0.0,0.0,0.0,0.0,0.0,0.0,0.0,0.0,0.0,0.0,0.0,0.0,0.0,0.0,0.0,0.0,0.0,0.0,0.0,0.0,0.0,0.0,0.0,0.0,0.0,0.0,0.0,0.0,0.0,0.0,0.0,0.0,0.0,0.0,0.0,0.0,0.0,0.0,0.0,0.0,0.0,0.0,0.0,0.0,0.0,0.0,0.0,0.0,0.0,0.0,0.0,0.0,0.0,0.0,0.0,0.0,0.0,0.0,0.0,0.0,0.0,0.0,0.0,0.0,0.0,0.0,0.0,0.0,0.0,0.0,0.0,0.0,0.0,0.0,0.0,0.0,0.0,0.0,0.0,0.0,0.0,0.0,0.0,0.0,0.0,0.0,0.0,0.0,0.0,0.0,0.0,0.0,0.0,0.0,0.0,0.0,0.0,0.0,0.0,0.0,0.0,0.0,0.0,0.0,0.0,0.0,0.0,0.0,0.0,0.0,0.0,0.0,0.0,0.0,0.0,0.0,0.0,0.0,0.0,0.0,0.0,0.0,0.0,0.0,0.0,0.0,0.0,0.0,0.0,0.0,0.0,0.0,0.0,0.0,0.0,0.0,0.0,0.0,0.0,0.0,0.0,0.0,0.0,0.0,0.0,0.0,0.0,0.0,0.0,0.0,0.0,0.0,0.0,0.0,0.0,0.0,0.0,0.0,0.0,0.0,0.0,0.0,0.0,0.0,0.0,0.0,0.0,0.0,0.0,0.0,0.0,0.0,0.0,0.0,0.0,0.0,0.0,0.0,0.0,0.0,0.0,0.0,0.0,0.0,0.0,0.0,0.0,0.0,0.0,0.0,-0.9755,0.0,0.0,0.0,0.0,0.0,0.0,0.0,0.0,0.0,0.0,0.0,0.0,0.0,0.0,0.0,0.0,0.0,0.0,0.0,0.0,0.0,0.0,0.0,0.0,0.0,0.0,0.0,0.0,0.0,0.0,0.0,0.0,0.0,0.0,0.0,0.0,0.0,0.0,0.0,0.0,0.0,0.0,0.0,0.0,0.0,0.0,0.0,0.0,0.0,0.0,0.0,0.0,0.0,0.0,0.0,0.0,0.0,0.0,0.0,0.0,0.0,0.0,0.0,0.0,0.0,0.0,0.0,0.0,0.0,0.0,0.0,0.0,0.0,0.0,0.0,0.0,0.0,0.0,0.0,0.0,0.0,0.0,0.0,0.0,0.0,0.0,0.0,0.0,0.0,0.0,0.0,0.0,0.0,0.0,0.0,0.0,0.0,0.0,0.0,0.0,0.0,0.0,0.0,0.0,0.0,0.0,0.0,0.0,0.0,0.0,-0.9046,-0.9571,-0.8609,-0.8549,-0.9595,0.0,0.0,0.0,0.0,0.0,0.0,0.0,0.0,0.0,0.0,0.0,0.0,0.0,0.0,0.0,0.0,0.0,0.0,0.0,0.0,0.0,0.0,0.0,0.0,0.0,0.0,0.0,0.0,0.0,0.0,0.0,0.0,0.0,0.0,0.0,0.0,0.0,0.0,0.0,0.0,0.0,0.0,0.0,0.0,0.0,0.0,0.0,0.0,0.0,0.0,0.0,0.0,0.0,0.0,0.0,0.0,0.0,0.0,0.0,0.0,0.0,0.0,0.0,0.0,0.0,0.0,0.0,0.0,0.0,0.0,0.0,0.0,0.0,0.0,0.0,0.0,0.0,0.0,0.0,0.0,0.0,0.0,0.0,0.0,0.0,0.0,0.0,0.0,0.0,0.0,0.0,0.0,0.0,0.0,0.0,0.0,0.0,0.0,0.0,0.0,0.0,0.0,0.0,0.0,0.0,0.0,0.0,0.0,0.0,0.0,0.0,0.0,-0.8466,-0.8451,-0.9688,0.0,0.0,0.0,0.0,0.0,0.0,0.0,0.0,0.0,0.0,0.0,0.0,0.0,0.0,0.0,0.0,0.0,0.0,0.0,0.0,0.0,0.0,0.0,0.0,0.0,0.0,0.0,0.0,0.0,0.0,0.0,0.0,0.0,0.0,0.0,0.0,0.0,0.0,0.0,0.0,0.0,0.0,0.0,0.0,0.0,0.0,0.0,0.0,0.0,0.0,0.0,0.0,0.0,0.0,0.0,0.0,0.0,0.0,0.0,0.0,0.0,0.0,0.0,0.0,0.0,0.0,0.0,0.0,0.0,0.0,0.0,0.0,0.0,0.0,0.0,0.0,0.0,0.0,0.0,0.0,0.0,0.0,0.0,0.0,0.0,0.0,0.0,0.0,0.0,0.0,0.0,0.0,0.0,0.0,0.0,0.0,0.0,0.0,0.0,0.0,0.0,0.0,0.0,0.0,0.0,0.0,0.0,0.0,0.0,0.0,-0.955,-1.001,-0.9881,0.0,-1.0721,0.0,0.0,0.0,0.0,0.0,0.0,0.0,0.0,0.0,0.0,0.0,0.0,0.0,0.0,0.0,0.0,0.0,0.0,0.0,0.0,0.0,0.0,0.0,0.0,0.0,0.0,0.0,0.0,0.0,0.0,0.0,0.0,0.0,0.0,0.0,0.0,0.0,0.0,0.0,0.0,0.0,0.0,0.0,0.0,0.0,0.0,0.0,0.0,0.0,0.0,0.0,0.0,0.0,0.0,0.0,0.0,0.0,0.0,0.0,0.0,0.0,0.0,0.0,0.0,0.0,0.0,0.0,0.0,0.0,0.0,0.0,0.0,0.0,0.0,0.0,0.0,0.0,0.0,0.0,0.0,0.0,0.0,0.0,0.0,0.0,0.0,0.0,0.0,0.0,0.0,0.0,0.0,0.0,0.0,0.0,0.0,0.0,0.0,0.0,0.0,0.0,0.0,0.0,0.0,0.0,0.0,0.0,0.0,0.0,0.0,-0.9094,-0.9787,-0.9809,-0.9799,0.0,0.0,0.0,0.0,0.0,0.0,0.0,0.0,0.0,0.0,0.0,0.0,0.0,0.0,0.0,0.0,0.0,0.0,0.0,0.0,0.0,0.0,0.0,0.0,0.0,0.0,0.0,0.0,0.0,0.0,0.0,0.0,0.0,0.0,0.0,0.0,0.0,0.0,0.0,0.0,0.0,0.0,0.0,0.0,0.0,0.0,0.0,0.0,0.0,0.0,0.0,0.0,0.0,0.0,0.0,0.0,0.0,0.0,0.0,0.0,0.0,0.0,0.0,0.0,0.0,0.0,0.0,0.0,0.0,0.0,0.0,0.0,0.0,0.0,0.0,0.0,0.0,0.0,0.0,0.0,0.0,0.0,0.0,0.0,0.0,0.0,0.0,0.0,0.0,0.0,0.0,0.0,0.0,0.0,0.0,0.0,0.0,0.0,0.0,0.0,0.0,0.0,0.0,0.0,0.0,0.0,0.0,0.0,0.0,0.0,-0.8874,-0.9015,-0.9709,-0.932,-0.9055,-0.9067,0.0,0.0,0.0,0.0,0.0,0.0,0.0,0.0,0.0,0.0,0.0,0.0,0.0,0.0,0.0,0.0,0.0,0.0,0.0,0.0,0.0,0.0,0.0,0.0,0.0,0.0,0.0,0.0,0.0,0.0,0.0,0.0,0.0,0.0,0.0,0.0,0.0,0.0,0.0,0.0,0.0,0.0,0.0,0.0,0.0,0.0,0.0,0.0,0.0,0.0,0.0,0.0,0.0,0.0,0.0,0.0,0.0,0.0,0.0,0.0,0.0,0.0,0.0,0.0,0.0,0.0,0.0,0.0,0.0,0.0,0.0,0.0,0.0,0.0,0.0,0.0,0.0,0.0,0.0,0.0,0.0,0.0,0.0,0.0,0.0,0.0,0.0,0.0,0.0,0.0,0.0,0.0,0.0,0.0,0.0,0.0,0.0,0.0,0.0,0.0,0.0,0.0,0.0,0.0,0.0,0.0,0.0,0.0,-1.0578,-0.9908,-0.9756,-1.0194,-0.8643,-0.8185,0.0,0.0,0.0,0.0,0.0,0.0,0.0,0.0,0.0,0.0,0.0,0.0,0.0,0.0,0.0,0.0,0.0,0.0,0.0,0.0,0.0,0.0,0.0,0.0,0.0,0.0,0.0,0.0,0.0,0.0,0.0,0.0,0.0,0.0,0.0,0.0,0.0,0.0,0.0,0.0,0.0,0.0,0.0,0.0,0.0,0.0,0.0,0.0,0.0,0.0,0.0,0.0,0.0,0.0,0.0,0.0,0.0,0.0,0.0,0.0,0.0,0.0,0.0,0.0,0.0,0.0,0.0,0.0,0.0,0.0,0.0,0.0,0.0,0.0,0.0,0.0,0.0,0.0,0.0,0.0,0.0,0.0,0.0,0.0,0.0,0.0,0.0,0.0,0.0,0.0,0.0,0.0,0.0,0.0,0.0,0.0,0.0,0.0,0.0,0.0,0.0,0.0,0.0,0.0,0.0,0.0,0.0,0.0,0.0,-0.8798,-0.8824,-0.8902,-0.9053,-0.847,-0.8427,0.0,0.0,0.0,0.0,0.0,0.0,0.0,0.0,0.0,0.0,0.0,0.0,0.0,0.0,0.0,0.0,0.0,0.0,0.0,0.0,0.0,0.0,0.0,0.0,0.0,0.0,0.0,0.0,0.0,0.0,0.0,0.0,0.0,0.0,0.0,0.0,0.0,0.0,0.0,0.0,0.0,0.0,0.0,0.0,0.0,0.0,0.0,0.0,0.0,0.0,0.0,0.0,0.0,0.0,0.0,0.0,0.0,0.0,0.0,0.0,0.0,0.0,0.0,0.0,0.0,0.0,0.0,0.0,0.0,0.0,0.0,0.0,0.0,0.0,0.0,0.0,0.0,0.0,0.0,0.0,0.0,0.0,0.0,0.0,0.0,0.0,0.0,0.0,0.0,0.0,0.0,0.0,0.0,0.0,0.0,0.0,0.0,0.0,0.0,0.0,0.0,0.0,0.0,0.0,0.0,0.0,0.0,0.0,0.0,-0.7919,0.0,-0.8248,-0.8398,-0.8094,-0.82,0.0,0.0,0.0,0.0,0.0,0.0,0.0,0.0,0.0,0.0,0.0,0.0,0.0,0.0,0.0,0.0,0.0,0.0,0.0,0.0,0.0,0.0,0.0,0.0,0.0,0.0,0.0,0.0,0.0,0.0,0.0,0.0,0.0,0.0,0.0,0.0,0.0,0.0,0.0,0.0,0.0,0.0,0.0,0.0,0.0,0.0,0.0,0.0,0.0,0.0,0.0,0.0,0.0,0.0,0.0,0.0,0.0,0.0,0.0,0.0,0.0,0.0,0.0,0.0,0.0,0.0,0.0,0.0,0.0,0.0,0.0,0.0,0.0,0.0,0.0,0.0,0.0,0.0,0.0,0.0,0.0,0.0,0.0,0.0,0.0,0.0,0.0,0.0,0.0,0.0,0.0,0.0,0.0,0.0,0.0,0.0,0.0,0.0,0.0,0.0,0.0,0.0,0.0,0.0,0.0,0.0,0.0,0.0,-0.7909,-0.8337,-0.7983,-0.7983,-0.8366,-0.7458,-0.741,0.0,0.0,0.0,0.0,0.0,0.0,0.0,0.0,0.0,0.0,0.0,0.0,0.0,0.0,0.0,0.0,0.0,0.0,0.0,0.0,0.0,0.0,0.0,0.0,0.0,0.0,0.0,0.0,0.0,0.0,0.0,0.0,0.0,0.0,0.0,0.0,0.0,0.0,0.0,0.0,0.0,0.0,0.0,0.0,0.0,0.0,0.0,0.0,0.0,0.0,0.0,0.0,0.0,0.0,0.0,0.0,0.0,0.0,0.0,0.0,0.0,0.0,0.0,0.0,0.0,0.0,0.0,0.0,0.0,0.0,0.0,0.0,0.0,0.0,0.0,0.0,0.0,0.0,0.0,0.0,0.0,0.0,0.0,0.0,0.0,0.0,0.0,0.0,0.0,0.0,0.0,0.0,0.0,0.0,0.0,0.0,0.0,0.0,0.0,0.0,0.0,0.0,0.0,0.0,0.0,0.0,0.0,0.0,0.0,-0.79,-0.7342,-0.7533,-0.8449,-0.7372,-0.7585,0.0,0.0,0.0,0.0,0.0,0.0,0.0,0.0,0.0,0.0,0.0,0.0,0.0,0.0,0.0,0.0,0.0,0.0,0.0,0.0,0.0,0.0,0.0,0.0,0.0,0.0,0.0,0.0,0.0,0.0,0.0,0.0,0.0,0.0,0.0,0.0,0.0,0.0,0.0,0.0,0.0,0.0,0.0,0.0,0.0,0.0,0.0,0.0,0.0,0.0,0.0,0.0,0.0,0.0,0.0,0.0,0.0,0.0,0.0,0.0,0.0,0.0,0.0,0.0,0.0,0.0,0.0,0.0,0.0,0.0,0.0,0.0,0.0,0.0,0.0,0.0,0.0,0.0,0.0,0.0,0.0,0.0,0.0,0.0,0.0,0.0,0.0,0.0,0.0,0.0,0.0,0.0,0.0,0.0,0.0,0.0,0.0,0.0,0.0,0.0,0.0,0.0,0.0,0.0,0.0,0.0,0.0,0.0,0.0,-0.816,-0.7485,-0.7432,-0.8104,-0.7723,-0.8104,-0.9352,0.0,0.0,0.0,0.0,0.0,0.0,0.0,0.0,0.0,0.0,0.0,0.0,0.0,0.0,0.0,0.0,0.0,0.0,0.0,0.0,0.0,0.0,0.0,0.0,0.0,0.0,0.0,0.0,0.0,0.0,0.0,0.0,0.0,0.0,0.0,0.0,0.0,0.0,0.0,0.0,0.0,0.0,0.0,0.0,0.0,0.0,0.0,0.0,0.0,0.0,0.0,0.0,0.0,0.0,0.0,0.0,0.0,0.0,0.0,0.0,0.0,0.0,0.0,0.0,0.0,0.0,0.0,0.0,0.0,0.0,0.0,0.0,0.0,0.0,0.0,0.0,0.0,0.0,0.0,0.0,0.0,0.0,0.0,0.0,0.0,0.0,0.0,0.0,0.0,0.0,0.0,0.0,0.0,0.0,0.0,0.0,0.0,0.0,0.0,0.0,0.0,0.0,0.0,0.0,0.0,0.0,0.0,0.0,-0.9043,-0.8361,-0.7851,-0.7534,-0.8468,-0.8893,0.0,0.0,0.0,0.0,0.0,0.0,0.0,0.0,0.0,0.0,0.0,0.0,0.0,0.0,0.0,0.0,0.0,0.0,0.0,0.0,0.0,0.0,0.0,0.0,0.0,0.0,0.0,0.0,0.0,0.0,0.0,0.0,0.0,0.0,0.0,0.0,0.0,0.0,0.0,0.0,0.0,0.0,0.0,0.0,0.0,0.0,0.0,0.0,0.0,0.0,0.0,0.0,0.0,0.0,0.0,0.0,0.0,0.0,0.0,0.0,0.0,0.0,0.0,0.0,0.0,0.0,0.0,0.0,0.0,0.0,0.0,0.0,0.0,0.0,0.0,0.0,0.0,0.0,0.0,0.0,0.0,0.0,0.0,0.0,0.0,0.0,0.0,0.0,0.0,0.0,0.0,0.0,0.0,0.0,0.0,0.0,0.0,0.0,0.0,0.0,0.0,0.0,0.0,0.0,0.0,0.0,0.0,0.0,0.0,-0.9485,-1.0194,-1.0326,-0.9751,-0.9663,-0.9917,0.0,0.0,0.0,0.0,0.0,0.0,0.0,0.0,0.0,0.0,0.0,0.0,0.0,0.0,0.0,0.0,0.0,0.0,0.0,0.0,0.0,0.0,0.0,0.0,0.0,0.0,0.0,0.0,0.0,0.0,0.0,0.0,0.0,0.0,0.0,0.0,0.0,0.0,0.0,0.0,0.0,0.0,0.0,0.0,0.0,0.0,0.0,0.0,0.0,0.0,0.0,0.0,0.0,0.0,0.0,0.0,0.0,0.0,0.0,0.0,0.0,0.0,0.0,0.0,0.0,0.0,0.0,0.0,0.0,0.0,0.0,0.0,0.0,0.0,0.0,0.0,0.0,0.0,0.0,0.0,0.0,0.0,0.0,0.0,0.0,0.0,0.0,0.0,0.0,0.0,0.0,0.0,0.0,0.0,0.0,0.0,0.0,0.0,0.0,0.0,0.0,0.0,0.0,0.0,0.0,0.0,0.0,0.0,-1.0342,-0.9932,-1.1357,-1.1972,-1.1593,-1.1322,-1.1044,0.0,0.0,0.0,0.0,0.0,0.0,0.0,0.0,0.0,0.0,0.0,0.0,0.0,0.0,0.0,0.0,0.0,0.0,0.0,0.0,0.0,0.0,0.0,0.0,0.0,0.0,0.0,0.0,0.0,0.0,0.0,0.0,0.0,0.0,0.0,0.0,0.0,0.0,0.0,0.0,0.0,0.0,0.0,0.0,0.0,0.0,0.0,0.0,0.0,0.0,0.0,0.0,0.0,0.0,0.0,0.0,0.0,0.0,0.0,0.0,0.0,0.0,0.0,0.0,0.0,0.0,0.0,0.0,0.0,0.0,0.0,0.0,0.0,0.0,0.0,0.0,0.0,0.0,0.0,0.0,0.0,0.0,0.0,0.0,0.0,0.0,0.0,0.0,0.0,0.0,0.0,0.0,0.0,0.0,0.0,0.0,0.0,0.0,0.0,0.0,0.0,0.0,0.0,0.0,0.0,0.0,0.0,0.0,-1.0732,-1.042,-1.2012,-1.2881,-1.2881,-1.2832,-1.2192,0.0,0.0,0.0,0.0,0.0,0.0,0.0,0.0,0.0,0.0,0.0,0.0,0.0,0.0,0.0,0.0,0.0,0.0,0.0,0.0,0.0,0.0,0.0,0.0,0.0,0.0,0.0,0.0,0.0,0.0,0.0,0.0,0.0,0.0,0.0,0.0,0.0,0.0,0.0,0.0,0.0,0.0,0.0,0.0,0.0,0.0,0.0,0.0,0.0,0.0,0.0,0.0,0.0,0.0,0.0,0.0,0.0,0.0,0.0,0.0,0.0,0.0,0.0,0.0,0.0,0.0,0.0,0.0,0.0,0.0,0.0,0.0,0.0,0.0,0.0,0.0,0.0,0.0,0.0,0.0,0.0,0.0,0.0,0.0,0.0,0.0,0.0,0.0,0.0,0.0,0.0,0.0,0.0,0.0,0.0,0.0,0.0,0.0,0.0,0.0,0.0,0.0,0.0,0.0,0.0,0.0,0.0,0.0,-1.0869,-1.0811,-1.2158,-1.2891,-1.2891,-1.2549,-1.2355,0.0,0.0,0.0,0.0,0.0,0.0,0.0,0.0,0.0,0.0,0.0,0.0,0.0,0.0,0.0,0.0,0.0,0.0,0.0,0.0,0.0,0.0,0.0,0.0,0.0,0.0,0.0,0.0,0.0,0.0,0.0,0.0,0.0,0.0,0.0,0.0,0.0,0.0,0.0,0.0,0.0,0.0,0.0,0.0,0.0,0.0,0.0,0.0,-1.2897,0.0,0.0,0.0,0.0,0.0,0.0,0.0,0.0,0.0,0.0,0.0,0.0,0.0,0.0,0.0,0.0,0.0,0.0,0.0,0.0,0.0,0.0,0.0,0.0,0.0,0.0,0.0,0.0,0.0,0.0,0.0,0.0,0.0,0.0,0.0,0.0,0.0,0.0,0.0,0.0,0.0,0.0,0.0,0.0,0.0,0.0,0.0,0.0,0.0,0.0,0.0,0.0,0.0,0.0,0.0,0.0,0.0,0.0,0.0,-1.1016,-1.124,-1.2305,-1.2891,-1.2871,-1.2461,-1.2385,0.0,0.0,0.0,0.0,0.0,0.0,0.0,0.0,0.0,0.0,0.0,0.0,0.0,0.0,0.0,0.0,0.0,0.0,0.0,0.0,0.0,0.0,0.0,0.0,0.0,0.0,0.0,0.0,0.0,0.0,0.0,0.0,0.0,0.0,0.0,0.0,0.0,0.0,0.0,0.0,0.0,0.0,0.0,0.0,0.0,0.0,0.0,0.0,0.0,0.0,0.0,0.0,0.0,0.0,0.0,0.0,0.0,0.0,0.0,0.0,0.0,0.0,0.0,0.0,0.0,0.0,0.0,0.0,0.0,0.0,0.0,0.0,0.0,0.0,0.0,0.0,0.0,0.0,0.0,0.0,0.0,0.0,0.0,0.0,0.0,0.0,0.0,0.0,0.0,0.0,0.0,0.0,0.0,0.0,0.0,0.0,0.0,0.0,0.0,0.0,0.0,0.0,0.0,0.0,0.0,0.0,0.0,-1.0843,-1.1266,-1.1812,-1.25,-1.2891,-1.292,-1.2461,-1.2441,-1.2861,0.0,0.0,0.0,0.0,0.0,0.0,0.0,0.0,0.0,0.0,0.0,0.0,0.0,0.0,0.0,0.0,0.0,0.0,0.0,0.0,0.0,0.0,0.0,0.0,0.0,0.0,0.0,0.0,0.0,0.0,0.0,0.0,0.0,0.0,0.0,0.0,0.0,0.0,-1.0817,-1.169,0.0,0.0,0.0,0.0,0.0,0.0,0.0,0.0,-1.2793,0.0,0.0,0.0,0.0,0.0,0.0,0.0,0.0,0.0,0.0,0.0,0.0,0.0,0.0,0.0,0.0,0.0,0.0,0.0,0.0,0.0,0.0,0.0,0.0,0.0,0.0,0.0,0.0,0.0,0.0,0.0,0.0,0.0,0.0,0.0,0.0,0.0,0.0,0.0,0.0,0.0,0.0,0.0,0.0,0.0,0.0,0.0,0.0,0.0,0.0,0.0,0.0,0.0,0.0,0.0,0.0,-1.1371,-1.1511,-1.1905,-1.2675,-1.2803,-1.2891,-1.2871,-1.2461,-1.2432,-1.2842,0.0,0.0,0.0,0.0,0.0,0.0,0.0,0.0,0.0,0.0,0.0,0.0,0.0,0.0,0.0,0.0,0.0,0.0,0.0,0.0,0.0,0.0,0.0,0.0,0.0,0.0,0.0,0.0,0.0,0.0,0.0,0.0,0.0,0.0,0.0,0.0,0.0,0.0,0.0,-1.1664,-1.1925,0.0,0.0,0.0,0.0,0.0,0.0,0.0,0.0,-1.2698,0.0,0.0,0.0,0.0,0.0,0.0,0.0,0.0,0.0,0.0,0.0,0.0,0.0,0.0,0.0,0.0,0.0,0.0,0.0,0.0,0.0,0.0,0.0,0.0,0.0,0.0,0.0,0.0,0.0,0.0,0.0,0.0,0.0,0.0,0.0,0.0,0.0,0.0,0.0,0.0,0.0,0.0,0.0,0.0,0.0,0.0,0.0,0.0,0.0,0.0,0.0,0.0,0.0,0.0,0.0,-1.1571,-1.1646,-1.2043,-1.289,-1.2891,-1.2891,-1.2871,-1.2461,-1.2441,0.0,0.0,0.0,0.0,0.0,0.0,0.0,0.0,0.0,0.0,0.0,0.0,0.0,0.0,0.0,0.0,0.0,0.0,0.0,0.0,0.0,0.0,0.0,0.0,0.0,0.0,0.0,0.0,0.0,0.0,0.0,0.0,0.0,0.0,0.0,0.0,0.0,0.0,0.0,0.0,-1.2051,-1.2294,-1.2817,0.0,0.0,0.0,0.0,0.0,0.0,-1.2888,-1.2902,0.0,0.0,0.0,0.0,0.0,0.0,0.0,0.0,0.0,0.0,0.0,0.0,0.0,0.0,0.0,0.0,0.0,0.0,0.0,0.0,0.0,0.0,0.0,0.0,0.0,0.0,0.0,0.0,0.0,0.0,0.0,0.0,0.0,0.0,0.0,0.0,0.0,0.0,0.0,0.0,0.0,0.0,0.0,0.0,0.0,0.0,0.0,0.0,0.0,0.0,0.0,0.0,0.0,0.0,0.0,-1.1697,-1.1806,-1.2217,-1.289,-1.2891,-1.2891,-1.2871,-1.2363,-1.2334,0.0,0.0,0.0,0.0,0.0,0.0,0.0,0.0,0.0,0.0,0.0,0.0,0.0,0.0,0.0,0.0,0.0,0.0,0.0,0.0,0.0,0.0,0.0,0.0,0.0,0.0,0.0,0.0,0.0,0.0,0.0,0.0,0.0,0.0,0.0,0.0,0.0,0.0,0.0,0.0,0.0,-1.2889,-1.363,-1.3474,0.0,0.0,0.0,0.0,-1.2685,-1.28,0.0,0.0,0.0,0.0,0.0,0.0,0.0,0.0,0.0,0.0,0.0,0.0,0.0,0.0,0.0,0.0,0.0,0.0,0.0,0.0,0.0,0.0,0.0,0.0,0.0,0.0,0.0,0.0,0.0,0.0,0.0,0.0,0.0,0.0,0.0,0.0,0.0,0.0,0.0,0.0,0.0,0.0,0.0,0.0,0.0,0.0,0.0,0.0,0.0,0.0,0.0,0.0,0.0,0.0,0.0,0.0,-1.2234,-1.2627,-1.2863,-1.29,-1.2891,-1.2891,-1.2871,-1.2116,-1.2077,0.0,0.0,0.0,0.0,0.0,0.0,0.0,0.0,0.0,0.0,0.0,0.0,0.0,0.0,0.0,0.0,0.0,0.0,0.0,0.0,0.0,0.0,0.0,0.0,0.0,0.0,0.0,0.0,0.0,0.0,0.0,0.0,0.0,0.0,0.0,0.0,0.0,0.0,0.0,0.0,0.0,-1.3027,-1.2569,-1.2924,-1.3018,0.0,0.0,-1.2918,-1.2929,-1.2599,0.0,0.0,0.0,0.0,0.0,0.0,0.0,0.0,0.0,0.0,0.0,0.0,0.0,0.0,0.0,0.0,0.0,0.0,0.0,0.0,0.0,0.0,0.0,0.0,0.0,0.0,0.0,0.0,0.0,0.0,0.0,0.0,0.0,0.0,0.0,0.0,0.0,0.0,0.0,0.0,0.0,0.0,0.0,0.0,0.0,0.0,0.0,0.0,0.0,0.0,0.0,0.0,0.0,0.0,0.0,-1.2573,-1.2292,-1.2679,-1.2962,-1.2929,-1.2891,-1.2891,-1.2881,-1.2266,-1.2236,0.0,0.0,0.0,0.0,0.0,0.0,0.0,0.0,0.0,0.0,0.0,0.0,0.0,0.0,0.0,0.0,0.0,0.0,0.0,0.0,0.0,0.0,0.0,0.0,0.0,0.0,0.0,0.0,0.0,0.0,0.0,0.0,0.0,0.0,0.0,0.0,0.0,0.0,0.0,0.0,0.0,0.0,-1.2739,-1.2958,0.0,0.0,0.0,-1.2428,-1.2222,0.0,0.0,0.0,0.0,0.0,0.0,0.0,0.0,0.0,0.0,0.0,0.0,0.0,0.0,0.0,0.0,0.0,0.0,0.0,0.0,0.0,0.0,0.0,0.0,0.0,0.0,0.0,0.0,0.0,0.0,0.0,0.0,0.0,0.0,0.0,0.0,0.0,0.0,0.0,0.0,0.0,0.0,0.0,0.0,0.0,0.0,0.0,0.0,0.0,0.0,0.0,0.0,0.0,0.0,0.0,0.0,0.0,-1.2411,-1.2752,-1.2891,-1.2891,-1.2891,-1.2891,-1.2881,-1.2461,0.0,0.0,0.0,0.0,0.0,0.0,0.0,0.0,0.0,0.0,0.0,0.0,0.0,0.0,0.0,0.0,0.0,0.0,0.0,0.0,0.0,0.0,0.0,0.0,0.0,0.0,0.0,-1.1808,0.0,0.0,0.0,0.0,0.0,0.0,0.0,0.0,0.0,0.0,0.0,0.0,0.0,0.0,-1.3225,-1.3008,-1.3171,-1.3254,0.0,0.0,-1.2275,-1.1988,-1.2572,-1.2994,0.0,0.0,0.0,0.0,0.0,0.0,0.0,0.0,0.0,0.0,0.0,0.0,0.0,0.0,0.0,0.0,0.0,0.0,0.0,0.0,0.0,0.0,0.0,0.0,0.0,0.0,0.0,0.0,0.0,0.0,0.0,0.0,0.0,0.0,0.0,0.0,0.0,0.0,0.0,0.0,0.0,0.0,0.0,0.0,0.0,0.0,0.0,0.0,0.0,0.0,0.0,0.0,0.0,0.0,0.0,-1.2948,-1.2932,-1.2891,-1.2891,-1.2891,-1.2891,-1.2871,-1.2414,-1.2441,0.0,0.0,0.0,0.0,0.0,0.0,0.0,0.0,0.0,0.0,0.0,0.0,0.0,0.0,0.0,0.0,0.0,0.0,0.0,0.0,0.0,0.0,0.0,0.0,0.0,0.0,0.0,0.0,0.0,0.0,0.0,0.0,0.0,0.0,0.0,0.0,0.0,0.0,0.0,0.0,0.0,-1.3619,-1.3078,-1.3432,-1.3548,0.0,0.0,-1.2832,-1.2793,-1.3321,-1.3721,-1.369,0.0,0.0,0.0,0.0,0.0,0.0,0.0,0.0,0.0,0.0,0.0,0.0,0.0,0.0,0.0,0.0,0.0,0.0,0.0,0.0,0.0,0.0,0.0,0.0,0.0,0.0,0.0,0.0,0.0,0.0,0.0,0.0,0.0,0.0,0.0,0.0,0.0,0.0,0.0,0.0,0.0,0.0,0.0,0.0,0.0,0.0,0.0,0.0,0.0,0.0,0.0,0.0,0.0,-1.329,-1.2939,-1.2928,-1.2891,-1.2891,-1.2891,-1.2891,-1.2891,-1.2715,-1.2705,0.0,0.0,0.0,0.0,0.0,0.0,0.0,0.0,0.0,0.0,0.0,0.0,0.0,0.0,0.0,0.0,0.0,0.0,0.0,0.0,0.0,0.0,0.0,0.0,0.0,0.0,0.0,0.0,-1.1211,-1.1494,-1.1924,0.0,0.0,0.0,0.0,0.0,0.0,0.0,0.0,0.0,0.0,-1.3371,-1.3464,-1.3344,0.0,0.0,-1.3152,-1.2891,-1.2891,-1.3065,-1.3238,-1.3238,-1.3742,0.0,0.0,0.0,0.0,0.0,0.0,0.0,0.0,0.0,0.0,0.0,0.0,0.0,0.0,0.0,0.0,0.0,0.0,0.0,0.0,0.0,0.0,0.0,0.0,0.0,0.0,0.0,0.0,0.0,0.0,0.0,0.0,0.0,0.0,0.0,0.0,0.0,0.0,0.0,0.0,0.0,0.0,0.0,0.0,0.0,0.0,0.0,0.0,0.0,0.0,0.0,0.0,-1.3324,-1.2939,-1.2891,-1.2891,-1.2891,-1.2891,-1.2891,-1.2891,-1.2891,-1.2891,0.0,0.0,0.0,0.0,0.0,0.0,0.0,0.0,0.0,0.0,0.0,0.0,0.0,0.0,0.0,0.0,0.0,0.0,0.0,0.0,0.0,0.0,0.0,0.0,0.0,0.0,0.0,0.0,-1.1449,-1.1832,-1.2363,0.0,0.0,0.0,0.0,0.0,0.0,0.0,0.0,0.0,0.0,-1.3145,-1.3726,-1.3286,-1.3163,-1.3861,-1.3367,-1.292,-1.3057,-1.3144,-1.3113,-1.2929,0.0,0.0,0.0,0.0,0.0,0.0,0.0,0.0,0.0,0.0,0.0,0.0,0.0,0.0,0.0,0.0,0.0,0.0,0.0,0.0,0.0,0.0,0.0,0.0,0.0,0.0,0.0,0.0,0.0,0.0,-1.1626,0.0,0.0,0.0,0.0,0.0,0.0,0.0,0.0,0.0,0.0,0.0,0.0,0.0,0.0,0.0,0.0,0.0,0.0,0.0,0.0,0.0,0.0,-1.2929,-1.2891,-1.2891,-1.2891,-1.2891,-1.2891,-1.2891,-1.2891,-1.2891,-1.2891,-1.2891,0.0,0.0,0.0,0.0,0.0,0.0,0.0,0.0,0.0,0.0,0.0,0.0,0.0,0.0,0.0,0.0,0.0,0.0,0.0,0.0,0.0,0.0,0.0,0.0,0.0,0.0,-1.0469,-1.1116,-1.1959,0.0,0.0,0.0,0.0,0.0,0.0,0.0,0.0,0.0,0.0,-1.3276,-1.3142,-1.3732,-1.3286,-1.3292,-1.4247,-1.3549,-1.3067,-1.3459,-1.3646,-1.36,0.0,0.0,0.0,0.0,0.0,0.0,0.0,0.0,0.0,0.0,0.0,0.0,0.0,0.0,0.0,0.0,0.0,0.0,0.0,0.0,0.0,0.0,0.0,0.0,0.0,0.0,0.0,-1.2168,-1.2402,0.0,0.0,0.0,0.0,0.0,0.0,0.0,0.0,0.0,0.0,0.0,-1.2891,-1.2891,0.0,0.0,0.0,0.0,0.0,0.0,0.0,0.0,0.0,0.0,0.0,0.0,-1.2891,-1.2891,-1.2891,-1.2891,-1.2891,-1.2891,-1.2891,-1.2891,-1.2891,-1.2891,-1.2891,0.0,0.0,0.0,0.0,0.0,0.0,0.0,0.0,0.0,0.0,0.0,0.0,0.0,0.0,0.0,0.0,0.0,0.0,0.0,0.0,0.0,0.0,0.0,0.0,0.0,-1.1621,0.0,0.0,0.0,0.0,0.0,0.0,0.0,0.0,0.0,0.0,0.0,-1.419,-1.4387,-1.3873,-1.3732,-1.4329,-1.4247,-1.4348,0.0,0.0,0.0,0.0,0.0,0.0,0.0,0.0,0.0,0.0,0.0,0.0,0.0,0.0,-1.5493,-1.4309,-1.3956,-1.4003,-1.4617,0.0,0.0,0.0,0.0,0.0,0.0,0.0,0.0,0.0,0.0,0.0,0.0,0.0,0.0,-1.2617,0.0,-1.2578,0.0,0.0,0.0,0.0,0.0,0.0,0.0,0.0,-1.3037,-1.3096,-1.3096,-1.3096,-1.3096,0.0,-1.2949,-1.2891,0.0,0.0,0.0,0.0,0.0,0.0,0.0,0.0,-1.2891,-1.2891,-1.2891,-1.2891,-1.2891,-1.2891,-1.2891,-1.2891,-1.2891,-1.2891,-1.2891,-1.2891,-1.2891,0.0,0.0,0.0,0.0,0.0,0.0,0.0,0.0,0.0,0.0,0.0,0.0,0.0,0.0,0.0,0.0,0.0,0.0,0.0,0.0,0.0,0.0,0.0,-1.1841,0.0,0.0,0.0,0.0,0.0,0.0,0.0,0.0,0.0,-1.4444,-1.4097,-1.3956,-1.4329,-1.405,-1.4014,-1.4617,0.0,0.0,0.0,0.0,0.0,0.0,0.0,-1.4475,-1.565,-1.5998,-1.6147,-1.6169,-1.6041,-1.5794,-1.5498,0.0,0.0,-1.4633,-1.4532,-1.4843,-1.5224,-1.5319,-1.5319,-1.5319,-1.6078,-1.6671,0.0,0.0,0.0,0.0,0.0,0.0,0.0,0.0,-1.323,-1.2949,0.0,-1.2929,0.0,0.0,0.0,0.0,0.0,-1.2939,0.0,0.0,-1.341,-1.3596,-1.3606,-1.3677,-1.3657,-1.3627,-1.3303,-1.3057,-1.3037,-1.2969,0.0,0.0,0.0,0.0,0.0,0.0,-1.2891,-1.2891,-1.2891,-1.2891,-1.2891,-1.2891,-1.2891,-1.2891,-1.2891,-1.2891,-1.2891,-1.2891,-1.2891,-1.2891,-1.2891,0.0,0.0,0.0,0.0,0.0,0.0,0.0,0.0,0.0,0.0,0.0,0.0,0.0,0.0,0.0,0.0,0.0,0.0,0.0,0.0,-1.1636,0.0,0.0,0.0,0.0,0.0,0.0,0.0,0.0,0.0,0.0,-1.3017,-1.3467,-1.3826,-1.3847,0.0,0.0,0.0,0.0,-1.5114,-1.6097,-1.58,-1.5834,-1.6859,-1.6633,-1.6389,-1.6473,0.0,0.0,-1.8032,-1.7641,-1.7459,-1.7904,-1.8119,-1.7604,-1.5791,-1.5968,-1.6462,-1.6535,-1.6489,-1.6439,-1.6473,-1.6914,-1.7303,-1.5367,0.0,0.0,0.0,0.0,-1.4805,-1.4795,-1.4763,-1.431,-1.385,-1.3361,-1.3456,0.0,0.0,0.0,0.0,0.0,0.0,-1.375,-1.342,-1.4737,-1.5352,-1.5373,-1.6309,-1.6499,-1.6159,-1.6038,-1.548,-1.4552,-1.4242,-1.3687,-1.2891,0.0,0.0,0.0,0.0,-1.2891,-1.2891,-1.2891,-1.2891,-1.2891,-1.2891,-1.2891,-1.2891,-1.2891,-1.2891,-1.2891,-1.2891,-1.2891,-1.2891,-1.2891,0.0,0.0,0.0,0.0,0.0,0.0,0.0,0.0,0.0,0.0,0.0,0.0,0.0,0.0,0.0,0.0,0.0,0.0,0.0,-1.207,-1.2314,-1.2715,0.0,0.0,0.0,0.0,0.0,0.0,0.0,0.0,0.0,-1.3552,-1.3684,-1.3894,0.0,0.0,-1.5085,-1.511,-1.5519,-1.6162,-1.6939,-1.6476,0.0,-1.7678,-1.7041,-1.6815,-1.8066,-1.863,-1.897,-1.9156,-1.9325,-1.9397,-1.9011,-1.9793,-2.0147,-1.9148,-1.8148,-1.793,-1.8503,-1.7905,-1.7199,-1.7532,-1.7824,-1.7798,-1.8021,-1.6668,-1.599,-1.6158,-1.6804,-1.6603,-1.657,-1.6599,-1.6166,-1.5696,-1.5248,-1.5189,-1.517,-1.517,-1.5512,0.0,0.0,0.0,-1.5622,-1.5311,-1.6526,-1.7093,-1.7159,-1.7878,-1.8075,-1.7736,-1.7596,-1.6922,-1.5785,-1.5372,-1.4676,-1.3665,0.0,0.0,-1.2891,-1.2891,-1.2891,-1.2891,-1.2891,-1.2891,-1.2891,-1.2891,-1.2891,-1.2891,-1.2891,-1.2891,-1.2891,-1.2891,-1.2891,-1.2891,-1.3096,-1.3301,0.0,0.0,0.0,0.0,0.0,0.0,0.0,0.0,0.0,0.0,0.0,-1.3684,0.0,0.0,0.0,0.0,-1.2725,-1.2842,-1.2744,-1.2969,0.0,0.0,0.0,0.0,0.0,0.0,0.0,-1.3787,-1.4397,-1.4854,-1.4829,-1.506,-1.5218,-1.5211,-1.5614,-1.5949,-1.6086,0.0,-1.7204,-1.7636,-1.7447,-1.7673,-1.8647,-1.8213,-1.8121,-1.912,-1.992,-2.0238,-2.0092,-2.0482,-2.064,-2.0423,-2.0893,-2.1431,-2.1174,-2.0404,-1.9777,-2.0085,-1.918,-1.8448,-1.8729,-1.8796,-1.8734,-2.1201,-2.0202,-1.8618,-1.8407,-1.9071,-1.8522,-1.8612,-1.9084,-1.855,-1.823,-1.8141,-1.7661,-1.7473,-1.7479,-1.7479,0.0,-1.7409,-1.7955,-1.8173,-1.8141,-1.8612,-1.884,-1.8805,-1.8908,-1.8954,-1.8896,-1.8515,-1.7889,-1.7054,-1.6612,-1.5951,-1.5058,-1.3848,-1.3204,-1.3076,-1.3125,-1.3076,-1.3076,-1.3047,-1.3008,-1.2891,-1.2891,-1.2891,-1.2891,-1.2891,-1.2891,-1.2891,-1.2891,-1.2891,-1.29,-1.3418,-1.3682,-1.3686,0.0,0.0,0.0,0.0,0.0,0.0,0.0,0.0,0.0,0.0,0.0,0.0,0.0,0.0,0.0,-1.293,0.0,-1.3516,-1.3596,0.0,0.0,0.0,-1.446,-1.5133,-1.5122,-1.5141,-1.5139,0.0,0.0,-1.6489,-1.6991,-1.7159,-1.6691,-1.6549,-1.6716,-1.7218,-1.7751,-1.8153,-1.7924,-1.8509,-1.9095,-1.9457,-1.9544,-1.9608,-1.9773,-2.0702,-2.1179,-2.0878,-2.1129,-2.1455,-2.1613,-2.1594,-2.1732,-2.2272,-2.2201,-2.1995,-2.0978,-2.0338,-1.9949,-2.001,-2.0012,-1.9936,-2.4433,-2.4583,-2.4396,-2.2991,-2.0859,-2.0736,-2.0921,-2.12,-2.0794,-2.0264,-1.9746,-1.9804,-1.9824,-1.9867,-1.9867,-1.9599,-1.919,-1.9634,-1.9574,-1.9217,-2.0569,-2.0961,-2.0618,-2.1534,-2.1817,-2.1436,-2.1346,-2.0665,-1.9505,-1.906,-1.8472,-1.7711,-1.6693,-1.5669,-1.4686,-1.4665,-1.4676,-1.4676,-1.4333,-1.3767,-1.2939,-1.2891,-1.2891,-1.2891,-1.2891,-1.2891,-1.2891,-1.2891,-1.2891,-1.29,-1.3428,-1.3997,-1.4769,-1.5521,0.0,0.0,0.0,0.0,0.0,0.0,0.0,0.0,0.0,-1.3501,-1.3359,0.0,-1.3018,0.0,-1.3359,-1.3535,-1.3945,-1.4479,0.0,0.0,-1.479,-1.5055,-1.5292,-1.4785,-1.4447,-1.4703,-1.5622,-1.6496,-1.717,-1.7654,-1.8113,-1.8301,-1.8003,-1.7581,-1.706,-1.751,-1.7748,-1.7387,-1.8118,-1.8794,-1.9008,-1.9423,-1.9798,-1.9798,-2.0401,-2.0941,-2.1242,-2.138,-2.1757,-2.251,-2.2385,-2.2372,-2.2799,-2.2552,-2.2259,-2.1945,-2.1468,-2.123,-2.1606,-2.1368,-2.1079,-2.6735,-2.704,-2.6917,-2.5939,-2.4437,-2.3807,-2.3624,-2.384,-2.3586,-2.3265,-2.2911,-2.3134,-2.3106,-2.2949,-2.3188,-2.2906,-2.2223,-2.2707,-2.2528,-2.192,-2.2821,-2.3069,-2.28,-2.3555,-2.3728,-2.3427,-2.3188,-2.2468,-2.1451,-2.071,-1.997,-1.9166,-1.8487,-1.791,-1.7486,-1.6343,-1.5709,-1.572,-1.5145,-1.4408,-1.3498,-1.3771,-1.3912,-1.3922,-1.427,-1.4468,-1.4468,-1.4121,-1.3912,-1.3922,-1.4418,-1.4932,-1.5479,-1.6277,-1.6815,0.0,0.0,0.0,0.0,0.0,0.0,0.0,0.0,0.0,0.0,0.0,-1.373,-1.3955,-1.3867,-1.3912,-1.4385,-1.4774,-1.5053,-1.5076,-1.5491,-1.5972,-1.6352,-1.6221,-1.6192,-1.6277,-1.719,-1.7981,-1.8491,-1.8772,-1.902,-1.9321,-1.9108,-1.8597,-1.7903,-1.8014,-1.813,-1.7774,-1.826,-1.8833,-1.915,-1.954,-1.9798,-1.9849,-2.0288,-2.0702,-2.0752,-2.0953,-2.1267,-2.1568,-2.1606,-2.1757,-2.2272,-2.2397,-2.2372,-2.2573,-2.2435,-2.2171,-2.197,-2.1707,-2.1481,-2.8745,-2.8722,-2.818,-2.825,-2.8652,-2.7264,-2.6591,-2.6467,-2.6467,-2.6481,-2.6502,-2.673,-2.651,-2.6078,-2.6539,-2.6315,-2.5648,-2.6121,-2.5876,-2.5114,-2.505,-2.5012,-2.4833,-2.4833,-2.4833,-2.4808,-2.433,-2.3702,-2.2927,-2.2089,-2.1233,-2.0453,-1.9984,-2.0064,-2.0505,-1.8201,-1.683,-1.6603,-1.5902,-1.5185,-1.452,-1.5123,-1.5476,-1.5476,-1.6058,-1.64,-1.635,-1.5709,-1.5339,-1.535,-1.5712,-1.602,-1.6203,-1.7136,-1.7639,0.0,-1.7531,0.0,0.0,0.0,0.0,0.0,0.0,0.0,0.0,-1.4609,-1.4821,-1.4812,-1.4531,-1.4561,-1.499,-1.5199,-1.5442,-1.5761,-1.6487,-1.7218,-1.7768,-1.8374,-1.8689,-1.834,-1.9238,-1.9868,-1.9601,-1.9828,-2.0024,-1.988,-1.9985,-1.9763,-1.9078,-1.8851,-1.8809,-1.8744,-1.8827,-1.9239,-1.9778,-1.9936,-1.9911,-1.9886,-2.0175,-2.0401,-2.0062,-2.0288,-2.0451,-2.025,-2.0602,-2.0991,-2.1418,-2.2008,-2.2548,-2.2827,-2.2975,-2.2774,-2.2058,-2.182,-2.1707,-3.1481,-3.1473,-3.1511,-3.1575,-3.1574,-3.0107,-2.9091,-2.8469,-2.8469,-2.8469,-2.8469,-2.8533,-2.8221,-2.7728,-2.7825,-2.7806,-2.7638,-2.7762,-2.7309,-2.6465,-2.6529,-2.5923,-2.4845,-2.4833,-2.4833,-2.482,-2.4707,-2.4593,-2.4387,-2.4188,-2.379,-2.3219,-2.2652,-2.2231,-2.1865,0.0,0.0,0.0,-1.747,-1.7109,-1.6666,-1.6737,-1.68,-1.6789,-1.6554,0.0,-1.64,-1.6238,-1.6199,-1.6149,-1.6036,0.0,0.0,0.0,0.0,0.0,0.0,0.0,0.0,0.0,0.0,0.0,-1.6637,-1.6084,-1.5732,-1.5811,-1.5841,-1.5841,-1.5792,-1.5889,-1.6309,-1.7536,-1.8084,-1.7651,-1.8773,-1.9483,-1.9077,-1.9124,-1.887,-1.8021,-1.9309,-1.9922,-1.916,-2.0189,-2.0866,-2.0334,-2.0754,-2.0822,-2.0145,-1.9751,-1.9279,-1.8788,-1.9362,-2.0145,-2.0457,-2.0501,-2.0326,-1.9974,-1.9861,-2.0112,-2.0388,-2.0162,-2.0376,-2.0916,-2.1267,-2.1343,-2.1493,-2.2284,-2.2824,-2.2548,-2.2836,-2.3015,-2.2802,-2.2811,-2.2824,-3.301,0.0,-3.3077,-3.2991,0.0,-3.184,-3.1299,-3.1147,-3.0083,-2.9875,-3.0283,-3.06,-3.0557,-3.0329,-3.0315,-3.023,-3.0177,-2.9506,-2.8712,-2.7762,-2.7433,-2.6713,-2.5636,-2.5636,-2.5624,-2.5624,-2.5335,-2.5209,-2.5184,-2.4669,-2.4268,-2.3991,-2.3427,-2.294,-2.2698,-2.1895,-2.0588,-1.8857,-1.8459,-1.8124,-1.7841,-1.7924,-1.7944,-1.7944,0.0,0.0,0.0,0.0,0.0,0.0,0.0,0.0,0.0,0.0,0.0,-2.1041,-2.0609,-2.0111,-1.9784,-1.9438,-1.9193,-1.8953,-1.8722,-1.8008,-1.6507,-1.6387,-1.6396,-1.6396,-1.6747,-1.696,-1.6762,-1.823,-1.8884,-1.8169,-1.942,-2.025,-1.996,-2.0192,-2.0179,-1.9795,-2.0373,-2.068,-2.0111,-2.0843,-2.1313,-2.0949,-2.1188,-2.1394,-2.0945,-2.0251,-1.9522,-1.9165,-2.0145,-2.0976,-2.1087,-2.1079,-2.0878,-2.0388,-2.0225,-2.0338,-2.0668,-2.0439,-2.0514,-2.1292,-2.1481,-2.1556,-2.1882,-2.2372,-2.2723,-2.2749,-2.2937,-2.3125,-2.3125,-2.3125,-2.3125,-3.4173,-3.4592,-3.3948,-3.3664,-3.3604,-3.2961,-3.2991,-3.3348,0.0,0.0,0.0,-3.2437,-3.2691,-3.2691,-3.2691,-3.2522,-3.2164,-3.1163,-3.0072,-2.8946,-2.8265,-2.7536,-2.6853,-2.6672,-2.6684,-2.6647,-2.6113,-2.5837,-2.5711,-2.4858,-2.433,-2.4117,-2.3665,-2.3288,-2.2975,-2.2535,-2.1559,-2.0125,-1.9504,-1.9112,-1.8884,-1.8986,-1.9119,-1.9227,-1.9673,-2.0012,-2.01,-1.9548,-1.942,-1.9908,-1.9376,-1.9487,-2.0535,-2.0909,-2.1237,-2.1619,-2.1372,-2.1045,-2.0676,-2.0754,-2.0613,-2.007,-2.0545,-1.9874,-1.7557,-1.7379,-1.7379,-1.7379,-1.8051,-1.8176,-1.7506,-1.8783,-1.9441,-1.8783,-1.998,-2.0897,-2.0955,-2.1358,-2.1718,-2.1612,-2.1649,-2.1612,-2.1293,-2.1604,-2.1725,-2.1612,-2.1756,-2.1719,-2.1537,-2.0822,-2.0273,-2.0278,-2.1161,-2.1794,-2.1656,-2.1631,-2.1418,-2.097,-2.0869,-2.0869,-2.0815,-2.0869,-2.0991,-2.138,-2.1543,-2.1769,-2.2083,-2.2347,-2.256,-2.2924,-2.3002,-2.3125,-2.3125,-2.3125,-2.3125,-3.5265,-3.531,-3.4622,-3.4337,-3.4277,-3.3634,-3.341,-3.3484,-3.3168,-3.3093,-3.323,-3.332,-3.335,-3.335,-3.3365,-3.3035,-3.2452,-3.2258,-3.1423,0.0,-2.9233,-2.8619,-2.8164,-2.7481,-2.7168,-2.7168,-2.7092,-2.6804,-2.6364,-2.6231,-2.5649,-2.4795,-2.4619,-2.3866,-2.2548,-2.2359,-2.2176,-2.1886,-2.1406,-2.0889,-2.0395,-2.0416,-2.0657,-2.1094,-2.0723,-2.0778,-2.123,-2.1119,-2.1169,-2.1256,-2.1425,-2.1487,-2.1381,-2.1631,-2.1983,-2.2171,-2.2143,-2.1989,-2.1689,-2.1732,-2.1393,-2.0617,-2.1255,-2.1232,-2.0145,-2.007,-2.007,-2.007,-2.009,-2.0198,-2.0134,-2.0859,-2.1396,-2.1357,-2.2141,-2.2708,-2.2645,-2.2718,-2.2586,-2.1958,-2.2468,-2.2298,-2.1299,-2.2007,-2.2548,-2.2116,-2.2355,-2.2698,-2.2239,-2.2076,-2.1898,-2.196,-2.2489,-2.2661,-2.2309,-2.2196,-2.197,-2.1468,-2.138,-2.1368,-2.1368,-2.1368,-2.1443,-2.1506,-2.192,-2.2046,-2.1832,-2.241,-2.2689,-2.2686,-2.2862,-2.3125,-2.3125,-2.3125,-2.3125,-3.5489,-3.5459,-3.5175,-3.504,-3.5011,-3.4711,-3.4367,-3.4083,-3.4427,-3.4158,-3.3544,-3.3873,-3.4038,-3.4023,-3.4023,-3.4083,-3.4113,-3.3395,-3.2623,-3.183,-3.1119,-3.0448,-2.9821,-2.8917,-2.8524,-2.8466,-2.7995,-2.7444,-2.6987,-2.6615,-2.605,-2.5272,-2.4958,-2.428,-2.3301,-2.3226,-2.2924,-2.2322,-2.1769,-2.1506,-2.1556,-2.1267,-2.123,-2.1481,-2.123,-2.1285,-2.1481,-2.1481,-2.1619,-2.1933,-2.1951,-2.2088,-2.2372,-2.2535,-2.2614,-2.2761,-2.2702,-2.282,-2.3059,-2.3033,-2.2834,-2.2495,-2.2821,-2.2762,-2.2002,-2.1101,-2.059,-2.0655,-2.0974,-2.1112,-2.0719,-2.1791,-2.2384,-2.1939,-2.2641,-2.3078,-2.3125,-2.3125,-2.2944,-2.2628,-2.2884,-2.2823,-2.2063,-2.2616,-2.3005,-2.2628,-2.2944,-2.2952,-2.2786,-2.2736,-2.2648,-2.2422,-2.2774,-2.2927,-2.2786,-2.2702,-2.2523,-2.202,-2.1933,-2.1933,-2.1933,-2.1933,-2.2058,-2.2322,-2.2598,-2.2636,-2.2385,-2.2761,-2.2949,-2.284,-2.2852,-2.3113,-2.3125,-2.3125,-2.3125,-3.5489,-3.5489,-3.5489,-3.5489,-3.5489,-3.5489,-3.519,-3.4786,-3.5265,-3.4921,-3.4098,-3.4487,-3.4711,-3.4711,-3.4696,-3.4921,-3.51,-3.4188,-3.3561,-3.3208,-3.25,-3.1823,-3.1072,-3.014,-2.9592,-2.9308,-2.8626,-2.8009,-2.7469,-2.7042,-2.6465,-2.5799,-2.5146,-2.4607,-2.4192,-2.4054,-2.3565,-2.2711,-2.2133,-2.1933,-2.2096,-2.1707,-2.1531,-2.1669,-2.1681,-2.1719,-2.1845,-2.1857,-2.2058,-2.246,-2.2359,-2.2552,-2.3203,-2.3201,-2.3178,-2.3464,-2.3328,-2.3577,-2.4117,-2.418,-2.4192,-2.418,-2.4067,-2.3816,-2.3267,-2.2106,-2.1279,-2.125,-2.1803,-2.1877,-2.1479,-2.2298,-2.2823,-2.2322,-2.2702,-2.3065,-2.3125,-2.3125,-2.3125,-2.3125,-2.3125,-2.3065,-2.3125,-2.3125,-2.3065,-2.3065,-2.3125,-2.3125,-2.3125,-2.3125,-2.2937,-2.2736,-2.2862,-2.304,-2.3125,-2.3113,-2.2937,-2.2535,-2.2498,-2.2498,-2.2498,-2.2498,-2.2611,-2.2902,-2.3075,-2.3075,-2.3113,-2.3113,-2.3125,-2.3015,-2.3113,-2.3125,-2.3125,-2.3125,-2.3125,-3.5489,-3.5489,-3.5489,-3.5489,-3.5489,-3.5489,-3.5444,-3.54,-3.5489,-3.5459,-3.5265,-3.537,-3.5385,-3.5415,-3.54,-3.513,-3.4651,-3.4457,-3.4065,-3.3478,-3.2582,-3.1971,-3.1599,-3.0744,-2.9848,-2.9136,-2.8925,-2.8635,-2.8047,-2.7921,-2.7394,-2.6364,-2.5335,-2.482,-2.4707,-2.4268,-2.3954,-2.3841,-2.3276,-2.2523,-2.1631,-2.1518,-2.1719,-2.2221,-2.2234,-2.2472,-2.2827,-2.2975,-2.294,-2.299,-2.299,-2.3314,-2.3791,-2.3439,-2.3528,-2.4519,-2.418,-2.4155,-2.4682,-2.4745,-2.472,-2.4707,-2.4318,-2.4017,-2.3929,-2.3804,-2.343,-2.3009,-2.2921,-2.2921,-2.2884,-2.3005,-2.3065,-2.2944,-2.3005,-2.3125,-2.3125,-2.3125,-2.3125,-2.3125,-2.3125,-2.3125,-2.3125,-2.3125,-2.3125,-2.3125,-2.3125,-2.3125,-2.3125,-2.3125,-2.3065,-2.2977,-2.3113,-2.3125,-2.3125,-2.3125,-2.3075,-2.3012,-2.3037,-2.2987,-2.2962,-2.2927,-2.3027,-2.3062,-2.3125,-2.3125,-2.3125,-2.3125,-2.3125,-2.3125,-2.3125,-2.3125,-2.3125,-2.3125,-2.3138,-3.5489,-3.5489,-3.5489,-3.5489,-3.5489,-3.5489,-3.5489,-3.5489,-3.5489,-3.5489,-3.5489,-3.5489,-3.5489,-3.5489,-3.5489,-3.534,-3.51,-3.5085,-3.4951,-3.4696,-3.4332,-3.4061,-3.3787,-3.2958,-3.2036,-3.1103,-3.0542,-2.9702,-2.8623,-2.7959,-2.7381,-2.6929,-2.6163,-2.5624,-2.5285,-2.5059,-2.4795,-2.4469,-2.3929,-2.3414,-2.3,-2.2636,-2.256,-2.2761,-2.2799,-2.2827,-2.3078,-2.3452,-2.364,-2.3665,-2.3954,-2.423,-2.4469,-2.3941,-2.3853,-2.4293,-2.413,-2.4381,-2.5209,-2.5008,-2.4958,-2.5247,-2.5071,-2.482,-2.4544,-2.4757,-2.4707,-2.4205,-2.3841,-2.3527,-2.3213,-2.3138,-2.3125,-2.3125,-2.3125,-2.3138,-2.3125,-2.3138,-2.3125,-2.3125,-2.3125,-2.3125,-2.3125,-2.3125,-2.3125,-2.3125,-2.3125,-2.3125,-2.3125,-2.3125,-2.3125,-2.3125,-2.3125,-2.3125,-2.3125,-2.3125,-2.3125,-2.3125,-2.3125,-2.3125,-2.3125,-2.3125,-2.3065,-2.3125,-2.3125,-2.3125,-2.3125,-2.3125,-2.3125,-2.3125,-2.3125,-2.3125,-2.3125,-2.3125,-2.3178,-3.5489,-3.5489,-3.5489,-3.5489,-3.5489,-3.5489,-3.5489,-3.5489,-3.5489,-3.5489,-3.5489,-3.5489,-3.5489,-3.5489,-3.5489,-3.5489,-3.5489,-3.5489,-3.5489,-3.5489,-3.5489,-3.5344,-3.5052,-3.4394,-3.3533,-3.2607,-3.1596,-3.0462,-2.9152,-2.8222,-2.7657,-2.7457,-2.6954,-2.6402,-2.5875,-2.5699,-2.541,-2.5021,-2.4494,-2.423,-2.4155,-2.3816,-2.3391,-2.3128,-2.3228,-2.3364,-2.3389,-2.3916,-2.423,-2.423,-2.4607,-2.4883,-2.5008,-2.4519,-2.428,-2.4443,-2.4594,-2.5008,-2.5774,-2.5473,-2.5423,-2.5762,-2.5699,-2.5435,-2.5197,-2.5385,-2.5335,-2.4858,-2.4582,-2.4217,-2.3703,-2.3541,-2.3478,-2.3414,-2.3477,-2.3491,-2.3414,-2.3376,-2.3401,-2.3353,-2.3228,-2.3125,-2.3125,-2.3125,-2.3125,-2.3125,-2.3125,-2.3125,-2.3125,-2.3125,-2.3125,-2.3125,-2.3125,-2.3125,-2.3125,-2.3125,-2.3125,-2.3125,-2.3125,-2.3125,-2.3125,-2.3125,-2.3125,-2.3125,-2.3125,-2.3125,-2.3125,-2.3125,-2.315,-2.3138,-2.315,-2.3163,-2.3125,-2.3226,-2.3527,-3.5489,-3.5489,-3.5489,-3.5489,-3.5489,-3.5489,-3.5489,-3.5489,-3.5489,-3.5489,-3.5489,-3.5489,-3.5489,-3.5489,-3.5489,-3.5489,-3.5489,-3.5489,-3.5489,-3.5489,-3.5489,-3.4986,-3.4095,-3.4013,-3.3518,-3.2749,-3.1888,-3.0882,-2.9897,-2.9177,-2.8586,-2.8132,-2.765,-2.7037,-2.6496,-2.6005,-2.5611,-2.5536,-2.5046,-2.4795,-2.477,-2.4745,-2.418,-2.3315,-2.3678,-2.3954,-2.4017,-2.4481,-2.4782,-2.4782,-2.487,-2.5084,-2.546,-2.5071,-2.4983,-2.5448,-2.5963,-2.6345,-2.642,-2.6276,-2.637,-2.6327,-2.5925,-2.5611,-2.5586,-2.5636,-2.5473,-2.4921,-2.5272,-2.5247,-2.482,-2.4594,-2.4418,-2.4054,-2.4406,-2.4406,-2.4017,-2.3954,-2.4029,-2.4004,-2.3528,-2.3288,-2.3188,-2.3125,-2.3163,-2.315,-2.3125,-2.3125,-2.3125,-2.3125,-2.3125,-2.3125,-2.3125,-2.3125,-2.3125,-2.3125,-2.3125,-2.3125,-2.3125,-2.3125,-2.3125,-2.3125,-2.3125,-2.3125,-2.3125,-2.3125,-2.3125,-2.315,-2.3115,-2.314,-2.3263,-2.3263,-2.3527,-2.3728,-2.4029,-3.5489,-3.5489,-3.5489,-3.5489,-3.5489,-3.5489,-3.5489,-3.5489,-3.5489,-3.5489,-3.5489,-3.5489,-3.5489,-3.5489,-3.5489,-3.5489,-3.5489,-3.5489,-3.5489,-3.5489,-3.5489,-3.5294,-3.4986,-3.4986,-3.4476,-3.3518,-3.3157,-3.2536,-3.1616,-3.1021,-3.0703,-3.0308,-2.9298,-2.8469,-2.7893,-2.71,-2.6515,-2.6126,-2.5611,-2.531,-2.5285,-2.4996,-2.4607,-2.4255,-2.4406,-2.4519,-2.4531,-2.5046,-2.5322,-2.5322,-2.5661,-2.595,-2.6076,-2.5624,-2.5385,-2.5548,-2.5473,-2.5724,-2.6289,-2.6113,-2.6076,-2.6402,-2.6276,-2.6126,-2.6151,-2.6151,-2.6063,-2.595,-2.6,-2.6025,-2.5787,-2.5259,-2.4745,-2.4607,-2.4695,-2.4782,-2.4594,-2.4531,-2.4456,-2.4255,-2.3966,-2.3816,-2.3715,-2.369,-2.354,-2.3213,-2.3138,-2.3175,-2.309,-2.3138,-2.3188,-2.3138,-2.3125,-2.3125,-2.3125,-2.3125,-2.3125,-2.3125,-2.3125,-2.3125,-2.3125,-2.3125,-2.3125,-2.3125,-2.3125,-2.3125,-2.3125,-2.3138,-2.3128,-2.3565,-2.3602,-2.3715,-2.4092,-2.433,-2.4619,-3.5489,-3.5489,-3.5489,-3.5489,-3.5489,-3.5489,-3.5489,-3.5489,-3.5489,-3.5489,-3.5489,-3.5489,-3.5489,-3.5489,-3.5489,-3.5489,-3.5489,-3.5489,-3.5489,-3.5489,-3.5489,-3.5489,-3.5489,-3.5489,-3.5133,-3.4461,-3.4095,-3.3533,-3.2636,-3.2249,-3.1958,-3.1668,-3.073,-2.9981,-2.9361,-2.8482,-2.7736,-2.7199,-2.6531,-2.6076,-2.5875,-2.5536,-2.536,-2.5347,-2.5347,-2.5259,-2.5096,-2.5586,-2.5875,-2.5937,-2.6264,-2.6521,-2.6483,-2.6101,-2.5862,-2.5824,-2.5561,-2.5661,-2.6345,-2.6088,-2.605,-2.6402,-2.6521,-2.6521,-2.6521,-2.6521,-2.6521,-2.6521,-2.6521,-2.6521,-2.6327,-2.5787,-2.5285,-2.5159,-2.5234,-2.5259,-2.5109,-2.5071,-2.487,-2.4594,-2.4808,-2.4745,-2.4368,-2.4293,-2.4092,-2.3703,-2.3616,-2.3616,-2.3616,-2.3616,-2.3577,-2.3452,-2.3452,-2.3351,-2.3213,-2.3125,-2.3125,-2.3125,-2.3125,-2.3125,-2.3125,-2.3125,-2.3125,-2.3125,-2.3125,-2.3125,-2.3125,-2.3138,-2.3439,-2.3891,-2.3954,-2.3966,-2.4431,-2.4908,-2.5146,-3.5489,-3.5489,-3.5489,-3.5489,-3.5489,-3.5489,-3.5489,-3.5489,-3.5489,-3.5489,-3.5489,-3.5489,-3.5489,-3.5489,-3.5489,-3.5519,-3.5594,-3.5534,-3.5489,-3.5489,-3.5489,-3.5489,-3.5489,-3.5489,-3.5504,-3.5344,-3.4476,-3.3587,-3.2862,-3.2877,-3.2612,-3.2041,-3.1958,-3.1542,-3.1013,-3.005,-2.9244,-2.8699,-2.7885,-2.7126,-2.6596,-2.6625,-2.6549,-2.6531,-2.6599,-2.6346,-2.5757,-2.6181,-2.6377,-2.6458,-2.6508,-2.6521,-2.6521,-2.6471,-2.6483,-2.6445,-2.6389,-2.6414,-2.6508,-2.6483,-2.6364,-2.6521,-2.6521,-2.6521,-2.6521,-2.6521,-2.6521,-2.6521,-2.6521,-2.6521,-2.6521,-2.6352,-2.6113,-2.5762,-2.5975,-2.605,-2.5737,-2.5598,-2.5423,-2.5146,-2.5661,-2.5887,-2.5184,-2.4833,-2.4745,-2.4644,-2.4607,-2.4594,-2.4544,-2.4531,-2.4481,-2.4104,-2.3828,-2.364,-2.3376,-2.3125,-2.3125,-2.3125,-2.3125,-2.3125,-2.3125,-2.3125,-2.3125,-2.3125,-2.3125,-2.3138,-2.3128,-2.3178,-2.3627,-2.3991,-2.4054,-2.4418,-2.4996,-2.5473,-2.5561,-3.5489,-3.5489,-3.5489,-3.5489,-3.5489,-3.5489,-3.5489,-3.5489,-3.5489,-3.5489,-3.5489,-3.5489,-3.5489,-3.5489,-3.5504,-3.5744,-3.6118,-3.5744,-3.5489,-3.5489,-3.5489,-3.5489,-3.5489,-3.5489,-3.5489,-3.5424,-3.5213,-3.492,-3.4639,-3.4558,-3.4493,-3.4295,-3.3589,-3.3043,-3.2487,-3.161,-3.0856,-3.0281,-2.951,-2.908,-2.8878,-2.8448,-2.8182,-2.8233,-2.8247,-2.8139,-2.7913,-2.6992,-2.6521,-2.6521,-2.6521,-2.6521,-2.6521,-2.6521,-2.6521,-2.6521,-2.6521,-2.6521,-2.6521,-2.6521,-2.6533,-2.6533,-2.6533,-2.6521,-2.6521,-2.6521,-2.6521,-2.6521,-2.6521,-2.6521,-2.6521,-2.6521,-2.642,-2.6269,-2.6339,-2.6402,-2.6201,-2.6231,-2.6113,-2.6013,-2.6251,-2.6251,-2.5975,-2.5661,-2.5247,-2.4958,-2.4908,-2.4895,-2.487,-2.4946,-2.4607,-2.413,-2.4004,-2.3879,-2.3502,-2.3226,-2.3125,-2.3125,-2.3125,-2.3263,-2.3251,-2.3125,-2.3125,-2.3125,-2.3125,-2.3201,-2.3178,-2.3464,-2.3841,-2.4393,-2.4782,-2.5247,-2.5799,-2.5988,-2.6013,-3.5489,-3.5489,-3.5489,-3.5489,-3.5489,-3.5489,-3.5489,-3.5489,-3.5489,-3.5489,-3.5489,-3.5489,-3.5489,-3.5489,-3.5489,-3.5729,-3.6058,-3.5684,-3.5489,-3.5489,-3.5489,-3.5489,-3.5489,-3.5489,-3.5489,-3.5489,-3.5489,-3.5489,-3.5489,-3.5489,-3.5489,-3.5344,-3.4839,-3.442,-3.3959,-3.3139,-3.2368,-3.1777,-3.1037,-3.0488,-2.9979,-2.9592,-2.9223,-2.9044,-2.8989,-2.8989,-2.8939,-2.792,-2.7284,-2.696,-2.6645,-2.6521,-2.6521,-2.6837,-2.696,-2.6589,-2.6782,-2.6837,-2.6589,-2.6521,-2.6647,-2.676,-2.6647,-2.6647,-2.6722,-2.6697,-2.6521,-2.6521,-2.6521,-2.6521,-2.6521,-2.6521,-2.6521,-2.6521,-2.6508,-2.6521,-2.6521,-2.6521,-2.6508,-2.6458,-2.6521,-2.6521,-2.642,-2.6269,-2.5812,-2.5498,-2.5435,-2.5435,-2.5423,-2.546,-2.5084,-2.4695,-2.4481,-2.4167,-2.3602,-2.3339,-2.315,-2.3125,-2.3125,-2.3351,-2.3502,-2.3238,-2.3125,-2.3125,-2.3125,-2.3389,-2.3464,-2.3703,-2.4054,-2.472,-2.5372,-2.5699,-2.6025,-2.6251,-2.6314,-3.5489,-3.5489,-3.5489,-3.5489,-3.5489,-3.5489,-3.5489,-3.5489,-3.5489,-3.5489,-3.5489,-3.5489,-3.5489,-3.5489,-3.5489,-3.5594,-3.5564,-3.5534,-3.5579,-3.5594,-3.5549,-3.5489,-3.5489,-3.5489,-3.5489,-3.5489,-3.5489,-3.5489,-3.5489,-3.5489,-3.5489,-3.5489,-3.5424,-3.5424,-3.5109,-3.4514,-3.383,-3.3273,-3.2419,-3.1531,-3.062,-3.0373,-3.0057,-2.954,-2.9471,-2.9491,-2.9519,-2.9184,-2.862,-2.7789,-2.6973,-2.6577,-2.6837,-2.7644,-2.7644,-2.6782,-2.7284,-2.7095,-2.6726,-2.684,-2.6829,-2.705,-2.7075,-2.676,-2.7062,-2.6779,-2.6565,-2.6533,-2.6521,-2.6521,-2.6521,-2.6521,-2.6521,-2.6521,-2.6521,-2.6521,-2.6521,-2.6521,-2.6521,-2.6521,-2.6521,-2.6521,-2.6521,-2.6483,-2.6445,-2.6327,-2.6276,-2.6239,-2.6239,-2.6101,-2.6063,-2.5636,-2.5021,-2.4632,-2.413,-2.3929,-2.3766,-2.3766,-2.3665,-2.3715,-2.3791,-2.3514,-2.3339,-2.3314,-2.3339,-2.3565,-2.3816,-2.4092,-2.4519,-2.5172,-2.5636,-2.5912,-2.6151,-2.6445,-2.6559,-3.5489,-3.5489,-3.5489,-3.5489,-3.5489,-3.5489,-3.5489,-3.5489,-3.5489,-3.5489,-3.5489,-3.5489,-3.5489,-3.5489,-3.5504,-3.5744,-3.5953,-3.5684,-3.5804,-3.6103,-3.5699,-3.5519,-3.5489,-3.5489,-3.5489,-3.5489,-3.5489,-3.5489,-3.5489,-3.5489,-3.5489,-3.5489,-3.5489,-3.5489,-3.5424,-3.5213,-3.5073,-3.4821,-3.4139,-3.3607,-3.3196,-3.2698,-3.2496,-3.232,-3.1775,-3.154,-3.1421,-3.0513,-2.9566,-2.862,-2.7229,-2.7108,-2.8143,-2.8675,-2.8536,-2.7775,-2.7669,-2.7443,-2.7033,-2.7575,-2.7679,-2.6974,-2.8027,-2.8092,-2.6785,-2.6942,-2.6829,-2.6659,-2.6521,-2.6559,-2.6546,-2.6533,-2.6533,-2.6521,-2.6521,-2.6521,-2.6521,-2.6521,-2.6521,-2.6521,-2.6521,-2.6521,-2.6521,-2.6521,-2.6521,-2.6521,-2.6521,-2.6521,-2.6521,-2.6496,-2.6264,-2.5862,-2.536,-2.5071,-2.4782,-2.4569,-2.4456,-2.4494,-2.4393,-2.4255,-2.418,-2.3929,-2.3828,-2.3803,-2.3816,-2.3991,-2.4293,-2.4594,-2.5134,-2.5624,-2.595,-2.6239,-2.6314,-2.6546,-2.6596,-3.5489,-3.5489,-3.5489,-3.5489,-3.5489,-3.5489,-3.5489,-3.5489,-3.5489,-3.5489,-3.5489,-3.5489,-3.5489,-3.5489,-3.5504,-3.5699,-3.5998,-3.5684,-3.5729,-3.5923,-3.5669,-3.5504,-3.5489,-3.5489,-3.5489,-3.5489,-3.5489,-3.5489,-3.5489,-3.5489,-3.5489,-3.5489,-3.5489,-3.5489,-3.5489,-3.5489,-3.5489,-3.5415,-3.5085,-3.4801,-3.4457,-3.4113,-3.3739,-3.3455,-3.2871,-3.2527,-3.2348,-3.1944,-3.1043,-2.9659,-2.8376,-2.8158,-2.9325,-3.0403,-3.0326,-2.9224,-2.937,-2.9252,-2.8704,-2.9255,-2.9375,-2.9008,-2.9818,-2.9547,-2.8868,-2.849,-2.8029,-2.7906,-2.7411,-2.71,-2.6804,-2.6615,-2.6546,-2.6521,-2.6521,-2.6521,-2.6533,-2.6521,-2.6521,-2.6521,-2.6521,-2.6521,-2.6521,-2.6521,-2.6521,-2.6521,-2.6521,-2.6521,-2.6521,-2.6508,-2.6377,-2.6038,-2.5711,-2.5423,-2.5184,-2.4983,-2.4858,-2.4921,-2.5084,-2.4933,-2.4707,-2.4469,-2.4443,-2.4431,-2.4381,-2.4456,-2.4782,-2.5109,-2.5523,-2.5937,-2.6276,-2.644,-2.6571,-2.6804,-2.6804,-3.5489,-3.5489,-3.5489,-3.5554,-3.5604,-3.5604,-3.5653,-3.5604,-3.5668,-3.5668,-3.5668,-3.5569,-3.5619,-3.5634,-3.5539,-3.5519,-3.5549,-3.5534,-3.5519,-3.5564,-3.5504,-3.5489,-3.5489,-3.5489,-3.5489,-3.5489,-3.5489,-3.5489,-3.5489,-3.5489,-3.5489,-3.5489,-3.5489,-3.5489,-3.5489,-3.5489,-3.5489,-3.5489,-3.5444,-3.516,-3.4786,-3.4607,-3.4382,-3.3933,-3.329,-3.2871,-3.2871,-3.2885,-3.2537,-3.071,-2.9775,-2.9715,-3.0559,-3.2585,-3.2616,-3.1415,-3.1344,-3.1452,-3.109,-3.089,-3.133,-3.1445,-3.1332,-3.14,-3.1227,-3.0389,-2.9605,-2.9127,-2.8685,-2.8033,-2.7431,-2.6942,-2.6816,-2.6829,-2.6728,-2.6735,-2.6672,-2.6596,-2.6521,-2.6521,-2.6521,-2.6521,-2.6521,-2.6521,-2.6521,-2.6521,-2.6521,-2.6521,-2.6521,-2.6521,-2.6508,-2.6364,-2.605,-2.5762,-2.5561,-2.5372,-2.5285,-2.5272,-2.5573,-2.5573,-2.536,-2.5184,-2.5146,-2.5084,-2.4946,-2.5034,-2.5297,-2.5649,-2.5963,-2.6226,-2.654,-2.659,-2.6722,-2.7155,-2.7369,-3.5489,-3.5489,-3.5489,-3.5831,-3.6337,-3.6384,-3.6384,-3.6399,-3.6399,-3.6399,-3.6212,-3.5782,-3.591,-3.6337,-3.5894,-3.5489,-3.5554,-3.5569,-3.5489,-3.5489,-3.5489,-3.5489,-3.5504,-3.5534,-3.5519,-3.5504,-3.5489,-3.5489,-3.5489,-3.5489,-3.5489,-3.5489,-3.5489,-3.5489,-3.5489,-3.5489,-3.5489,-3.5489,-3.5489,-3.5429,-3.5295,-3.5205,-3.5115,-3.4846,-3.4322,-3.3784,-3.3395,-3.3425,-3.3289,-3.2644,-3.1795,-3.1553,-3.2662,-3.407,-3.3932,-3.2695,-3.2163,-3.194,-3.1429,-3.2156,-3.2582,-3.2521,-3.2929,-3.3043,-3.2354,-3.1749,-3.0717,-2.9877,-2.924,-2.8879,-2.8151,-2.7905,-2.7729,-2.7679,-2.7632,-2.7657,-2.7595,-2.7062,-2.6684,-2.6571,-2.6571,-2.6533,-2.6546,-2.6533,-2.6533,-2.6521,-2.6521,-2.6521,-2.6521,-2.6521,-2.6521,-2.6521,-2.6339,-2.6063,-2.6,-2.585,-2.5774,-2.5699,-2.5925,-2.6076,-2.5875,-2.5737,-2.5624,-2.5536,-2.546,-2.5611,-2.5787,-2.6013,-2.6302,-2.6553,-2.6804,-2.6942,-2.7168,-2.7607,-2.7934,-3.5733,-3.6006,-3.5991,-3.6461,-3.7084,-3.716,-3.7144,-3.7144,-3.7144,-3.716,-3.7084,-3.6707,-3.6829,-3.71,-3.6768,-3.6415,-3.5943,-3.5619,-3.5489,-3.5579,-3.5759,-3.5804,-3.5609,-3.5774,-3.5848,-3.5564,-3.5489,-3.5489,-3.5489,-3.5489,-3.5489,-3.5489,-3.5489,-3.5489,-3.5489,-3.5489,-3.5489,-3.5489,-3.5489,-3.5489,-3.5489,-3.5489,-3.528,-3.5175,-3.4921,-3.4651,-3.4038,-3.4322,-3.4427,-3.4262,-3.3769,-3.3484,-3.3963,-3.4906,-3.4753,-3.4065,-3.3745,-3.3601,-3.3536,-3.3747,-3.4215,-3.3871,-3.439,-3.4303,-3.379,-3.3143,-3.2415,-3.1598,-3.0956,-3.0145,-2.9292,-2.8872,-2.869,-2.8182,-2.8122,-2.8122,-2.8021,-2.757,-2.7092,-2.6954,-2.6879,-2.6879,-2.6829,-2.6741,-2.6753,-2.6866,-2.6622,-2.6596,-2.6533,-2.6533,-2.6521,-2.6521,-2.6521,-2.6458,-2.6458,-2.6339,-2.6289,-2.6226,-2.6239,-2.6314,-2.6239,-2.6126,-2.6025,-2.595,-2.5887,-2.6,-2.6176,-2.6414,-2.6672,-2.6892,-2.7143,-2.7369,-2.7708,-2.816,-2.8411,-3.6228,-3.6798,-3.6783,-3.7279,-3.7921,-3.7994,-3.7978,-3.7978,-3.7978,-3.7978,-3.7937,-3.7879,-3.769,-3.7921,-3.7748,-3.7322,-3.6615,-3.607,-3.5812,-3.5818,-3.6193,-3.6118,-3.5953,-3.6237,-3.6207,-3.5579,-3.5489,-3.5489,-3.5489,-3.5489,-3.5489,-3.5489,-3.5489,-3.5489,-3.5489,-3.5489,-3.5489,-3.5489,-3.5489,-3.5489,-3.5489,-3.5489,-3.5235,-3.5011,-3.5145,-3.5175,-3.4831,-3.5055,-3.54,-3.5489,-3.5489,-3.519,-3.4966,-3.51,-3.5489,-3.5379,-3.5195,-3.507,-3.4961,-3.524,-3.535,-3.5489,-3.5424,-3.5424,-3.5088,-3.447,-3.3858,-3.3295,-3.2555,-3.1446,-3.0783,-3.0463,-2.9673,-2.8984,-2.8667,-2.8556,-2.8568,-2.8556,-2.8375,-2.7532,-2.7419,-2.7406,-2.7306,-2.7205,-2.7231,-2.7193,-2.6961,-2.6747,-2.6722,-2.6772,-2.6904,-2.6828,-2.6896,-2.6985,-2.696,-2.7037,-2.6956,-2.6982,-2.6901,-2.6926,-2.6914,-2.6748,-2.67,-2.6395,-2.6339,-2.6471,-2.6445,-2.6427,-2.6691,-2.713,-2.7494,-2.7745,-2.8185,-2.8687,-2.8875,-3.7531,-3.7573,-3.7632,-3.8019,-3.8635,-3.8745,-3.8745,-3.869,-3.8745,-3.8745,-3.8635,-3.8149,-3.8262,-3.8486,-3.8035,-3.7397,-3.6904,-3.6461,-3.6298,-3.63,-3.6514,-3.6402,-3.6387,-3.6896,-3.6641,-3.5759,-3.5549,-3.5579,-3.5504,-3.5489,-3.5489,-3.5489,-3.5489,-3.5489,-3.5489,-3.5489,-3.5489,-3.5489,-3.5489,-3.5489,-3.5489,-3.5474,-3.5444,-3.5235,-3.5415,-3.5385,-3.5355,-3.54,-3.5489,-3.5489,-3.5489,-3.5429,-3.5325,-3.5415,-3.5489,-3.5489,-3.5489,-3.5489,-3.5489,-3.5489,-3.5489,-3.5489,-3.5489,-3.5489,-3.5424,-3.5279,-3.4706,-3.4041,-3.3325,-3.2409,-3.2269,-3.1995,-3.1564,-3.0983,-3.0551,-3.0537,-3.0564,-3.0398,-2.9878,-2.8792,-2.835,-2.7959,-2.7931,-2.7902,-2.7961,-2.7961,-2.7868,-2.7728,-2.7786,-2.7767,-2.7838,-2.7627,-2.7378,-2.7494,-2.7537,-2.7696,-2.7761,-2.7881,-2.7827,-2.7919,-2.7853,-2.7603,-2.7443,-2.7595,-2.7173,-2.6853,-2.6759,-2.6741,-2.6967,-2.7532,-2.7846,-2.8208,-2.8724,-2.9227,-2.9441,-3.8035,-3.8358,-3.8358,-3.8816,-3.9437,-3.9489,-3.9489,-3.9489,-3.9542,-3.9489,-3.9437,-3.9156,-3.9156,-3.9385,-3.9226,-3.8525,-3.7815,-3.6843,-3.6646,-3.6603,-3.6818,-3.6761,-3.6686,-3.7419,-3.7255,-3.6626,-3.6207,-3.5804,-3.5519,-3.5489,-3.5489,-3.5489,-3.5489,-3.5489,-3.5489,-3.5489,-3.5489,-3.5489,-3.5489,-3.5489,-3.5489,-3.5489,-3.5489,-3.5489,-3.5489,-3.5489,-3.5489,-3.5489,-3.5489,-3.5489,-3.5489,-3.5489,-3.5489,-3.5489,-3.5489,-3.5489,-3.5489,-3.5489,-3.5489,-3.5489,-3.5489,-3.5489,-3.5489,-3.5489,-3.5489,-3.5424,-3.5213,-3.4839,-3.4476,-3.3905,-3.3366,-3.3325,-3.2876,-3.2177,-3.1888,-3.1888,-3.1888,-3.196,-3.1208,-3.0283,-2.9895,-2.9404,-2.8609,-2.8594,-2.8664,-2.8686,-2.8805,-2.8852,-2.897,-2.8922,-2.901,-2.8906,-2.8705,-2.8598,-2.8781,-2.8996,-2.8969,-2.8955,-2.9009,-2.9104,-2.9252,-2.9158,-2.92,-2.9376,-2.8716,-2.7975,-2.785,-2.8068,-2.8053,-2.8066,-2.8843,-2.9361,-2.9516,-2.9783,-3.0139,-3.8596,-3.9139,-3.9156,-3.9489,-4.002,-4.0087,-4.007,-4.0087,-4.007,-4.007,-4.0087,-4.007,-4.002,-4.007,-3.9952,-3.9594,-3.8854,-3.7526,-3.7254,-3.7188,-3.7277,-3.7119,-3.7195,-3.7608,-3.7868,-3.6941,-3.6866,-3.6327,-3.5848,-3.5579,-3.5504,-3.5489,-3.5489,-3.5489,-3.5489,-3.5489,-3.5489,-3.5489,-3.5489,-3.5489,-3.5489,-3.5489,-3.5489,-3.5489,-3.5489,-3.5489,-3.5489,-3.5489,-3.5489,-3.5489,-3.5489,-3.5489,-3.5489,-3.5489,-3.5489,-3.5489,-3.5489,-3.5489,-3.5489,-3.5489,-3.5489,-3.5489,-3.5489,-3.5489,-3.5489,-3.5489,-3.5489,-3.5489,-3.5359,-3.5067,-3.4394,-3.4312,-3.3808,-3.3157,-3.2876,-3.2876,-3.2876,-3.2876,-3.282,-3.2121,-3.1544,-3.098,-3.0355,-3.0137,-3.0421,-3.0421,-3.0538,-3.0459,-3.0508,-3.0363,-3.0376,-3.0367,-3.0211,-2.9979,-3.0151,-3.0587,-3.0546,-3.0448,-3.0559,-3.0737,-3.089,-3.1002,-3.1128,-3.117,-3.0634,-3.0011,-2.9717,-2.939,-2.9473,-2.9715,-3.0281,-3.0679,-3.089,-3.0987,-3.1228,-3.9901,-3.9952,-3.9969,-4.002,-4.007,-4.0087,-4.0087,-4.0087,-4.0087,-4.0087,-4.0087,-4.0087,-4.0087,-4.0087,-4.0087,-3.961,-3.9016,-3.858,-3.8318,-3.8225,-3.7904,-3.7633,-3.7615,-3.8024,-3.7956,-3.7389,-3.733,-3.6926,-3.6481,-3.5924,-3.5519,-3.5489,-3.5489,-3.5489,-3.5489,-3.5489,-3.5489,-3.5489,-3.5489,-3.5489,-3.5489,-3.5489,-3.5489,-3.5489,-3.5489,-3.5489,-3.5489,-3.5489,-3.5489,-3.5489,-3.5489,-3.5489,-3.5489,-3.5489,-3.5489,-3.5489,-3.5489,-3.5489,-3.5489,-3.5489,-3.5489,-3.5489,-3.5489,-3.5489,-3.5489,-3.5489,-3.5489,-3.5489,-3.5489,-3.5424,-3.5198,-3.5264,-3.4773,-3.4259,-3.3808,-3.3891,-3.3822,-3.3891,-3.3822,-3.3739,-3.314,-3.2835,-3.2372,-3.2272,-3.2228,-3.2242,-3.2214,-3.2105,-3.2068,-3.1884,-3.1655,-3.1654,-3.1747,-3.1554,-3.1632,-3.2076,-3.2177,-3.2033,-3.2206,-3.2349,-3.2493,-3.2702,-3.3027,-3.2977,-3.2477,-3.1942,-3.1553,-3.1281,-3.1131,-3.1212,-3.1539,-3.191,-3.2269,-3.2365,-3.2321,-4.0087,-4.0087,-4.0087,-4.0087,-4.0087,-4.0087,-4.0087,-4.0087,-4.0087,-4.0087,-4.0087,-4.0087,-4.0087,-4.0087,-4.0087,-3.9901,-3.9542,-3.9139,-3.8876,-3.8853,-3.8471,-3.8273,-3.8402,-3.8888,-3.8758,-3.8381,-3.823,-3.8153,-3.7451,-3.6304,-3.5489,-3.5554,-3.5554,-3.5489,-3.5668,-3.5554,-3.5489,-3.5489,-3.5489,-3.5489,-3.5489,-3.5489,-3.5489,-3.5489,-3.5554,-3.5554,-3.5489,-3.5489,-3.5489,-3.5489,-3.5489,-3.5489,-3.5489,-3.5489,-3.5489,-3.5489,-3.5489,-3.5489,-3.5489,-3.5489,-3.5489,-3.5489,-3.5489,-3.5489,-3.5489,-3.5489,-3.5489,-3.5489,-3.5489,-3.5489,-3.5489,-3.5489,-3.5279,-3.4986,-3.4691,-3.4758,-3.4758,-3.4839,-3.4839,-3.4773,-3.4706,-3.4259,-3.3822,-3.3573,-3.3254,-3.2891,-3.3031,-3.3267,-3.3382,-3.3463,-3.3156,-3.2882,-3.2996,-3.3123,-3.3245,-3.3549,-3.3691,-3.3691,-3.3971,-3.4089,-3.4183,-3.4386,-3.4441,-3.4579,-3.4265,-3.3806,-3.339,-3.2738,-3.2208,-3.2416,-3.2709,-3.2974,-3.3213,-3.3366,-3.3171,-4.0087,-4.0087,-4.0087,-4.0087,-4.0087,-4.0087,-4.0087,-4.0087,-4.0087,-4.0087,-4.0087,-4.0087,-4.0087,-4.0087,-4.0087,-4.007,-4.002,-3.9489,-3.9246,-3.9122,-3.8942,-3.8785,-3.8836,-3.9305,-3.9463,-3.9585,-3.8832,-3.8626,-3.8146,-3.7234,-3.6258,-3.6085,-3.6321,-3.6196,-3.6133,-3.6196,-3.6258,-3.6243,-3.6258,-3.6258,-3.6196,-3.6196,-3.6148,-3.6085,-3.591,-3.5767,-3.5718,-3.5554,-3.5489,-3.5489,-3.5489,-3.5489,-3.5489,-3.5489,-3.5489,-3.5489,-3.5489,-3.5489,-3.5489,-3.5489,-3.5489,-3.5489,-3.5489,-3.5489,-3.5489,-3.5489,-3.5489,-3.5489,-3.5489,-3.5489,-3.5489,-3.5489,-3.5424,-3.5424,-3.5344,-3.5424,-3.5489,-3.5344,-3.5279,-3.5213,-3.5133,-3.5279,-3.4905,-3.461,-3.4177,-3.3671,-3.3822,-3.4245,-3.4405,-3.4534,-3.4411,-3.3984,-3.4133,-3.4243,-3.4431,-3.4678,-3.4936,-3.5026,-3.5295,-3.532,-3.5091,-3.5106,-3.5106,-3.532,-3.5489,-3.5145,-3.4398,-3.384,-3.338,-3.3708,-3.4004,-3.3873,-3.3973,-3.4109,-3.4177,-4.0087,-4.0087,-4.0087,-4.0087,-4.0087,-4.0087,-4.0087,-4.0087,-4.0087,-4.0087,-4.0087,-4.0087,-4.0087,-4.0087,-4.0087,-4.0087,-4.0087,-4.007,-3.9901,-3.9679,-3.9329,-3.9035,-3.9116,-3.9113,-3.906,-3.906,-3.9027,-3.8969,-3.867,-3.8284,-3.7679,-3.7648,-3.7354,-3.7531,-3.7472,-3.7235,-3.7294,-3.7294,-3.7294,-3.7354,-3.7413,-3.7413,-3.7413,-3.7338,-3.6919,-3.6492,-3.6508,-3.607,-3.5782,-3.5782,-3.5554,-3.5604,-3.5668,-3.5554,-3.5504,-3.5489,-3.5489,-3.5489,-3.5489,-3.5489,-3.5489,-3.5489,-3.5489,-3.5489,-3.5489,-3.5489,-3.5489,-3.5489,-3.5489,-3.5489,-3.5489,-3.5489,-3.5489,-3.5489,-3.5489,-3.5489,-3.5489,-3.5489,-3.5424,-3.5489,-3.5489,-3.5489,-3.5489,-3.5118,-3.4971,-3.4476,-3.4476,-3.4905,-3.5052,-3.5135,-3.5195,-3.5096,-3.5141,-3.5245,-3.526,-3.537,-3.5265,-3.525,-3.54,-3.5474,-3.5365,-3.5489,-3.5489,-3.5489,-3.5489,-3.5489,-3.5489,-3.4839,-3.4558,-3.5067,-3.5213,-3.4839,-3.4706,-3.4839,-3.5052,-4.0087,-4.0087,-4.0087,-4.0087,-4.0087,-4.0087,-4.0087,-4.0087,-4.0087,-4.0087,-4.0087,-4.0087,-4.0087,-4.0087,-4.0087,-4.0087,-4.0087,-4.0087,-4.0087,-4.002,-3.9765,-3.9662,-3.9656,-3.9581,-3.964,-3.9566,-3.9549,-3.9587,-3.9557,-3.9164,-3.9222,-3.9049,-3.8318,-3.7863,-3.7822,-3.8001,-3.7953,-3.7879,-3.7879,-3.7822,-3.7822,-3.7822,-3.7822,-3.7748,-3.7632,-3.7338,-3.7279,-3.71,-3.6935,-3.6662,-3.6037,-3.5958,-3.607,-3.5846,-3.5683,-3.5604,-3.5668,-3.5604,-3.5554,-3.5554,-3.5489,-3.5489,-3.5489,-3.5489,-3.5489,-3.5489,-3.5489,-3.5489,-3.5489,-3.5489,-3.5489,-3.5489,-3.5489,-3.5489,-3.5489,-3.5489,-3.5489,-3.5489,-3.5489,-3.5489,-3.5489,-3.5489,-3.5489,-3.5424,-3.5424,-3.5359,-3.5424,-3.5489,-3.5489,-3.5489,-3.5489,-3.5489,-3.5489,-3.5489,-3.5489,-3.5489,-3.5489,-3.5489,-3.5489,-3.5489,-3.5489,-3.5489,-3.5489,-3.5489,-3.5489,-3.5489,-3.5489,-3.5489,-3.5489,-3.5489,-3.5489,-3.5359,-3.5424,-3.5489,-3.5489,-4.0087,-4.0087,-4.0087,-4.0087,-4.0087,-4.0087,-4.0087,-4.0087,-4.0087,-4.0087,-4.0087,-4.0087,-4.0087,-4.0087,-4.0087,-4.0087,-4.0087,-4.0087,-4.0087,-4.007,-4.007,-4.0087,-4.0087,-4.0054,-3.9951,-4.0087,-4.0087,-4.0054,-3.9986,-4.0087,-3.9969,-3.9627,-3.9135,-3.8805,-3.8972,-3.8811,-3.8714,-3.8535,-3.8502,-3.8486,-3.8541,-3.8557,-3.8557,-3.8557,-3.8302,-3.8133,-3.8019,-3.7806,-3.7648,-3.7354,-3.6951,-3.6585,-3.6585,-3.6523,-3.6258,-3.6196,-3.6196,-3.6133,-3.6085,-3.5683,-3.5554,-3.5489,-3.5489,-3.5489,-3.5489,-3.5489,-3.5489,-3.5489,-3.5489,-3.5489,-3.5489,-3.5489,-3.5489,-3.5489,-3.5489,-3.5489,-3.5489,-3.5489,-3.5489,-3.5489,-3.5489,-3.5489,-3.5489,-3.5489,-3.5489,-3.5489,-3.5489,-3.5489,-3.5489,-3.5489,-3.5489,-3.5489,-3.5489,-3.5489,-3.5489,-3.5489,-3.5489,-3.5489,-3.5489,-3.5489,-3.5489,-3.5489,-3.5489,-3.5489,-3.5489,-3.5489,-3.5489,-3.5489,-3.5489,-3.5489,-3.5489,-3.5489,-3.5489,-3.5489,-3.5489,-4.0087,-4.0087,-4.0087,-4.0087,-4.0087,-4.0087,-4.0087,-4.0087,-4.0087,-4.0087,-4.0087,-4.0087,-4.0087,-4.0087,-4.0087,-4.0087,-4.0087,-4.0087,-4.0087,-4.0087,-4.0087,-4.0087,-4.0087,-4.0087,-4.0087,-4.0087,-4.0087,-4.0087,-4.0087,-4.0087,-4.0087,-4.0273,-4.0152,-4.0234,-4.0998,-4.1049,-4.0729,-4.0138,-4.0002,-3.99,-3.9731,-3.9731,-3.9696,-3.9575,-3.9156,-3.8924,-3.8816,-3.8486,-3.8318,-3.8149,-3.7879,-3.7632,-3.7674,-3.7573,-3.7413,-3.7472,-3.7531,-3.7589,-3.7589,-3.6321,-3.5846,-3.5846,-3.6022,-3.591,-3.5668,-3.5604,-3.5782,-3.6085,-3.5733,-3.5604,-3.5554,-3.5489,-3.5489,-3.5489,-3.5489,-3.5489,-3.5489,-3.5489,-3.5489,-3.5489,-3.5489,-3.5489,-3.5489,-3.5489,-3.5489,-3.5489,-3.5489,-3.5489,-3.5489,-3.5489,-3.5489,-3.5489,-3.5489,-3.5489,-3.5489,-3.5489,-3.5489,-3.5489,-3.5489,-3.5489,-3.5489,-3.5489,-3.5489,-3.5489,-3.5489,-3.5489,-3.5489,-3.5489,-3.5489,-3.5489,-3.5489,-3.5489,-3.5489,-3.5594,-3.5699,-4.0087,-4.0087,-4.0087,-4.0087,-4.0087,-4.0087,-4.0087,-4.0087,-4.0087,-4.0087,-4.0087,-4.0087,-4.0087,-4.0087,-4.0087,-4.0087,-4.0087,-4.0087,-4.0087,-4.0087,-4.0087,-4.0087,-4.0087,-4.0087,-4.0087,-4.0087,-4.0087,-4.0087,-4.0087,-4.0087,-4.0443,-4.073,-4.0933,-4.1373,-4.1271,-4.1204,-4.1001,-4.0865,-4.0798,-4.0629,-4.0155,-4.0087,-4.0087,-4.0087,-3.9782,-3.961,-3.961,-3.9226,-3.9119,-3.9065,-3.8832,-3.8541,-3.843,-3.8262,-3.7937,-3.7879,-3.7879,-3.7822,-3.7764,-3.7235,-3.7055,-3.6995,-3.689,-3.689,-3.7011,-3.7011,-3.7071,-3.6829,-3.6415,-3.629,-3.6275,-3.5718,-3.5619,-3.5489,-3.5489,-3.5489,-3.5489,-3.5489,-3.5489,-3.5489,-3.5489,-3.5489,-3.5489,-3.5489,-3.5489,-3.5489,-3.5489,-3.5489,-3.5489,-3.5489,-3.5489,-3.5489,-3.5489,-3.5489,-3.5489,-3.5489,-3.5489,-3.5489,-3.5489,-3.5489,-3.5489,-3.5489,-3.5489,-3.5489,-3.5489,-3.5489,-3.5489,-3.5489,-3.5489,-3.5489,-3.5609,-3.5654,-3.5654,-3.5893,-3.6222,-4.0087,-4.0087,-4.0087,-4.0087,-4.0087,-4.0087,-4.0087,-4.0087,-4.0087,-4.0087,-4.0087,-4.0087,-4.0087,-4.0087,-4.0087,-4.0087,-4.0087,-4.0087,-4.0087,-4.0087,-4.0087,-4.0087,-4.0087,-4.0087,-4.0087,-4.0087,-4.0087,-4.0087,-4.0087,-4.0087,-4.029,-4.0713,-4.1305,-4.1221,-4.1153,-4.1204,-4.1001,-4.0798,-4.0578,-4.0476,-4.0172,-4.0087,-4.0087,-4.0087,-4.007,-4.007,-4.007,-4.0087,-4.007,-3.9901,-3.9662,-3.9332,-3.9102,-3.8941,-3.8613,-3.8613,-3.8613,-3.8668,-3.8668,-3.8668,-3.8596,-3.8596,-3.8206,-3.7822,-3.7822,-3.7648,-3.7648,-3.7515,-3.7279,-3.716,-3.6919,-3.6305,-3.6196,-3.6196,-3.6196,-3.6258,-3.618,-3.6243,-3.5943,-3.5894,-3.5668,-3.5604,-3.5554,-3.5489,-3.5489,-3.5489,-3.5489,-3.5489,-3.5489,-3.5489,-3.5489,-3.5489,-3.5489,-3.5489,-3.5489,-3.5489,-3.5489,-3.5489,-3.5504,-3.5504,-3.5489,-3.5489,-3.5489,-3.5519,-3.5549,-3.5564,-3.5519,-3.5504,-3.5684,-3.5818,-3.5953,-3.5938,-3.5863,-3.6207,-3.6641,-4.0087,-4.0087,-4.0087,-4.0087,-4.0087,-4.0087,-4.0087,-4.0087,-4.0087,-4.0087,-4.0087,-4.0087,-4.0087,-4.0087,-4.0087,-4.0087,-4.0087,-4.0087,-4.0087,-4.0087,-4.0087,-4.0087,-4.0087,-4.0087,-4.0087,-4.0087,-4.0087,-4.0087,-4.0087,-4.029,-4.0341,-4.0223,-4.0561,-4.0764,-4.0967,-4.0933,-4.0764,-4.0629,-4.0561,-4.0409,-4.0138,-4.0087,-4.0087,-4.0087,-4.0087,-4.0087,-4.0087,-4.0087,-4.0087,-4.007,-4.002,-4.002,-4.002,-4.007,-4.007,-4.002,-3.9969,-3.985,-3.9799,-3.9731,-3.9799,-3.9506,-3.8707,-3.8149,-3.8092,-3.8318,-3.839,-3.8262,-3.8019,-3.7921,-3.7764,-3.7589,-3.7472,-3.7472,-3.7472,-3.7472,-3.7397,-3.716,-3.6798,-3.6523,-3.6133,-3.5958,-3.5846,-3.5718,-3.5782,-3.5489,-3.5489,-3.5489,-3.5489,-3.5489,-3.5489,-3.5489,-3.5489,-3.5489,-3.5489,-3.5489,-3.5489,-3.5489,-3.5519,-3.5519,-3.5504,-3.5639,-3.5759,-3.5818,-3.5714,-3.5759,-3.6058,-3.6103,-3.6043,-3.6193,-3.6462,-3.6492,-3.6507,-3.6731,-3.709,-4.0087,-4.0087,-4.0087,-4.0087,-4.0087,-4.0087,-4.0087,-4.0087,-4.0087,-4.0087,-4.0087,-4.0087,-4.0087,-4.0087,-4.0087,-4.0087,-4.0087,-4.0087,-4.0087,-4.0087,-4.0087,-4.0087,-4.0087,-4.0087,-4.0087,-4.0087,-4.0087,-4.0087,-4.0206,-4.046,-4.0426,-4.0206,-4.0476,-4.0646,-4.051,-4.0426,-4.0561,-4.0696,-4.0679,-4.0426,-4.0172,-4.0087,-4.0087,-4.0087,-4.0087,-4.0087,-4.0087,-4.0087,-4.0087,-4.0087,-4.0087,-4.0087,-4.0087,-4.0087,-4.007,-4.007,-4.007,-4.007,-4.0087,-4.0087,-4.0087,-4.0087,-3.9558,-3.9558,-3.9454,-3.9279,-3.9279,-3.9049,-3.8761,-3.8652,-3.8486,-3.8374,-3.8262,-3.8206,-3.8206,-3.8206,-3.8076,-3.7847,-3.7499,-3.716,-3.6829,-3.6646,-3.6477,-3.6352,-3.6352,-3.5782,-3.5554,-3.5604,-3.5554,-3.5619,-3.5489,-3.5489,-3.5489,-3.5489,-3.5489,-3.5489,-3.5489,-3.5504,-3.5579,-3.5729,-3.5923,-3.6058,-3.6148,-3.6252,-3.6342,-3.6596,-3.6941,-3.6851,-3.6626,-3.6896,-3.7135,-3.7135,-3.7195,-3.7404,-3.7674,-3.9394,-3.9648,-3.9648,-3.98,-4.0054,-4.0087,-4.0087,-4.0087,-4.0087,-4.0087,-4.0087,-4.0087,-4.0087,-4.0087,-4.0087,-4.0087,-4.0087,-4.0087,-4.0087,-4.0087,-4.0087,-4.0087,-4.0087,-4.0087,-4.0087,-4.0087,-4.0087,-4.0087,-4.0206,-4.0375,-4.0409,-4.0172,-4.0646,-4.046,-4.024,-4.0189,-4.0341,-4.0544,-4.0629,-4.046,-4.0273,-4.0087,-4.0087,-4.0087,-4.0087,-4.0087,-4.0087,-4.0087,-4.0087,-4.0087,-4.0087,-4.0087,-4.0087,-4.0087,-4.0087,-4.0087,-4.0087,-4.0087,-4.0087,-4.0087,-4.0087,-4.0087,-4.0087,-4.002,-4.002,-3.985,-3.9901,-3.985,-3.9558,-3.9315,-3.9209,-3.9032,-3.887,-3.8761,-3.8761,-3.8761,-3.8596,-3.8414,-3.8133,-3.7863,-3.769,-3.7573,-3.7397,-3.7203,-3.698,-3.6692,-3.6477,-3.6368,-3.6133,-3.5846,-3.5668,-3.5489,-3.5489,-3.5489,-3.5489,-3.5554,-3.5554,-3.5689,-3.5923,-3.6088,-3.6327,-3.6432,-3.6477,-3.6761,-3.709,-3.7315,-3.7479,-3.7389,-3.7285,-3.7569,-3.7853,-3.7958,-3.8003,-3.8078,-3.8362,-3.836,-3.892,-3.8971,-3.9462,-4.0037,-4.0087,-4.0087,-4.0087,-4.0087,-4.0087,-4.0087,-4.0087,-4.0087,-4.0087,-4.0087,-4.0087,-4.0087,-4.0087,-4.0087,-4.0087,-4.0087,-4.0087,-4.0087,-4.0087,-4.0087,-4.0087,-4.0087,-4.0087,-4.0087,-4.0206,-4.024,-4.0087,-4.0138,-4.0121,-4.0121,-4.0087,-4.0172,-4.024,-4.029,-4.0172,-4.0138,-4.0087,-4.0087,-4.0087,-4.0087,-4.0087,-4.0087,-4.0087,-4.0087,-4.0087,-4.0087,-4.0087,-4.0087,-4.0087,-4.0087,-4.0087,-4.0087,-4.0087,-4.0087,-4.0087,-4.0087,-4.0087,-4.0087,-4.0087,-4.0087,-4.0087,-4.0087,-4.0087,-3.9833,-3.9782,-3.9662,-3.961,-3.9506,-3.9454,-3.9454,-3.9454,-3.9385,-3.9209,-3.8941,-3.8723,-3.8723,-3.8541,-3.8076,-3.7831,-3.7616,-3.7499,-3.7279,-3.7115,-3.6966,-3.6492,-3.6289,-3.5988,-3.5831,-3.5894,-3.5831,-3.5831,-3.5683,-3.5814,-3.6235,-3.6462,-3.6716,-3.6776,-3.6776,-3.727,-3.7793,-3.7793,-3.7853,-3.7943,-3.8123,-3.8317,-3.8586,-3.8796,-3.8841,-3.8736,-3.8841,-3.8328,-3.821,-3.8768,-3.9411,-4.0037,-4.0087,-4.0054,-4.0087,-4.0087,-4.0054,-4.007,-4.007,-4.0087,-4.0087,-4.0087,-4.0087,-4.0087,-4.0087,-4.0087,-4.0087,-4.0087,-4.0087,-4.0121,-4.0171,-4.0171,-4.0087,-4.0087,-4.0171,-4.0087,-4.0087,-4.0138,-4.0121,-4.0121,-4.0121,-4.0171,-4.0171,-4.0087,-4.0087,-4.0087,-4.0087,-4.0087,-4.0087,-4.0087,-4.0087,-4.0087,-4.0087,-4.0087,-4.0087,-4.0087,-4.0087,-4.0087,-4.0087,-4.0087,-4.0087,-4.0087,-4.0087,-4.0087,-4.0087,-4.0087,-4.0087,-4.0087,-4.0087,-4.0087,-4.0087,-4.0087,-4.0087,-4.0087,-4.0087,-4.0087,-4.0087,-4.0087,-4.0087,-4.0087,-4.0087,-4.0087,-4.0087,-4.0087,-3.9901,-3.9662,-3.9627,-3.9644,-3.9295,-3.8816,-3.8525,-3.8302,-3.8019,-3.7748,-3.7663,-3.7695,-3.7476,-3.7583,-3.7225,-3.6585,-3.6446,-3.6461,-3.6537,-3.6597,-3.6523,-3.6869,-3.705,-3.7241,-3.7775,-3.8288,-3.8237,-3.8467,-3.8467,-3.8601,-3.8916,-3.9095,-3.905,-3.9035,-3.914,-3.92,-3.914,-3.923,-3.7671,-3.7786,-3.8272,-3.8734,-3.914,-3.9445,-3.9428,-3.9208,-3.9445,-3.9597,-3.9665,-3.9901,-4.007,-4.007,-4.0087,-4.0087,-4.0087,-4.0087,-4.0087,-4.0087,-4.0121,-4.0087,-4.0171,-4.0336,-4.0497,-4.0466,-4.0466,-4.0417,-4.0254,-4.0121,-4.0121,-4.0385,-4.0336,-4.0254,-4.0385,-4.0286,-4.0121,-4.0087,-4.0171,-4.0121,-4.0121,-4.0121,-4.0138,-4.0087,-4.0087,-4.0087,-4.0087,-4.0087,-4.0087,-4.0087,-4.0087,-4.0087,-4.0087,-4.0087,-4.0087,-4.0087,-4.0087,-4.0087,-4.0087,-4.0087,-4.0087,-4.0087,-4.0087,-4.0087,-4.0087,-4.0087,-4.0087,-4.0087,-4.0087,-4.0087,-4.0087,-4.0087,-4.0087,-4.0087,-4.0087,-4.0087,-4.0087,-4.002,-3.9901,-3.9901,-3.9918,-3.9799,-3.9506,-3.9454,-3.9226,-3.9102,-3.8778,-3.8988,-3.8916,-3.8691,-3.8748,-3.8675,-3.8067,-3.7701,-3.777,-3.782,-3.7853,-3.7826,-3.7723,-3.8258,-3.8857,-3.9398,-3.9823,-3.9364,-3.9038,-3.914,-3.9349,-3.9553,-3.9424,-3.929,-3.9305,-3.9379,-3.9424,-3.9454,-3.9499,-3.705,-3.7594,-3.7894,-3.801,-3.8068,-3.8693,-3.8611,-3.8125,-3.8582,-3.8937,-3.9106,-3.9665,-3.9935,-4.007,-4.0087,-4.0087,-4.0087,-4.0087,-4.0087,-4.0121,-4.0254,-4.0336,-4.0546,-4.0767,-4.092,-4.1013,-4.1013,-4.0797,-4.0546,-4.0563,-4.0737,-4.0891,-4.075,-4.0546,-4.0703,-4.0546,-4.0353,-4.0483,-4.0466,-4.0336,-4.0254,-4.0171,-4.0121,-4.0087,-4.0087,-4.0087,-4.0087,-4.0087,-4.0087,-4.0087,-4.0087,-4.0087,-4.0087,-4.0087,-4.0087,-4.0087,-4.0087,-4.0087,-4.0087,-4.0087,-4.0087,-4.0087,-4.0087,-4.0087,-4.0087,-4.0087,-4.0087,-4.0087,-4.0087,-4.0104,-4.0104,-4.0087,-4.0087,-4.0087,-4.0087,-4.0104,-4.0104,-4.0104,-4.0104,-4.0104,-4.0121,-4.0104,-4.029,-4.029,-4.024,-4.0087,-4.022,-4.0574,-4.0615,-4.0254,-4.0106,-4.0089,-3.9818,-3.9528,-3.9108,-3.92,-3.9312,-3.9195,-3.9235,-3.9849,-4.0347,-4.0649,-4.0551,-3.9811,-3.9664,-3.9984,-3.9793,-3.9864,-3.9666,-3.9553,-3.9424,-3.9439,-3.9514,-3.9559,-3.9634,-3.7822,-3.8179,-3.8199,-3.8293,-3.8439,-3.8601,-3.8391,-3.7987,-3.8024,-3.8413,-3.887,-3.9106,-3.9462,-4.0121,-4.0087,-4.0087,-4.0087,-4.0087,-4.0087,-4.0121,-4.0449,-4.0655,-4.092,-4.1286,-4.1534,-4.1621,-4.1621,-4.1552,-4.115,-4.1303,-4.1508,-4.1595,-4.1552,-4.1464,-4.1446,-4.1196,-4.0938,-4.103,-4.0967,-4.0874,-4.0967,-4.0767,-4.0171,-4.0087,-4.0087,-4.0087,-4.0087,-4.0087,-4.0087,-4.0087,-4.0121,-4.0121,-4.0087,-4.0087,-4.0087,-4.0087,-4.0087,-4.0087,-4.0087,-4.0087,-4.0087,-4.0087,-4.0087,-4.0087,-4.0087,-4.0087,-4.0087,-4.0121,-4.0138,-4.0239,-4.0239,-4.0104,-4.0087,-4.0121,-4.0138,-4.0206,-4.0223,-4.0223,-4.0223,-4.024,-4.0257,-4.0595,-4.1119,-4.1153,-4.1255,-4.1253,-4.1456,-4.1707,-4.1825,-4.1614,-4.1352,-4.1385,-4.1368,-4.0783,-4.0176,-4.0598,-4.0729,-4.061,-4.0662,-4.1241,-4.1565,-4.1661,-4.1385,-4.0685,-4.0798,-4.1115,-4.0894,-4.0432,-4.0185,-4.006,-3.9553,-3.9454,-3.9529,-3.9664,-3.9753]}]]